[[{"header":{"parameterUnit":"m.s-1","parameterCategory":1,"la1":30.6,"la2":29.2853,"lo1":-89.7004,"lo2":-87.6739,"dy":0.0162,"dx":0.0183,"nx":112,"ny":82,"refTime":"2023-07-22T12:00:00:Z","depth":0,"parameterNumber":2,"parameterNumberName":"U-component_of_WINDS"},"data":[0.0,0.0,0.0,0.0,0.0,0.0,0.0,0.0,0.0,0.0,0.0,0.0,0.0,0.0,0.0,0.0,0.0,0.0,0.0,0.0,0.0,0.0,0.0,0.0,0.0,0.0,0.0,0.0,0.0,0.0,0.0,0.0,0.0,0.0,0.0,0.0,0.0,0.0,0.0,0.0,0.0,0.0,0.0,0.0,0.0,0.0,0.0,0.0,0.0,0.0,0.0,0.0,0.0,0.0,0.0,0.0,0.0,0.0,0.0,0.0,0.0,0.0,0.0,0.0,0.0,0.0,0.0,0.0,0.0,0.0,0.0,0.0,0.0,0.0,0.0,0.0,0.0,0.0,0.0,0.0,0.0,0.0,0.0,0.0,0.0,0.0,0.0,0.0,0.0,0.0,1.8914,1.9104,1.9235,1.9298,1.9298,1.9393,1.9424,1.9424,0.0,0.0,0.0,0.0,0.0,0.0,0.0,0.0,0.0,0.0,0.0,0.0,0.0,0.0,0.0,0.0,0.0,0.0,0.0,0.0,0.0,0.0,0.0,0.0,0.0,0.0,0.0,0.0,0.0,0.0,0.0,0.0,0.0,0.0,0.0,0.0,0.0,0.0,0.0,0.0,0.0,0.0,0.0,0.0,0.0,0.0,0.0,0.0,0.0,0.0,0.0,0.0,0.0,0.0,0.0,0.0,0.0,0.0,0.0,0.0,0.0,0.0,0.0,0.0,0.0,0.0,0.0,0.0,0.0,0.0,0.0,0.0,0.0,0.0,0.0,0.0,0.0,0.0,0.0,0.0,0.0,0.0,0.0,0.0,0.0,0.0,0.0,0.0,0.0,0.0,0.0,0.0,0.0,0.0,0.0,0.0,0.0,0.0,0.0,0.0,0.0,0.0,0.0,0.0,1.9104,1.9251,1.9295,1.9323,1.9375,1.9453,1.9483,1.9483,0.0,0.0,0.0,0.0,0.0,0.0,0.0,0.0,0.0,0.0,0.0,0.0,0.0,0.0,0.0,0.0,0.0,0.0,0.0,0.0,0.0,0.0,0.0,0.0,0.0,0.0,0.0,0.0,0.0,0.0,0.0,0.0,0.0,0.0,0.0,0.0,0.0,0.0,0.0,0.0,0.0,0.0,0.0,0.0,0.0,0.0,0.0,0.0,0.0,0.0,0.0,0.0,0.0,0.0,0.0,0.0,0.0,0.0,0.0,0.0,0.0,0.0,0.0,0.0,0.0,0.0,0.0,0.0,0.0,0.0,0.0,0.0,0.0,0.0,0.0,0.0,0.0,0.0,0.0,0.0,0.0,0.0,0.0,0.0,0.0,0.0,0.0,0.0,0.0,0.0,0.0,0.0,0.0,0.0,0.0,0.0,0.0,0.0,0.0,0.0,0.0,0.0,0.0,1.9135,1.9214,1.9295,1.9357,1.942,1.9453,1.953,1.9541,1.9541,1.9583,0.0,0.0,0.0,0.0,0.0,0.0,0.0,0.0,0.0,0.0,0.0,0.0,0.0,0.0,0.0,0.0,0.0,0.0,0.0,0.0,0.0,0.0,0.0,0.0,0.0,0.0,0.0,0.0,0.0,0.0,0.0,0.0,0.0,0.0,0.0,0.0,0.0,0.0,0.0,0.0,0.0,0.0,0.0,0.0,0.0,0.0,0.0,0.0,0.0,0.0,0.0,0.0,0.0,0.0,0.0,0.0,0.0,0.0,0.0,0.0,0.0,0.0,0.0,0.0,0.0,0.0,0.0,0.0,0.0,0.0,0.0,0.0,0.0,0.0,0.0,0.0,0.0,0.0,0.0,0.0,0.0,0.0,0.0,0.0,0.0,0.0,0.0,0.0,0.0,0.0,0.0,0.0,0.0,0.0,0.0,0.0,0.0,0.0,0.0,0.0,0.0,0.0,1.9243,1.9338,1.9353,1.945,1.9512,1.9526,1.9583,1.9625,1.9606,1.9673,0.0,0.0,0.0,0.0,0.0,0.0,0.0,0.0,0.0,0.0,0.0,0.0,0.0,0.0,0.0,0.0,0.0,0.0,0.0,0.0,0.0,0.0,0.0,0.0,0.0,0.0,0.0,0.0,0.0,0.0,0.0,0.0,0.0,0.0,0.0,0.0,0.0,0.0,0.0,0.0,0.0,0.0,0.0,0.0,0.0,0.0,0.0,0.0,0.0,0.0,0.0,0.0,0.0,0.0,0.0,0.0,0.0,0.0,0.0,0.0,0.0,0.0,0.0,0.0,0.0,0.0,0.0,0.0,0.0,0.0,0.0,0.0,0.0,0.0,0.0,0.0,0.0,0.0,0.0,0.0,0.0,0.0,0.0,0.0,0.0,0.0,0.0,0.0,0.0,0.0,0.0,0.0,0.0,0.0,0.0,0.0,0.0,0.0,0.0,0.0,0.0,0.0,1.9357,1.942,1.9471,1.955,1.9597,1.9601,1.966,1.9699,1.9701,1.9701,0.0,0.0,0.0,0.0,0.0,0.0,0.0,0.0,0.0,0.0,0.0,0.0,0.0,0.0,0.0,0.0,0.0,0.0,0.0,0.0,0.0,0.0,0.0,0.0,0.0,0.0,0.0,0.0,0.0,0.0,0.0,0.0,0.0,0.0,0.0,0.0,0.0,0.0,0.0,0.0,0.0,0.0,0.0,0.0,0.0,0.0,0.0,0.0,0.0,0.0,0.0,0.0,0.0,0.0,0.0,0.0,0.0,0.0,0.0,0.0,0.0,0.0,0.0,0.0,0.0,0.0,0.0,0.0,0.0,0.0,0.0,0.0,0.0,0.0,0.0,0.0,0.0,0.0,0.0,0.0,0.0,0.0,0.0,0.0,0.0,0.0,0.0,0.0,0.0,0.0,0.0,0.0,0.0,0.0,0.0,0.0,0.0,0.0,0.0,0.0,0.0,0.0,1.9493,1.9522,0.0,1.962,1.966,1.9662,1.9707,1.9763,1.9763,0.0,0.0,0.0,0.0,0.0,0.0,0.0,0.0,0.0,0.0,0.0,0.0,0.0,0.0,0.0,0.0,0.0,0.0,0.0,0.0,0.0,0.0,0.0,0.0,0.0,0.0,0.0,0.0,0.0,0.0,0.0,0.0,0.0,0.0,0.0,0.0,0.0,0.0,0.0,0.0,0.0,0.0,0.0,0.0,0.0,0.0,0.0,0.0,0.0,0.0,0.0,0.0,0.0,0.0,0.0,0.0,0.0,0.0,0.0,0.0,0.0,0.0,0.0,0.0,0.0,0.0,0.0,0.0,0.0,0.0,0.0,0.0,0.0,0.0,0.0,0.0,0.0,0.0,0.0,0.0,0.0,0.0,0.0,0.0,0.0,0.0,0.0,0.0,0.0,0.0,0.0,0.0,0.0,0.0,0.0,0.0,0.0,0.0,0.0,0.0,0.0,0.0,1.9536,1.9592,1.9647,0.0,1.9694,1.9732,1.9763,1.9813,1.9849,1.9858,0.0,0.0,0.0,0.0,0.0,0.0,0.0,0.0,0.0,0.0,0.0,0.0,0.0,0.0,0.0,0.0,0.0,0.0,0.0,0.0,0.0,0.0,0.0,0.0,0.0,0.0,0.0,0.0,0.0,0.0,0.0,0.0,0.0,0.0,0.0,0.0,0.0,0.0,0.0,0.0,0.0,0.0,0.0,0.0,0.0,0.0,0.0,0.0,0.0,0.0,0.0,0.0,0.0,0.0,0.0,0.0,0.0,0.0,0.0,0.0,0.0,0.0,0.0,0.0,0.0,0.0,0.0,0.0,0.0,0.0,0.0,0.0,0.0,0.0,0.0,0.0,0.0,0.0,0.0,0.0,0.0,0.0,0.0,0.0,0.0,0.0,0.0,0.0,0.0,0.0,0.0,0.0,0.0,0.0,0.0,0.0,0.0,0.0,0.0,0.0,0.0,0.0,1.9615,1.9655,1.9726,1.9776,1.9794,1.9823,1.99,1.99,1.9934,0.0,0.0,0.0,0.0,0.0,0.0,0.0,0.0,0.0,0.0,0.0,0.0,0.0,0.0,0.0,0.0,0.0,0.0,0.0,0.0,0.0,0.0,0.0,0.0,0.0,0.0,0.0,0.0,0.0,0.0,0.0,0.0,0.0,0.0,0.0,0.0,0.0,0.0,0.0,0.0,0.0,0.0,0.0,0.0,0.0,0.0,0.0,0.0,0.0,0.0,0.0,0.0,0.0,0.0,0.0,0.0,0.0,0.0,0.0,0.0,0.0,0.0,0.0,0.0,0.0,0.0,0.0,0.0,0.0,0.0,0.0,0.0,0.0,0.0,0.0,0.0,0.0,0.0,0.0,0.0,0.0,0.0,0.0,0.0,0.0,0.0,0.0,0.0,0.0,0.0,0.0,0.0,0.0,0.0,0.0,0.0,0.0,0.0,0.0,0.0,0.0,0.0,0.0,1.9744,1.9757,1.9806,1.9854,1.9866,1.99,1.9966,1.9969,2.0,2.0068,0.0,0.0,0.0,0.0,0.0,0.0,0.0,0.0,0.0,0.0,0.0,0.0,0.0,0.0,0.0,0.0,0.0,0.0,0.0,0.0,0.0,0.0,0.0,0.0,0.0,0.0,0.0,0.0,0.0,0.0,0.0,0.0,0.0,0.0,0.0,0.0,0.0,0.0,0.0,0.0,0.0,0.0,0.0,0.0,0.0,0.0,0.0,0.0,0.0,0.0,0.0,0.0,0.0,0.0,0.0,0.0,0.0,0.0,0.0,0.0,0.0,0.0,0.0,0.0,0.0,0.0,0.0,0.0,0.0,0.0,0.0,0.0,0.0,0.0,0.0,0.0,0.0,0.0,0.0,0.0,0.0,0.0,0.0,0.0,0.0,0.0,0.0,0.0,0.0,0.0,0.0,0.0,0.0,0.0,0.0,0.0,0.0,0.0,0.0,0.0,0.0,0.0,2.0766,2.057,2.038,2.0445,2.0164,1.9988,2.0039,2.005,2.0108,2.0135,0.0,0.0,0.0,0.0,0.0,0.0,0.0,0.0,0.0,0.0,0.0,0.0,0.0,0.0,0.0,0.0,0.0,0.0,0.0,0.0,0.0,0.0,0.0,0.0,0.0,0.0,0.0,0.0,0.0,0.0,0.0,0.0,0.0,0.0,0.0,0.0,0.0,0.0,0.0,0.0,0.0,0.0,0.0,0.0,0.0,0.0,0.0,0.0,0.0,0.0,0.0,0.0,0.0,0.0,0.0,0.0,0.0,0.0,0.0,0.0,0.0,0.0,0.0,0.0,0.0,0.0,0.0,0.0,0.0,0.0,0.0,0.0,0.0,0.0,0.0,0.0,0.0,0.0,0.0,0.0,0.0,0.0,0.0,0.0,0.0,0.0,0.0,0.0,0.0,0.0,0.0,0.0,0.0,0.0,0.0,0.0,0.0,0.0,0.0,0.0,0.0,0.0,2.2306,2.1789,2.1324,2.1301,2.0659,2.0184,2.0117,2.0164,2.0208,2.0219,0.0,0.0,0.0,0.0,0.0,0.0,0.0,0.0,0.0,0.0,0.0,0.0,0.0,0.0,0.0,0.0,0.0,0.0,0.0,0.0,0.0,0.0,0.0,0.0,0.0,0.0,0.0,0.0,0.0,0.0,0.0,0.0,0.0,0.0,0.0,0.0,0.0,0.0,0.0,0.0,0.0,0.0,0.0,0.0,0.0,0.0,0.0,0.0,0.0,0.0,0.0,0.0,0.0,0.0,0.0,0.0,0.0,0.0,0.0,0.0,1.9323,0.0,0.0,0.0,0.0,0.0,0.0,0.0,0.0,0.0,0.0,0.0,0.0,0.0,0.0,0.0,0.0,0.0,0.0,0.0,0.0,0.0,0.0,0.0,0.0,0.0,0.0,0.0,0.0,0.0,0.0,0.0,0.0,0.0,0.0,0.0,0.0,0.0,0.0,0.0,0.0,0.0,2.2445,2.236,2.2056,2.1434,2.1234,2.0862,2.0235,2.0241,2.0273,2.028,2.0294,0.0,0.0,0.0,0.0,0.0,0.0,0.0,0.0,0.0,0.0,0.0,0.0,0.0,0.0,0.0,0.0,0.0,0.0,0.0,0.0,0.0,0.0,0.0,0.0,0.0,0.0,0.0,0.0,0.0,0.0,0.0,0.0,0.0,0.0,0.0,0.0,0.0,0.0,0.0,0.0,0.0,0.0,0.0,0.0,0.0,0.0,0.0,0.0,0.0,0.0,0.0,0.0,0.0,0.0,0.0,0.0,0.0,0.0,0.0,0.0,2.0026,0.0,0.0,0.0,0.0,0.0,0.0,0.0,0.0,0.0,0.0,0.0,0.0,0.0,0.0,0.0,0.0,0.0,0.0,0.0,0.0,0.0,0.0,0.0,0.0,0.0,0.0,0.0,0.0,0.0,0.0,0.0,0.0,0.0,0.0,0.0,0.0,0.0,0.0,0.0,0.0,2.3731,2.3462,2.3076,2.268,2.1924,2.128,2.0853,2.0508,2.0313,2.0353,2.0347,0.0,0.0,0.0,0.0,0.0,0.0,0.0,0.0,0.0,0.0,0.0,0.0,0.0,0.0,0.0,0.0,0.0,0.0,0.0,0.0,0.0,0.0,0.0,0.0,0.0,0.0,0.0,0.0,0.0,0.0,0.0,0.0,0.0,0.0,0.0,0.0,0.0,0.0,0.0,0.0,0.0,0.0,0.0,0.0,0.0,0.0,0.0,0.0,0.0,0.0,0.0,0.0,0.0,2.1789,2.1862,2.1844,2.199,2.2045,2.2045,2.1877,2.1656,2.144,2.1459,0.0,0.0,0.0,0.0,0.0,0.0,0.0,0.0,0.0,0.0,0.0,0.0,0.0,0.0,0.0,0.0,0.0,0.0,0.0,0.0,0.0,0.0,0.0,0.0,2.0299,2.0318,0.0,0.0,0.0,0.0,0.0,0.0,0.0,0.0,0.0,0.0,0.0,0.0,2.5084,2.456,2.4096,2.4024,2.2775,2.1897,2.176,2.1131,2.0785,2.0843,2.0853,2.088,0.0,0.0,0.0,0.0,0.0,0.0,0.0,0.0,0.0,0.0,0.0,0.0,0.0,0.0,0.0,0.0,0.0,0.0,0.0,0.0,0.0,0.0,0.0,0.0,0.0,0.0,0.0,0.0,0.0,0.0,0.0,0.0,1.9202,1.9202,0.0,0.0,0.0,0.0,0.0,0.0,0.0,0.0,0.0,0.0,0.0,0.0,0.0,2.1867,2.1867,2.1867,2.1867,2.1885,2.2568,2.2883,2.283,2.3529,2.386,2.3859,2.384,0.0,2.1589,2.1625,0.0,0.0,0.0,0.0,0.0,0.0,0.0,0.0,0.0,0.0,0.0,0.0,0.0,0.0,0.0,0.0,0.0,0.0,0.0,0.0,0.0,0.0,2.2067,2.206,2.2104,2.2147,0.0,2.1487,2.1167,2.2054,2.2218,0.0,0.0,0.0,0.0,0.0,0.0,0.0,2.5191,2.5091,2.4781,2.4149,2.3889,2.3463,2.2762,2.2622,2.2598,2.2657,2.2663,2.2683,2.2742,2.2867,0.0,0.0,0.0,0.0,0.0,0.0,0.0,0.0,0.0,0.0,0.0,0.0,0.0,0.0,0.0,0.0,0.0,0.0,0.0,0.0,0.0,0.0,0.0,0.0,0.0,0.0,0.0,0.0,0.0,1.9648,1.9923,1.9923,2.0343,2.0816,0.0,0.0,0.0,0.0,0.0,0.0,0.0,0.0,0.0,2.258,2.3058,2.3299,2.3299,2.3299,2.3299,2.3299,2.3651,2.3818,2.3783,2.4153,2.4302,2.4302,2.4302,2.3878,2.316,2.3161,2.2921,2.255,0.0,0.0,0.0,0.0,2.2021,2.2036,2.2162,2.2206,0.0,2.2243,0.0,0.0,0.0,0.0,0.0,0.0,0.0,0.0,0.0,0.0,2.2474,2.2493,2.2536,2.268,2.3125,2.2923,2.2728,0.0,2.3202,2.3449,2.4334,0.0,0.0,0.0,0.0,2.5203,2.5258,2.5252,2.5158,2.486,2.4433,2.4003,2.3654,2.3231,2.2971,2.2998,2.3047,2.3069,2.3104,2.3566,2.4004,0.0,0.0,0.0,0.0,0.0,0.0,0.0,0.0,0.0,0.0,0.0,0.0,0.0,0.0,0.0,0.0,0.0,0.0,0.0,0.0,0.0,0.0,0.0,0.0,0.0,0.0,0.0,0.0,2.0317,2.0831,2.0829,2.1399,2.1892,0.0,0.0,0.0,0.0,0.0,0.0,2.2662,2.344,2.3884,2.388,2.4698,2.5108,2.5108,2.5108,2.5108,2.5091,2.5091,2.5074,2.5092,2.5092,2.5092,2.5091,2.5091,2.5091,2.5089,2.4559,2.404,2.3553,2.3584,2.321,2.27,2.2761,2.2791,2.282,2.2929,2.297,2.2973,2.2992,2.305,2.3095,2.3095,0.0,0.0,0.0,0.0,2.3095,2.3144,2.3179,2.3191,2.3241,2.3282,2.3427,2.4026,2.4159,2.4148,0.0,2.4131,2.4333,2.5005,0.0,0.0,0.0,0.0,2.5239,2.5292,2.5313,2.5341,2.5416,2.4888,2.4532,2.4554,2.3999,2.3664,2.3679,2.3735,2.3774,2.3764,2.4397,2.4737,2.4725,0.0,0.0,0.0,0.0,0.0,0.0,0.0,0.0,0.0,0.0,0.0,0.0,0.0,0.0,0.0,0.0,0.0,0.0,0.0,0.0,0.0,0.0,0.0,0.0,0.0,0.0,0.0,0.0,0.0,2.1725,2.1762,0.0,0.0,0.0,0.0,2.4296,2.4385,2.44,2.4468,2.5302,2.5749,2.5766,2.6606,2.7071,2.7071,2.7071,2.7018,2.6967,2.6967,2.6968,2.697,2.697,2.6969,2.6967,2.6967,2.7001,2.6923,2.5215,2.4512,2.4543,2.461,2.4604,2.4561,2.4644,2.467,2.4662,2.4738,2.478,2.4788,2.4847,2.4911,2.4956,2.4956,2.4956,0.0,0.0,2.4956,2.4956,2.4968,2.5018,2.5077,2.5077,2.5072,2.5086,2.5124,2.5124,2.5122,0.0,2.5024,2.5068,2.5176,0.0,2.5198,2.5201,2.5253,2.5303,2.5303,2.5351,2.5423,2.5484,2.5472,2.5464,2.5511,2.5485,2.5507,2.5559,2.5563,2.5577,2.5562,2.5618,2.562,2.5629,2.5676,0.0,0.0,0.0,0.0,0.0,0.0,0.0,0.0,0.0,0.0,0.0,0.0,0.0,0.0,0.0,0.0,0.0,0.0,0.0,0.0,0.0,0.0,0.0,0.0,0.0,0.0,0.0,0.0,2.2642,2.3085,0.0,2.4688,2.4799,2.5186,2.6093,2.6166,2.6218,2.6338,2.6637,2.6803,2.6801,2.71,2.7266,2.7266,2.7266,2.725,2.7234,2.7234,2.7234,2.7236,2.7236,2.7217,2.7234,2.7234,2.7266,2.7277,2.6626,2.6352,2.6338,2.6419,2.6431,2.6371,2.592,2.5778,2.5698,2.5208,2.5031,2.5025,2.5057,2.507,2.5101,2.5101,2.5095,2.512,2.5144,2.5168,2.516,2.5164,2.5187,2.5198,2.5198,2.5201,2.5192,2.5192,2.5192,2.5365,2.5948,2.5581,2.5168,2.519,2.5231,2.5444,2.6023,2.5688,2.5562,2.613,2.5779,2.5476,2.5507,2.5543,2.5577,2.5601,2.5634,2.5663,2.5699,2.5697,2.571,2.5696,2.5701,2.5705,2.5707,2.5691,2.5693,0.0,0.0,0.0,0.0,0.0,0.0,0.0,0.0,0.0,0.0,0.0,0.0,0.0,0.0,0.0,0.0,0.0,0.0,0.0,0.0,0.0,0.0,0.0,0.0,0.0,0.0,2.3933,2.3986,2.469,2.5431,2.6097,2.6189,2.6448,2.7078,2.7167,2.7234,2.7336,2.7633,2.7815,2.7812,2.8092,2.8244,2.8244,2.8244,2.8244,2.8193,2.8193,2.8193,2.8177,2.8177,2.8177,2.8193,2.8193,2.8244,2.8309,2.8309,2.8278,2.8193,2.7653,2.7456,2.7414,2.6925,2.6744,2.6694,2.6193,2.6015,2.6015,2.6015,2.6015,2.6015,2.6015,2.6008,2.602,2.6056,2.6079,2.6071,2.6094,2.6085,2.6077,2.6077,2.6077,2.6107,2.6098,2.6109,2.6282,2.6928,2.6311,2.5772,2.6071,2.6149,2.6361,2.6949,2.6593,2.6485,2.7052,2.6688,2.6273,2.5996,2.601,2.5924,2.5668,2.5663,2.5703,2.5694,2.571,2.5698,2.5698,2.5705,2.5707,2.5707,2.5694,2.5696,2.5696,0.0,0.0,0.0,0.0,0.0,0.0,0.0,0.0,0.0,0.0,0.0,0.0,0.0,0.0,0.0,0.0,0.0,0.0,0.0,0.0,0.0,0.0,0.0,2.3414,2.4561,2.5597,2.5727,2.6433,2.6972,2.7138,2.7208,2.7261,2.7334,2.7466,2.7544,2.7562,2.8415,2.8916,2.8916,2.9745,3.0179,3.0179,3.0179,3.0148,3.0083,3.0083,3.0048,2.9981,2.9962,2.9978,3.0045,3.0007,3.0038,3.0102,3.0102,3.0102,2.9931,2.8246,2.7618,2.7665,2.766,2.7662,2.7708,2.7788,2.78,2.78,2.78,2.78,2.78,2.78,2.78,2.78,2.78,2.78,2.78,2.78,2.7796,2.78,2.78,2.786,2.7901,2.7903,2.7903,2.7913,2.7933,2.7268,2.694,2.7769,2.7904,2.7923,2.7943,2.798,0.0,2.8034,2.8078,2.7809,2.7025,2.694,2.6612,2.5812,2.5738,2.5733,2.5698,2.5696,2.5698,2.5707,2.5707,2.5707,2.5707,2.5702,2.5703,2.5703,0.0,0.0,0.0,0.0,0.0,0.0,0.0,0.0,0.0,0.0,0.0,0.0,0.0,0.0,0.0,0.0,0.0,0.0,0.0,0.0,0.0,0.0,2.6355,2.5224,2.5967,2.6674,2.671,2.6896,2.7324,2.7976,2.8103,2.8697,2.999,3.0135,3.0449,3.1124,3.1423,3.1572,3.1572,3.1781,3.1895,3.1895,3.1895,3.1895,3.1879,3.1879,3.1879,3.1844,3.1197,3.0931,3.0909,3.0331,3.0113,3.0157,3.0166,3.0213,3.0188,2.9655,2.947,2.9407,2.883,2.8262,2.7776,2.78,2.78,2.78,2.78,2.78,2.78,2.78,2.7804,2.7808,2.7808,2.7838,2.7879,2.7862,2.7873,2.7864,2.7865,2.7894,2.7894,2.7904,2.7904,2.8087,2.8724,2.8695,2.8415,2.7991,2.7942,2.8182,2.882,2.8435,0.0,2.8934,2.8515,2.8093,2.7876,2.7839,2.7502,2.6634,2.6614,2.6373,2.5735,2.5701,2.5705,2.5707,2.5707,2.5694,2.5702,2.5703,2.5703,0.0,0.0,0.0,0.0,0.0,0.0,0.0,0.0,0.0,0.0,0.0,0.0,0.0,0.0,0.0,0.0,0.0,0.0,0.0,0.0,0.0,0.0,2.7115,2.7639,2.7491,2.7567,2.7642,2.7641,2.8276,2.8931,2.949,2.9901,3.0574,3.1661,3.1806,3.2064,3.2607,3.2676,3.2672,3.2672,3.2672,3.2672,3.2672,3.2672,3.2672,3.2672,3.2672,3.2672,3.2672,3.2157,3.1943,3.1904,3.1422,3.1245,3.1292,3.1287,3.1314,0.0,0.0,0.0,0.0,0.0,2.9243,2.884,2.8871,2.8883,2.8895,2.8895,2.8906,2.8917,2.8917,2.894,2.8931,2.8931,2.8961,2.8991,2.8993,2.9003,2.8984,2.8994,2.8994,2.8985,2.8985,2.9004,2.9187,2.969,2.9843,0.0,2.9119,2.9059,2.927,2.981,2.9501,2.9375,2.9881,2.9563,2.9157,2.8778,2.8743,2.8408,2.755,2.7192,0.0,0.0,0.0,2.5691,2.5697,2.5698,0.0,0.0,0.0,2.5879,2.623,0.0,0.0,0.0,2.6406,2.623,0.0,0.0,0.0,0.0,0.0,0.0,0.0,0.0,0.0,0.0,0.0,0.0,0.0,0.0,0.0,0.0,2.8156,2.9057,2.9848,2.9306,2.8857,2.8855,3.0226,3.1167,3.1255,3.197,3.2477,3.2642,3.2794,3.2894,3.2989,0.0,0.0,0.0,0.0,3.3086,3.3086,3.3086,3.3086,3.3086,3.3086,3.3086,3.3086,3.299,3.2952,3.2933,3.2851,3.2812,3.2812,3.2812,3.2826,3.2672,3.1168,3.0593,3.0606,3.0605,3.0597,3.0617,3.0679,0.0,0.0,3.0687,3.0728,3.0769,3.0769,3.0769,3.0769,3.0769,3.0711,3.0664,3.0644,3.0567,3.0509,3.0509,3.0509,3.0519,3.052,3.0559,3.0607,3.0607,3.0737,3.0828,3.0773,3.0679,3.0621,3.068,3.0707,3.0703,3.0717,3.0753,3.0502,2.9732,0.0,0.0,2.8508,2.7744,2.724,2.7153,2.6333,2.5795,2.5703,2.5781,2.5859,2.5859,2.5937,2.6367,2.7148,2.7148,2.7539,2.8281,2.7519,2.7148,0.0,0.0,0.0,0.0,0.0,0.0,0.0,0.0,0.0,0.0,0.0,0.0,0.0,0.0,0.0,2.832,2.9619,3.0675,3.0823,3.1295,3.1634,3.1636,3.1919,3.2162,3.2212,3.2381,3.2813,3.3582,3.3688,3.406,3.476,3.4806,3.4817,3.4817,3.4817,3.4817,3.4817,3.4817,3.4817,3.4817,0.0,0.0,3.4798,3.4127,3.3839,3.3815,3.316,3.2878,3.2878,3.294,3.2952,3.2914,3.2545,3.2422,3.2471,3.2482,3.2482,3.2482,3.2494,3.2494,3.2505,3.2505,3.2505,3.2524,3.2524,3.2524,0.0,3.2524,3.2042,3.1551,3.1553,3.1032,3.051,3.0579,3.0588,3.0588,3.0588,3.0588,3.0595,3.0613,3.1191,3.1681,3.1708,3.1156,3.0683,3.0704,3.0698,3.0716,3.0764,3.0784,3.0739,3.0576,3.0551,3.0225,2.9422,2.9196,2.8791,2.809,2.7223,2.6425,2.5723,2.6387,2.6758,2.6758,2.7441,2.7871,2.8047,2.8047,2.8144,2.8301,2.8125,2.8047,0.0,0.0,0.0,0.0,0.0,0.0,0.0,0.0,0.0,0.0,0.0,2.8266,0.0,0.0,3.0078,3.0528,3.1305,3.1988,3.2384,3.2836,3.2933,3.2463,3.2804,3.3105,3.3137,3.3551,3.4023,3.456,3.4661,3.4898,3.5335,3.5383,3.5393,3.5402,3.5402,3.5416,3.5449,3.5449,3.5449,3.5449,3.5449,3.5416,3.5383,3.4979,3.4807,3.4779,3.4378,3.4212,3.4218,3.4268,3.4299,3.4299,3.4268,3.3747,3.3006,3.2995,3.2995,3.3006,3.2995,3.3018,3.3062,3.3062,3.3072,3.3103,3.3103,3.3103,3.3093,3.3102,3.2812,3.2502,3.2503,3.2174,3.1865,3.1893,3.1902,3.1902,3.1902,3.1928,3.1934,3.1906,3.2276,3.2616,3.2636,3.2292,3.2,3.2057,3.2018,3.2035,3.2084,3.1718,3.1453,3.1445,3.1084,3.0699,3.0286,2.9843,2.9226,2.8355,2.7887,2.7459,2.7012,2.7422,2.7656,2.7656,2.8083,2.8513,2.8945,2.8945,2.9179,2.9604,2.9604,2.9372,0.0,0.0,0.0,0.0,0.0,0.0,0.0,0.0,2.8681,2.9311,2.9444,2.9896,3.1295,3.1542,3.1784,3.2502,3.2765,3.3108,3.3737,3.3965,3.3798,3.3044,3.3614,3.4049,3.4063,3.4706,3.5234,3.5522,3.5599,3.572,3.5888,3.5968,3.6009,3.6016,3.5997,3.6029,3.6093,3.6093,3.6093,3.6074,3.5888,3.5798,3.5746,3.5592,3.5509,3.5501,3.5515,3.5541,3.554,3.5604,3.5616,3.5628,3.5612,3.4762,3.3523,3.3527,3.3527,3.3531,3.3516,3.3561,3.3606,3.3606,3.3645,3.3701,3.3701,3.3701,3.3692,3.3693,3.3577,3.3461,3.3461,3.3325,3.3199,3.3197,3.3206,3.3195,3.3214,3.3266,3.3289,3.3235,3.3401,3.3568,3.3562,3.3704,3.3716,3.3434,3.3345,3.3331,3.3392,3.2783,3.2299,3.2121,3.1521,3.1075,3.0919,3.0259,2.9486,2.8613,2.8549,2.8486,2.8319,2.8457,2.8554,2.8554,2.8722,2.9152,2.9843,2.9843,3.0212,3.0901,3.0899,3.0518,2.6269,2.6829,2.7646,2.8451,2.9231,2.9992,0.0,0.0,3.2048,3.2162,3.2162,3.2219,3.2428,3.2461,3.2492,3.2588,3.3306,3.3872,3.3976,3.4595,3.5037,3.4993,3.4971,3.4994,3.5024,3.5122,3.5553,3.6389,3.6511,3.6897,3.7679,3.7764,3.781,3.781,3.781,3.781,3.781,3.7822,3.7822,3.781,3.6972,3.6593,3.6633,3.5862,3.5502,3.5502,3.5565,3.562,3.5673,3.5693,3.5695,3.5697,3.5697,3.5572,3.5398,3.5405,3.5403,3.5403,3.5403,3.5405,3.5417,3.5417,3.5418,3.5418,3.5418,3.5418,3.5418,3.5418,3.4914,3.4351,3.4351,3.3788,3.3203,3.3211,3.3208,3.3223,3.3283,3.329,3.3297,3.3284,3.3918,3.4475,3.4535,3.5134,3.5109,3.3609,3.3384,3.339,3.3411,3.3317,3.296,3.218,3.2018,3.168,3.0958,3.0817,3.0371,2.9512,2.9445,2.9103,2.8323,2.9036,2.945,2.945,3.021,3.0657,3.0745,3.0756,3.0797,3.0892,3.0903,3.0847,2.7661,2.8154,2.874,3.0079,3.0691,3.1169,3.1991,3.245,3.2718,3.2718,3.2718,3.2871,3.3387,3.3478,3.3632,0.0,3.4523,3.4802,3.4798,3.51,3.5326,3.534,3.5772,3.6032,3.6032,3.6051,3.6443,3.7353,3.7478,3.7674,3.8047,3.808,3.8112,3.8157,3.8157,3.8157,3.8163,3.817,3.817,3.8163,3.7758,3.7591,3.7591,3.7244,3.6781,3.6279,3.5836,3.5657,3.5646,3.5678,3.5698,3.5747,3.6251,3.6484,3.6444,3.5892,3.5697,3.5688,3.5697,3.5728,3.5756,3.5756,3.5782,3.5815,3.5815,3.5815,3.5807,3.5771,3.5519,3.5266,3.5247,3.4983,3.4727,3.4749,3.4763,3.4776,3.4808,3.4801,3.4812,3.4803,3.5139,3.5417,3.5446,3.5734,3.5729,3.5017,3.492,3.4901,3.4903,3.4468,3.3632,3.2241,3.2106,3.1774,3.0973,3.0894,3.0735,3.0383,3.0362,3.0183,2.9823,3.0162,3.0359,3.0359,3.071,3.0903,3.0899,3.0903,3.0905,3.0905,3.1389,3.1604,2.8982,2.9525,3.0017,3.1283,3.1955,3.2453,3.3029,3.3336,3.3489,3.3522,3.3522,3.3714,3.4342,3.4457,3.4683,3.5264,3.5407,3.5455,3.5455,3.5443,3.5432,3.5445,3.6215,3.6818,3.7021,3.7051,3.743,3.8309,3.8433,3.8575,3.8833,3.8852,3.8884,3.8916,3.8929,3.8922,3.8926,3.8926,3.8926,3.8918,3.8675,3.8554,3.8554,3.831,3.7858,3.7243,3.6667,3.6406,3.6376,3.6416,3.6435,3.6511,3.715,3.7428,3.7405,3.6723,3.6463,3.6445,3.6435,3.6483,3.6476,3.6242,3.6195,3.621,3.5976,3.5898,3.5892,3.584,3.5833,3.5833,3.584,3.584,3.5846,3.5891,3.5917,3.5922,3.5938,3.5929,3.5934,3.5923,3.5966,3.6001,3.5997,3.6001,3.6001,3.5992,3.6005,3.5991,3.5992,3.523,3.4215,3.2947,3.2382,3.1855,3.1289,3.1032,3.0905,3.0899,3.0907,3.0907,3.0899,3.088,3.088,3.088,3.088,3.0997,3.1231,3.1231,3.1348,3.1602,3.2187,3.2461,3.0037,3.0868,3.1533,3.159,3.2804,3.4031,3.405,3.4664,3.5239,3.5302,3.5321,3.5316,3.5372,3.5399,3.5464,3.5483,3.5547,3.5591,3.5591,3.5534,3.5526,3.5601,3.6354,3.7228,0.0,3.8041,3.8339,3.9295,3.9353,3.976,4.0674,4.0713,4.0713,4.0713,4.0718,4.0723,4.0723,4.0723,4.0715,4.071,3.9859,3.946,3.9437,3.8593,3.8218,3.8249,3.8229,3.8267,3.8313,3.8313,3.8319,3.8311,3.835,3.8397,3.8447,3.8422,3.8364,3.8313,3.8313,3.8319,3.8174,3.7338,3.7112,3.6999,3.6162,3.5908,3.5908,3.5908,3.5908,3.5908,3.5908,3.5899,3.5904,3.5894,3.5943,3.5992,3.6001,3.6005,3.599,3.6007,3.5997,3.6005,3.6005,3.6001,3.5991,3.5991,3.6001,3.6005,3.5995,3.5247,3.4676,3.4629,3.3105,3.2089,3.2067,3.1347,3.0897,3.0899,3.0899,3.0899,3.0899,3.0841,3.0801,3.0801,3.0801,3.1211,3.2051,3.2051,3.25,3.3319,3.3358,3.3358,3.0989,3.1431,3.193,3.3058,3.3743,3.4314,3.4891,3.5284,3.5509,3.5522,3.5522,3.5534,3.5534,3.5546,3.5558,3.5562,3.5623,3.5665,3.5665,3.5648,3.5669,3.5708,3.6978,0.0,0.0,0.0,0.0,4.0266,4.0324,4.0471,4.0773,4.0792,4.0792,4.0792,4.0804,4.0815,4.0876,4.0876,4.0867,4.0859,4.0577,4.0431,4.0403,3.9568,3.9207,3.9202,3.8665,3.8454,3.8475,3.8475,3.8462,3.8526,3.9091,3.9349,3.9429,4.0014,4.0212,4.0039,3.8877,3.8468,3.841,3.8117,3.8043,3.8005,3.7713,3.7635,3.7635,3.7635,3.7635,3.7635,3.7635,3.723,3.684,3.6835,3.6399,3.6004,3.5999,3.6005,3.5991,3.5993,3.5992,3.6186,3.6753,3.6384,3.5995,3.5996,3.5993,3.5991,3.5996,3.5741,3.5331,3.4766,3.4176,3.3591,3.3004,3.2187,3.1699,3.1697,3.12,3.0899,3.0899,3.1387,3.166,3.166,3.2226,3.2675,3.2968,3.2968,3.3105,3.3417,3.3983,3.4256,3.1468,3.191,3.2449,3.3846,3.443,3.4821,3.5412,3.5572,3.5596,3.5608,3.562,3.5631,3.5646,3.5657,3.5667,3.5669,3.5708,3.5747,3.5747,3.5747,3.5754,3.5782,3.7322,3.8369,0.0,0.0,0.0,4.08,4.0839,4.0839,4.0839,4.0839,4.0839,4.0839,4.0849,4.0859,4.0898,4.0917,4.0935,4.0941,4.0941,4.0941,4.0921,4.0412,4.0167,4.0162,3.965,3.9435,3.9433,3.9433,3.9433,3.9477,4.0053,4.0266,4.032,4.0886,4.1104,4.0948,3.9828,3.9438,3.9388,3.9072,3.897,3.8908,3.8615,3.8537,3.8537,3.8531,3.8534,3.8537,3.8537,3.8146,3.7756,3.7756,3.7331,3.6928,3.6933,3.6933,3.6929,3.6926,3.6907,3.7083,3.7652,3.7299,3.6827,3.6509,3.6454,3.6343,3.6034,3.5994,3.5798,3.5229,3.4888,3.4461,3.3906,3.3066,3.2557,3.2558,3.2088,3.1788,3.1784,3.2292,3.2563,3.2558,3.3105,3.3554,3.3866,3.3866,3.4022,3.4334,3.4901,3.5154,3.1506,3.2314,3.3115,3.4038,3.4899,3.5528,3.5591,3.5608,3.5612,3.5607,3.5658,3.5698,0.0,0.0,3.5803,3.5803,3.581,3.5799,3.5799,3.5815,3.5811,0.0,0.0,0.0,0.0,0.0,0.0,4.0926,0.0,4.0907,4.0917,4.0917,4.0917,4.0917,4.0904,4.0913,4.0913,4.0972,4.102,4.1013,4.1013,4.1013,4.1013,4.1013,4.1033,4.1091,4.1091,4.1089,4.1096,4.11,4.11,4.11,4.1104,4.1099,4.1108,4.1108,4.1093,4.1094,4.1108,4.1108,4.0954,4.0131,3.9861,3.9726,3.8964,3.873,3.873,3.873,3.873,3.873,3.873,3.869,3.8651,3.8651,3.8632,3.8592,3.8586,3.8595,3.86,3.8595,3.8575,3.8565,3.8587,3.8631,3.8361,3.7488,3.7312,3.6976,3.6105,3.6001,3.6007,3.5997,3.5263,3.4761,3.4775,3.3966,3.3469,3.3474,3.3417,3.3398,3.3395,3.3435,3.347,3.3478,3.3515,3.3944,3.4766,3.4766,3.5193,3.5991,3.5991,3.5991,3.2199,3.2781,3.3333,3.479,3.5367,3.5589,3.5604,3.5646,3.5678,3.5747,3.5757,3.5775,0.0,0.0,0.0,3.5877,3.5872,0.0,3.5866,3.5859,0.0,3.5864,0.0,3.8497,3.8488,4.0048,0.0,0.0,4.0991,4.0968,4.0964,4.0964,4.0972,4.0967,4.0967,4.1,4.1052,4.1064,4.107,4.1075,4.1061,4.1061,4.1067,4.1072,4.1072,4.1106,4.1091,4.1097,4.1099,4.1107,4.111,4.111,4.1091,4.1094,4.1092,4.1107,4.1103,4.1099,4.1108,4.1101,4.1054,4.0834,4.0771,4.0726,4.0519,4.0453,4.0453,4.0457,4.0457,4.0453,4.0453,3.9973,3.9492,3.9492,3.9,3.8532,3.8522,3.8525,3.8526,3.854,3.9051,3.9268,3.8623,3.9063,3.9204,3.8332,3.7639,3.6928,3.6114,3.5997,3.599,3.6009,3.5791,3.5662,3.5676,3.4861,3.4376,3.4378,3.3763,3.3395,3.3397,3.4023,3.4375,3.4374,3.5014,3.5441,3.5675,3.5675,3.5788,3.5991,3.5991,3.5991,3.248,3.2967,3.3415,3.5116,3.557,3.5615,3.5637,3.5708,3.565,3.5308,3.5255,3.5162,3.4775,3.4731,0.0,0.0,0.0,0.0,3.5894,3.5938,3.5943,0.0,3.7479,0.0,3.8541,4.009,4.109,0.0,4.1075,4.1046,4.1039,4.1039,4.1039,4.1045,4.105,4.1056,4.1106,4.1091,4.1105,4.1101,4.1094,4.1097,4.1104,4.1108,4.1091,4.1094,0.0,4.1107,4.1094,4.1091,4.1107,4.1101,4.1101,4.1094,4.1097,4.1105,4.1076,4.1067,4.1064,4.1067,4.1058,4.1094,4.1085,4.1057,4.1064,4.1058,4.105,4.1025,4.1,4.1013,4.1052,4.0669,4.0285,4.0312,3.9935,3.9558,3.9558,3.959,3.9595,3.9595,4.0,4.0175,3.9688,3.9994,4.0026,3.915,3.828,3.7423,3.659,3.6177,3.5968,3.5963,3.5968,3.5958,3.597,3.5532,3.5266,3.5269,3.4808,3.4539,3.4539,3.5013,3.5271,3.5273,3.5742,3.5996,3.5995,3.5996,3.5993,3.6009,3.6003,3.6001,3.2382,3.2837,3.3226,3.4855,3.5267,3.5289,3.535,3.5406,3.5236,3.4486,3.4393,3.4211,3.3451,3.3356,3.3624,3.4326,0.0,3.4952,3.5713,3.5923,3.6001,3.6009,3.7441,3.8479,3.8592,4.0015,4.098,4.1097,4.1101,4.1105,4.1096,4.1106,4.1111,4.11,4.1105,4.1105,4.1105,4.1109,4.1108,4.1108,4.1103,4.1105,4.109,4.109,4.1093,4.1093,4.1093,4.1091,4.1103,4.1108,4.1109,4.1106,4.1091,4.1095,4.1091,4.1085,4.1059,4.0999,4.0991,4.0991,4.0999,4.1064,4.1039,4.0993,4.0988,4.0976,4.0953,4.0914,4.0898,4.0902,4.0971,4.0932,4.0902,4.0964,4.0929,4.0874,4.0874,4.0932,4.0971,4.098,4.0976,4.0964,4.0968,4.098,4.0727,3.996,3.9108,3.8233,3.7374,3.6463,3.5897,3.5905,3.5908,3.5899,3.5908,3.5958,3.6001,3.5988,3.6007,3.601,3.5991,3.5991,3.6003,3.5996,3.5993,3.6005,3.5991,3.5992,3.5996,3.5996,3.5994,3.5993,3.1653,3.1976,3.2259,3.3285,3.3528,3.3548,3.3611,3.3635,0.0,0.0,3.3515,3.3492,3.3395,3.3399,3.3453,3.3589,3.4222,3.4753,3.4909,3.5549,3.5996,0.0,3.6893,3.7811,3.8534,3.9452,0.0,0.0,0.0,4.1107,4.1096,4.1091,4.1097,4.1091,4.1108,4.1105,4.1105,4.1094,4.1101,4.1094,4.111,4.1107,4.1091,4.1092,4.1108,4.1097,4.1103,0.0,4.1105,4.11,4.1103,4.1097,4.1095,4.107,4.1026,4.102,4.1013,4.0979,4.0858,4.0869,4.0927,4.0991,4.0972,4.0921,4.0913,4.0887,4.084,4.0897,4.0849,4.0829,4.0907,4.0869,4.0819,4.0819,4.0818,4.0796,4.0754,4.0784,4.0846,4.0917,4.0878,4.0829,4.082,4.0829,4.0789,4.0621,3.9906,3.9083,3.82,3.6759,3.5833,3.5885,3.5892,3.5898,3.5911,3.5919,3.5914,3.5919,3.5966,3.5994,3.6001,3.6007,3.5994,3.5999,3.6007,3.6005,3.5991,3.5996,3.6009,3.5996,3.5996,3.5995,3.1514,3.1786,3.2019,3.2929,3.316,3.3156,3.3188,0.0,0.0,0.0,3.2684,3.2541,3.2127,3.2072,0.0,3.2651,3.3456,3.4181,3.4636,3.5441,3.5993,3.5996,3.6773,3.7643,0.0,3.934,4.0157,4.1033,0.0,4.1101,4.1107,4.1105,4.1092,4.1107,4.111,4.1092,4.1094,4.1093,4.1094,4.1107,4.1099,4.1094,4.1108,4.1108,4.1097,4.1096,4.11,0.0,4.1039,4.1046,4.1025,4.0991,4.0999,4.0984,4.0932,4.0915,4.0869,4.084,4.0765,4.0706,4.0694,4.0715,4.0768,4.0809,4.0807,4.0765,4.075,4.0738,4.0732,4.0707,4.0687,4.0681,4.0642,4.0636,4.0642,4.0635,4.0596,4.0629,4.0655,4.0725,4.0757,4.0757,4.075,4.0706,4.0713,4.0752,3.9992,3.9141,3.8288,3.7102,3.6203,3.5881,3.5857,3.5845,3.5859,3.5872,3.5894,3.5899,3.5929,3.5962,3.5994,3.5997,3.6001,3.6004,3.5994,3.5994,3.6004,3.601,3.5999,3.6009,3.5994,3.5992,3.1352,3.1545,3.1729,3.2471,3.2648,3.2667,3.2674,3.2739,0.0,3.1938,3.1824,3.1624,3.095,3.0858,3.1118,0.0,3.2557,3.3437,3.4297,3.5174,3.5799,0.0,3.6599,0.0,3.8224,3.9039,0.0,0.0,0.0,0.0,4.1103,4.1105,4.1099,4.1101,4.1104,4.1091,4.1101,4.1103,4.1097,4.1097,4.1104,4.1097,4.1111,4.1086,4.1075,4.1091,4.1085,0.0,0.0,4.0984,4.0932,4.0869,4.0869,4.0859,4.0834,4.0773,4.0706,4.0655,4.0607,4.0549,4.0446,4.0415,4.0506,4.0629,4.064,4.0646,4.0631,4.0554,4.0558,4.0539,4.0466,4.0469,4.0469,4.045,4.0454,4.0441,4.045,4.045,4.0466,4.053,4.0579,4.0612,4.0626,4.0579,4.0579,4.0631,4.001,3.9278,3.846,3.7598,3.6798,3.6105,3.5879,3.5779,3.5788,3.5845,3.5872,3.5885,3.5883,3.5919,3.5948,3.5977,3.5981,3.599,3.5974,3.5994,3.5994,3.6004,3.6007,3.6007,3.6001,3.6005,3.0699,3.0754,3.0816,3.0916,3.0925,3.0956,3.1003,0.0,3.102,3.0938,3.0924,3.0914,3.0891,3.0905,3.0925,3.0996,0.0,3.2528,3.3393,3.4276,3.5116,3.5903,0.0,0.0,3.724,3.8112,0.0,0.0,0.0,0.0,4.11,4.109,4.1105,4.1106,4.1105,4.1094,4.1094,4.1105,4.1111,4.1097,4.1103,4.1109,4.1095,4.1045,4.1013,4.1013,4.1013,0.0,0.0,4.0908,4.0837,4.0718,4.0718,4.0681,4.0615,4.0554,4.0506,4.0496,4.0392,4.0339,4.03,4.0195,4.0267,4.0438,4.0422,4.0425,4.0411,4.0353,4.037,4.0406,4.0334,4.037,4.0389,4.0341,4.027,4.0252,4.0306,4.0306,4.0323,4.0317,4.0339,4.036,4.043,4.0411,4.043,4.0413,4.0419,4.01,3.9283,3.8477,3.7681,3.6884,3.6153,3.5708,3.5718,3.5782,3.5818,3.5821,3.5877,3.5892,3.5814,3.5878,3.5919,3.5909,3.5914,3.5938,3.6005,3.6005,3.599,3.5997,3.5997,3.5994,3.0525,3.0676,3.071,3.0749,3.0753,3.0769,3.0789,0.0,3.0801,3.0807,3.0833,3.0862,3.0897,3.0898,3.0897,0.0,0.0,0.0,3.328,3.4147,3.5014,3.5845,3.5948,0.0,0.0,0.0,0.0,0.0,0.0,0.0,4.0984,4.1013,4.1031,4.1045,4.1031,4.1037,4.1037,4.1045,4.1033,4.1039,4.1045,4.1045,4.1052,4.0972,4.0949,4.0935,4.084,0.0,0.0,4.0681,4.0615,4.0511,4.0511,4.0481,4.0419,4.0389,4.0319,4.0267,4.0215,4.0099,4.0001,3.9979,3.9939,3.9962,4.0158,4.0251,4.0271,4.0196,4.0177,4.0139,4.0021,4.0041,4.01,4.0119,4.0138,4.0138,4.0118,4.0118,4.0099,4.006,4.0099,4.0138,4.0158,4.0177,4.0215,4.0215,4.0234,3.9965,3.9159,3.8807,3.8335,3.7526,3.6361,3.5648,3.5639,3.5659,3.5689,3.5737,3.5765,3.5771,3.5749,3.5791,3.5852,3.584,3.584,3.5858,3.5883,3.5919,3.5948,3.5948,3.6475,3.6723,3.0114,3.0348,3.0419,3.0725,3.0804,3.0802,0.0,0.0,3.0833,3.0833,3.0862,3.0894,3.0898,3.0909,3.0882,0.0,0.0,3.2101,3.3239,3.3918,3.469,0.0,0.0,3.6119,0.0,0.0,0.0,0.0,0.0,0.0,4.0868,4.0896,4.0937,4.0979,4.0967,4.0967,4.0979,4.0945,4.0949,4.0941,4.0935,4.0926,4.0917,4.0849,4.0839,4.0826,4.0699,0.0,0.0,4.0481,4.0403,4.0341,4.0323,4.0269,4.0194,4.0139,4.006,3.9981,3.9935,3.9826,3.9693,3.9735,3.9623,3.9575,3.9791,3.9939,4.0,3.9935,3.987,3.9848,3.9762,3.9781,3.9785,3.987,3.9892,3.9911,3.987,3.9848,3.9848,3.9823,3.9848,3.9892,3.9914,3.9954,3.9996,4.0057,4.0057,3.9868,3.9357,3.909,3.8726,3.8219,3.6993,3.6254,3.6291,3.6323,3.6323,3.6385,3.6392,3.6405,3.6415,3.6474,3.6521,3.6521,3.6518,3.6542,3.653,3.6586,3.6619,3.6619,3.7242,3.7663,2.9283,2.9513,2.9727,3.0585,3.081,3.0791,0.0,0.0,3.0899,3.0899,3.0894,3.0898,3.0903,3.0899,3.0877,3.081,0.0,0.0,3.3161,3.3341,3.3949,0.0,0.0,3.5803,0.0,0.0,0.0,0.0,0.0,0.0,4.08,4.0738,4.0754,4.0907,4.0896,4.0896,4.0907,4.084,4.0789,4.0787,4.0792,4.0769,4.0694,4.0694,4.0707,4.0694,0.0,0.0,0.0,4.037,4.0269,4.0196,4.0137,4.0057,3.9975,3.9785,3.9717,3.9693,3.9532,3.9483,3.9477,3.935,3.935,3.9376,3.9324,3.9452,3.9599,3.9526,3.9526,3.9551,3.967,3.958,3.9526,3.9575,3.9551,3.9526,3.9526,3.9526,3.9508,3.9575,3.9599,3.9665,3.9781,3.9739,3.9762,3.9975,3.9935,3.9956,4.0157,3.9395,3.8861,3.8955,3.8209,3.7761,3.7959,3.7973,3.7973,3.7973,3.8034,3.8087,3.808,3.8148,3.8175,3.8175,3.8246,3.8267,3.8278,3.8267,3.8276,3.8276,3.8276,3.8753,2.8364,2.8602,2.8688,2.9012,2.9533,2.9991,2.9974,0.0,3.0897,3.0897,3.0898,3.0894,3.0836,3.0833,3.083,3.0804,3.0794,0.0,0.0,0.0,0.0,3.5636,3.5773,0.0,0.0,0.0,0.0,0.0,0.0,0.0,4.066,4.0564,4.0574,4.0757,4.0711,4.0667,4.0636,4.0623,4.059,4.0596,4.0588,4.0574,4.0568,4.0515,4.0434,0.0,0.0,0.0,0.0,4.006,3.9958,3.9848,3.9781,3.9689,3.9575,3.9526,3.9427,3.935,3.9298,3.9219,3.9156,3.9156,3.9129,3.9045,3.9017,3.9192,3.9376,3.9245,3.9219,3.9245,3.9272,3.9324,3.9376,3.9401,3.9401,3.9401,3.9298,3.9298,3.9272,3.9245,3.9317,3.9324,3.9376,3.9452,3.9526,3.9575,3.9647,3.9735,3.9781,3.9558,3.9432,3.9453,3.9311,3.8823,3.7879,3.7885,3.792,3.7868,3.7943,3.7969,3.7954,3.8031,3.8059,3.8059,3.808,3.8125,3.8163,3.816,3.8485,3.911,3.911,3.9594,0.0,2.7741,2.7846,2.8203,2.8703,0.0,0.0,3.0018,3.0508,3.0838,3.0871,3.0845,3.081,3.0804,3.0798,3.0806,3.1042,0.0,0.0,0.0,0.0,3.5563,0.0,0.0,0.0,0.0,0.0,0.0,0.0,0.0,4.0527,4.0394,4.0375,4.0508,4.053,4.0492,4.0466,4.0469,4.0454,4.0386,4.0353,4.0356,4.0356,4.0286,4.0233,0.0,0.0,0.0,0.0,3.9758,3.9647,3.9575,3.9477,3.9401,3.9317,3.9237,3.9183,3.9064,3.8683,3.8516,3.8422,3.8071,3.8095,3.8254,3.8212,3.8586,3.9008,3.8942,3.896,3.8915,3.8646,3.8832,3.9036,3.872,3.8887,3.9101,3.8998,3.897,3.8989,3.8989,3.9017,3.9073,3.9129,3.9183,3.9264,3.935,3.9401,3.9477,3.9575,3.9599,3.9599,3.9647,3.9739,3.9413,3.8496,3.8613,3.8706,3.8632,3.8722,3.8774,3.8774,3.8824,3.884,3.8873,3.8869,3.8896,3.8975,3.9017,3.9341,3.987,3.987,4.0159,0.0,2.6916,2.71,2.7914,2.8166,2.8415,0.0,2.9512,0.0,3.0648,3.0794,3.0807,3.0804,3.0794,3.0793,3.0799,3.1473,0.0,0.0,3.3943,0.0,0.0,0.0,0.0,0.0,0.0,0.0,0.0,0.0,0.0,4.0379,4.0234,4.0176,4.0157,4.0288,4.0336,4.0353,4.0358,4.0288,4.0177,4.0101,4.008,4.0057,3.9996,3.9996,0.0,0.0,0.0,0.0,3.9502,3.9376,3.935,3.9181,3.9127,3.9129,3.8876,3.8818,3.8736,3.7794,3.747,3.7316,3.6391,3.6547,3.708,3.6993,3.7731,3.8566,3.8511,3.8628,3.8589,3.7866,3.8188,3.8497,3.7669,3.8015,3.8475,3.842,3.842,3.845,3.8578,3.8608,3.8667,3.8775,3.8792,3.8868,3.9051,3.9107,3.9178,3.9357,3.9339,3.9333,3.9476,3.9513,3.9575,3.9551,3.9889,4.0057,3.9996,4.0098,4.0176,4.0196,4.0196,4.0215,4.027,4.0289,4.0323,4.0389,4.0508,4.0558,4.0489,4.0489,4.0457,2.5959,0.0,2.6046,2.6251,2.681,2.7363,0.0,0.0,2.9667,2.9854,0.0,3.0798,3.0798,3.0808,3.0774,3.0736,3.143,3.2276,3.3089,0.0,0.0,0.0,0.0,0.0,0.0,0.0,0.0,0.0,0.0,4.0078,4.0099,3.9914,3.9785,3.9758,3.9766,3.9854,4.0019,4.0019,3.9977,3.9895,3.9873,3.9829,3.9785,3.9717,3.9665,0.0,0.0,0.0,3.9324,3.9324,3.9219,3.9017,3.8322,3.8385,3.8718,3.7966,3.7625,3.7502,3.7288,3.6752,3.6175,3.5882,3.5824,3.5999,3.6548,3.7486,3.8319,3.7621,3.7972,3.8389,3.7534,3.7491,3.7436,3.651,3.6456,3.662,3.6559,3.659,3.662,3.665,3.6692,3.6732,3.6791,3.7371,3.7669,3.7165,3.7646,3.7868,3.737,3.7809,3.8199,3.8226,3.8864,3.9264,3.9129,3.9642,3.9911,3.9848,3.9933,3.9975,4.0038,4.0038,4.0078,4.0138,4.0196,4.0215,4.0252,4.0323,4.0392,4.0422,4.0408,4.0427,2.5702,2.5702,2.5703,2.5703,2.6055,2.6502,2.6917,0.0,0.0,0.0,0.0,0.0,0.0,0.0,0.0,0.0,3.1964,0.0,0.0,0.0,0.0,0.0,0.0,0.0,0.0,0.0,0.0,0.0,0.0,3.9848,3.9762,3.9647,3.9526,3.9477,3.9427,3.9502,3.9665,3.9712,3.9647,3.9526,3.9502,3.9452,3.9427,3.9324,3.9245,0.0,0.0,0.0,3.8913,3.8913,3.8826,3.8658,3.8108,3.8144,3.8446,3.789,3.7362,3.6888,3.6494,3.5544,3.4515,3.476,3.4802,3.4825,3.5169,3.6036,3.6898,3.6913,3.7283,3.7402,3.6191,3.6155,3.6195,3.5291,3.5413,3.5729,3.5684,3.5716,3.576,3.576,3.5872,3.5933,3.5945,3.6358,3.6614,3.6332,3.6654,3.6822,3.6582,3.7221,3.7691,3.7757,3.8201,3.8609,3.8931,3.8677,3.8809,3.9561,3.9735,3.9804,3.9848,3.9848,3.9889,3.9911,4.0015,4.0038,4.0019,4.0158,4.0215,4.0214,4.0271,4.0289,2.5698,2.5701,2.5701,2.5709,2.5693,2.589,2.6632,0.0,0.0,0.0,0.0,0.0,0.0,0.0,0.0,0.0,0.0,0.0,0.0,0.0,0.0,0.0,0.0,0.0,0.0,0.0,0.0,0.0,0.0,3.9575,3.9452,3.9376,3.9272,3.9219,3.9137,3.9137,3.9245,3.9357,3.9324,3.911,3.9101,3.9045,3.9017,3.8921,3.8892,3.8931,0.0,0.0,3.8541,3.8446,3.8328,3.8186,3.7972,3.7938,3.8041,3.7905,3.7352,3.6566,3.5675,3.4253,3.2944,3.356,3.3737,3.3701,3.3653,3.4199,3.503,3.5967,3.6339,3.6121,3.4598,3.4691,3.4947,3.4079,3.4449,3.5017,3.5017,3.5065,3.5112,3.5112,3.5213,3.5327,3.5372,3.548,3.5592,3.567,3.5732,3.5828,3.6021,3.6654,3.7121,3.7247,3.7386,3.7737,3.8409,3.7413,3.7392,3.885,3.9145,3.9322,3.9477,3.959,3.9665,3.9665,3.9781,3.9845,3.9781,3.9954,4.0036,3.9996,4.0098,4.0118,2.5698,2.5701,2.5701,2.5696,2.5696,2.5737,2.5879,0.0,0.0,0.0,0.0,0.0,0.0,0.0,0.0,0.0,0.0,0.0,0.0,0.0,0.0,0.0,0.0,0.0,0.0,0.0,0.0,0.0,0.0,3.9245,3.9183,3.9045,3.8939,3.881,3.8725,3.8646,3.8554,3.8913,3.897,3.8759,3.8873,3.8844,3.8676,3.8646,3.8615,3.8572,0.0,3.8465,3.8354,3.8401,3.7936,3.7192,3.6976,3.6958,3.7006,3.6735,3.6488,3.6078,3.5082,3.3776,3.2698,3.3476,3.3264,3.2823,3.3371,3.3635,3.3794,3.3953,3.4641,3.5117,3.4141,3.3965,3.3825,3.3027,3.3022,3.3194,3.3194,3.3291,3.3369,3.3369,3.3432,3.3494,3.3507,3.4051,3.4299,3.3876,3.4268,3.451,3.4118,3.4663,3.5173,3.5243,3.5915,3.6373,3.6431,3.6546,3.6692,3.6851,3.7143,3.766,3.8402,3.9145,3.9526,3.9526,3.9599,3.9623,3.9623,3.9717,3.9807,3.9914,3.9933,4.0015,2.569,2.5707,2.5701,2.5694,2.5697,2.5701,2.5691,0.0,0.0,0.0,0.0,0.0,0.0,0.0,0.0,0.0,0.0,0.0,0.0,0.0,0.0,0.0,0.0,0.0,0.0,0.0,0.0,0.0,0.0,0.0,3.8737,3.8695,3.859,3.8401,3.835,3.8285,3.8138,3.8234,3.8346,3.8478,3.846,3.8382,3.8238,3.8135,3.8068,3.8018,0.0,3.7862,3.7775,3.7721,3.7435,3.7023,3.6841,3.6787,3.6772,3.6141,3.5588,3.5054,3.4551,3.3713,3.286,3.3099,3.3014,3.2877,3.3082,3.2908,3.2664,3.3082,3.3668,3.3988,3.3108,3.288,3.2792,3.2423,3.2473,3.2592,3.2641,3.2722,3.282,3.287,3.2934,3.2948,3.3042,3.3283,3.3409,3.3346,3.3471,3.3561,3.3488,3.4033,3.4491,3.4564,3.4951,3.5351,3.5792,3.5384,3.5512,3.648,3.7102,3.7634,3.8065,3.8483,3.892,3.9439,3.9015,3.9021,3.9489,3.9521,3.9599,3.9693,3.967,3.9735,2.5681,2.5675,2.5683,2.5671,0.0,2.5683,2.5671,0.0,0.0,0.0,0.0,0.0,0.0,0.0,0.0,0.0,0.0,0.0,0.0,0.0,0.0,0.0,0.0,0.0,0.0,0.0,0.0,0.0,0.0,0.0,3.8318,3.8267,3.8201,3.8,3.7931,3.788,3.7775,3.7631,3.7739,3.8088,3.8018,3.788,3.7757,3.7649,3.7559,3.7466,3.7356,3.7243,3.7164,3.7069,3.6907,3.671,3.6706,3.6678,3.6591,3.5873,3.5122,3.4424,3.4547,3.4029,3.327,3.3252,3.3119,3.2997,3.2827,3.2431,3.207,3.241,3.2841,3.301,3.2209,3.2001,3.2037,3.2037,3.2161,3.2301,3.2353,3.2404,3.2506,3.2641,3.2707,3.2773,3.287,3.2805,3.2838,3.317,3.3028,3.2979,3.3304,3.3656,3.392,3.4047,3.4078,3.4411,3.5137,3.4316,3.4375,3.5869,3.6747,3.7264,3.7352,3.753,3.8059,3.8968,3.8361,3.8391,3.9221,3.9237,3.9298,3.9383,3.9401,3.9452,2.5613,2.5609,2.56,2.5615,0.0,0.0,2.5615,2.6279,0.0,0.0,0.0,0.0,0.0,0.0,0.0,0.0,0.0,0.0,0.0,0.0,0.0,0.0,0.0,0.0,0.0,0.0,0.0,0.0,0.0,0.0,3.8052,3.7739,3.7632,3.7739,3.7413,3.7339,3.7431,3.7301,3.7301,3.7466,3.7577,3.754,3.7334,3.7334,3.7241,3.7147,3.6995,3.6917,3.6834,3.6834,3.63,3.5588,3.6132,3.6199,3.5977,3.6028,3.5505,3.4873,3.5608,3.4966,3.3968,3.4614,3.39,3.2694,3.2514,3.248,3.2388,3.1645,3.2008,3.2518,3.1806,3.1746,3.1837,3.1837,3.1893,3.1948,3.193,3.2055,3.2144,3.2214,3.2387,3.2523,3.2523,3.2541,3.259,3.2884,3.287,3.2902,3.3086,3.3046,3.3037,3.31,3.3163,3.3346,3.3712,3.3621,3.3603,3.3826,3.4687,3.5285,3.5483,3.615,3.6897,3.7727,3.7738,3.8032,3.8646,3.8785,3.8921,3.9045,3.9101,3.9192,2.5605,2.5595,2.5585,2.5543,0.0,0.0,0.0,0.0,0.0,0.0,0.0,0.0,0.0,0.0,0.0,0.0,0.0,0.0,0.0,0.0,0.0,0.0,0.0,0.0,0.0,0.0,0.0,0.0,0.0,0.0,3.7577,3.7374,3.7243,3.7129,3.6935,3.6816,3.6834,3.6696,3.6655,3.6696,3.7108,3.7147,3.6873,3.6873,3.6753,3.6574,3.6409,3.6326,3.6301,3.6114,3.5857,3.5531,3.5708,3.565,3.5515,3.5633,3.5131,3.4486,3.4844,3.4312,3.3414,3.3203,3.3093,3.2991,3.3032,3.3008,3.2957,3.2768,3.2587,3.2264,3.1577,3.1521,3.1614,3.1614,3.1671,3.1728,3.1819,3.1856,3.1929,3.1984,3.2091,3.2161,3.2284,3.2284,3.2353,3.2672,3.2657,3.269,3.293,3.2705,3.2606,3.2838,3.2787,3.2866,3.3268,3.3196,3.3226,3.3452,3.475,3.5579,3.5732,3.6394,3.7199,3.8083,3.7668,3.7796,3.8478,3.851,3.8634,3.8737,3.8766,3.8884,2.5568,2.557,2.5551,0.0,0.0,0.0,0.0,0.0,0.0,0.0,0.0,0.0,0.0,0.0,0.0,0.0,0.0,0.0,0.0,0.0,0.0,0.0,0.0,0.0,0.0,0.0,0.0,0.0,0.0,0.0,0.0,3.6952,3.6776,3.6673,3.6468,3.636,3.6318,3.6233,3.6131,3.6088,3.6492,3.6574,3.6426,3.6426,3.6301,3.6088,3.5844,3.5756,3.5773,3.5487,3.5396,3.5396,3.5333,3.5258,3.5198,3.5304,3.4806,3.4113,3.4231,3.3879,3.3316,3.27,3.27,3.2988,3.3117,3.2907,3.2689,3.2697,3.2469,3.2039,3.1343,3.1499,3.1769,3.1492,3.1671,3.1888,3.1685,3.1634,3.1671,3.1765,3.1802,3.1944,3.235,3.2385,3.2544,3.3108,3.3108,3.3178,3.3468,3.3212,3.3108,3.3419,3.3264,3.3209,3.3369,3.3305,3.3248,3.3262,3.4452,3.5268,3.5521,3.5937,3.6703,3.7853,3.7153,3.7249,3.8238,3.8238,3.8318,3.846,3.846,3.8554,2.5499,2.5498,2.5495,0.0,0.0,0.0,0.0,0.0,0.0,0.0,0.0,0.0,0.0,0.0,0.0,0.0,0.0,0.0,0.0,0.0,0.0,0.0,0.0,0.0,0.0,0.0,0.0,0.0,0.0,0.0,0.0,3.6409,3.6301,3.6301,3.5975,3.5861,3.5975,3.5861,3.5728,3.5577,3.5728,3.5861,3.5975,3.5975,3.5844,3.5577,3.5367,3.5291,3.5291,3.4994,3.4899,3.4899,3.5041,3.4994,3.4947,3.5198,3.4668,3.3835,3.3927,3.3881,3.3773,3.3617,3.3093,3.2484,3.25,3.2078,3.1497,3.0867,3.1324,3.1826,3.1113,3.1732,3.2344,3.1399,3.1907,3.2349,3.1504,3.1295,3.1351,3.1462,3.1559,3.1857,3.2727,3.2904,3.3239,3.4341,3.4391,3.4428,3.4761,3.4614,3.4576,3.4761,3.4672,3.4446,3.4031,3.4011,3.3672,3.2938,3.3399,3.3942,3.4455,3.4366,3.5091,3.6741,3.5984,3.6348,3.7881,3.7881,3.7967,3.8083,3.8101,3.8219,2.5434,2.5426,0.0,2.5432,0.0,0.0,0.0,0.0,0.0,0.0,0.0,0.0,0.0,0.0,0.0,0.0,0.0,0.0,0.0,0.0,0.0,0.0,0.0,0.0,0.0,0.0,0.0,0.0,0.0,0.0,0.0,3.6002,3.5783,3.5783,3.5594,3.5412,3.5367,3.5321,3.5228,3.5118,3.5165,3.5274,3.5503,3.5503,3.5367,3.5071,3.493,3.4835,3.4739,3.4546,3.4497,3.4497,3.4643,3.4643,3.4643,3.4707,3.4559,3.4182,3.3225,3.2833,3.2735,3.227,3.1957,3.2045,3.3295,3.3095,3.2359,3.2274,3.2007,3.1565,3.0792,3.139,3.2006,3.124,3.136,3.154,3.1263,3.1213,3.1252,3.1269,3.1329,3.1666,3.2552,3.2689,3.3046,3.4133,3.4254,3.4216,3.422,3.4314,3.4314,3.4258,3.4202,3.4289,3.4535,3.4429,3.4076,3.3439,3.4023,3.4323,3.4095,3.4529,3.5029,3.5527,3.5432,3.554,3.5865,3.6488,3.6827,3.6914,3.7679,3.8036,2.5359,2.535,0.0,2.537,2.5313,0.0,0.0,0.0,0.0,0.0,0.0,0.0,0.0,0.0,0.0,0.0,0.0,0.0,0.0,0.0,0.0,0.0,0.0,0.0,0.0,0.0,0.0,0.0,0.0,0.0,0.0,3.5622,3.5441,3.5258,3.5182,3.5041,3.4835,3.4851,3.4787,3.4643,3.4594,3.4594,3.4691,3.4899,3.4835,3.4643,3.4448,3.425,3.4,3.4,3.4,3.4,3.4151,3.4201,3.425,3.43,3.4121,3.3665,3.2574,3.2315,3.2476,3.1805,3.1892,3.2438,3.3479,3.3032,3.2227,3.2641,3.1907,3.1054,3.0948,3.1199,3.1407,3.1053,3.1308,3.1483,3.1139,3.1072,3.1072,3.1072,3.141,3.1992,3.2838,3.3213,3.3796,3.4858,3.5077,3.5054,3.4898,3.5019,3.5059,3.5002,3.4962,3.4961,3.5144,3.5014,3.4626,3.4003,3.4296,3.4386,3.4147,3.4306,3.4588,3.4907,3.4799,3.4941,3.5438,3.5953,3.6434,3.6772,3.7453,3.7739,2.5303,0.0,0.0,2.5282,2.5241,0.0,0.0,0.0,0.0,0.0,0.0,0.0,0.0,0.0,0.0,0.0,0.0,0.0,0.0,0.0,0.0,0.0,0.0,0.0,0.0,0.0,0.0,0.0,0.0,0.0,0.0,3.5304,3.5102,3.4691,3.4804,3.4691,3.4448,3.4448,3.4349,3.425,3.4101,3.3899,3.3642,3.4134,3.4284,3.4134,3.3882,3.3591,3.324,3.3398,3.345,3.3435,3.3591,3.3694,3.3797,3.3933,3.348,3.2721,3.2064,3.224,3.2658,3.1999,3.2448,3.3223,3.324,3.2292,3.1445,3.2258,3.1331,3.0396,3.1226,3.1065,3.0692,3.0831,3.1472,3.1873,3.1063,3.0912,3.0912,3.0912,3.1611,3.2507,3.3359,3.4083,3.4934,3.6096,3.635,3.6333,3.6208,3.6233,3.6301,3.6461,3.636,3.6125,3.5828,3.5662,3.5275,3.4623,3.4418,3.4345,3.4466,3.3825,3.3846,3.464,3.4093,3.4464,3.5807,3.5985,3.6427,3.7152,3.7281,3.7374,0.0,2.5222,0.0,0.0,0.0,0.0,0.0,0.0,0.0,0.0,0.0,0.0,0.0,0.0,0.0,0.0,0.0,0.0,0.0,0.0,0.0,0.0,0.0,0.0,0.0,0.0,0.0,0.0,0.0,0.0,3.5152,3.4835,3.4643,3.4546,3.4349,3.425,3.4201,3.4,3.3797,0.0,3.3555,3.3382,3.3156,3.3403,3.3335,3.3108,3.2964,3.2873,3.2911,3.2819,3.2873,3.2964,3.2964,3.3018,3.3071,3.3071,3.3029,3.2877,3.2183,3.2193,3.2426,3.1983,3.195,3.2239,3.3236,3.2262,3.104,3.2017,3.1124,2.9973,3.0369,3.0474,3.0501,3.0568,3.0907,3.1113,3.0945,3.0952,3.0975,3.0975,3.123,3.1704,3.261,3.3177,3.4083,3.5657,3.565,3.5604,3.5994,3.6062,3.6105,3.6251,3.6036,3.6054,3.6458,3.626,3.5873,3.5265,3.5174,3.4857,3.4211,3.3641,3.342,3.3541,3.3653,3.3687,3.3691,3.5139,3.5861,3.592,3.6749,3.7069,0.0,0.0,0.0,2.5106,0.0,0.0,0.0,0.0,0.0,0.0,0.0,0.0,0.0,0.0,0.0,0.0,0.0,0.0,0.0,0.0,0.0,0.0,0.0,0.0,0.0,0.0,0.0,0.0,0.0,3.3993,3.3826,3.3576,3.3274,3.3032,3.2983,3.2884,3.262,3.252,3.2419,3.2215,3.2024,3.171,3.1405,3.2361,3.2656,3.2398,3.2382,3.2327,3.2201,3.2327,3.2327,3.2256,3.2437,3.2492,3.2437,3.2492,3.2563,3.2524,3.1812,3.2076,3.2629,3.2053,3.2187,3.2657,3.2967,3.2207,3.1306,3.1866,3.0989,2.9995,3.0511,3.0494,3.0316,3.0359,3.0526,3.0733,3.0773,3.0814,3.0855,3.0935,3.1381,3.1873,3.2343,3.3022,3.3828,3.4627,3.4717,3.4857,3.5318,3.5377,3.5403,3.5514,3.5623,3.5685,3.5618,3.5946,3.5907,3.5296,3.54,3.5309,3.4856,3.4168,3.3722,3.355,3.3796,3.3932,3.3871,3.4921,3.5532,3.5773,3.64,3.6632,0.0,0.0,2.5044,0.0,0.0,0.0,0.0,0.0,0.0,0.0,0.0,0.0,0.0,0.0,0.0,0.0,0.0,0.0,0.0,0.0,0.0,0.0,0.0,0.0,0.0,0.0,0.0,0.0,0.0,3.2517,3.2259,3.2104,3.1821,3.1355,3.1485,3.1372,3.0977,3.1027,3.0911,3.0709,3.0418,3.0031,2.9555,3.1101,3.1673,3.1535,3.1632,3.1509,3.1315,3.1671,3.1747,3.1682,3.191,3.1925,3.1883,3.1981,3.2023,3.1987,3.1463,3.199,3.281,3.2039,3.2521,3.3244,3.266,3.2123,3.1758,3.1903,3.1029,3.0194,3.0868,3.0538,3.006,3.006,3.0314,3.0549,3.0643,3.0692,3.0733,3.0814,3.152,3.2097,3.2215,3.2883,3.3471,3.3498,3.3733,3.4037,3.455,3.4626,3.4703,3.4857,3.5277,3.529,3.4679,3.5427,3.5685,3.5187,3.5426,3.556,3.5526,3.4935,3.443,3.4082,3.4215,3.4455,3.4721,3.4985,3.5429,3.6076,3.6251,3.6362,0.0,0.0,0.0,0.0,0.0,0.0,0.0,0.0,0.0,0.0,0.0,0.0,0.0,0.0,0.0,0.0,0.0,0.0,0.0,0.0,0.0,0.0,0.0,0.0,0.0,0.0,0.0,0.0,3.2397,3.212,3.1742,3.1566,3.1388,3.1076,3.0861,3.076,3.0861,3.0485,3.0345,3.0293,2.9887,2.9564,2.9277,2.933,2.9404,2.9474,2.9529,2.9855,3.0431,3.0416,3.0758,3.1351,3.1249,3.1249,3.119,3.1249,3.1394,3.1595,3.1819,3.2074,3.225,3.1971,3.2204,3.2532,3.23,3.2017,3.1872,3.2344,3.1422,3.0368,3.0679,3.018,2.9605,2.9605,3.0161,3.0616,3.0448,3.0584,3.0692,3.0733,3.0979,3.1328,3.1775,3.1736,3.2004,3.3077,3.3012,3.3179,3.4216,3.4341,3.4594,3.5251,3.5253,3.5283,3.5572,3.5548,3.5464,3.5363,3.5402,3.5362,3.527,3.5397,3.5222,3.4788,3.4735,3.4619,3.4391,3.528,3.5887,3.6243,3.6384,3.6656,2.4764,0.0,0.0,0.0,0.0,0.0,0.0,0.0,0.0,0.0,0.0,0.0,0.0,0.0,0.0,0.0,0.0,0.0,0.0,0.0,0.0,0.0,0.0,0.0,0.0,0.0,0.0,0.0,3.0933,3.0661,3.0336,3.0101,2.9815,2.941,2.9292,2.9193,2.9027,2.8905,2.8752,2.8494,2.806,2.7793,2.7686,2.7414,2.7874,2.8779,2.8834,2.8995,2.913,2.9285,2.968,3.0265,3.0265,3.0426,3.0702,3.0762,3.0749,3.0715,3.1159,3.1384,3.146,3.1521,3.1875,3.2219,3.188,3.1888,3.1923,3.1302,3.0783,3.029,2.9846,2.9798,2.9924,2.9924,3.0637,3.1257,3.1135,3.1385,3.155,3.1349,3.1139,3.1036,3.1166,3.1257,3.1512,3.2143,3.2336,3.2714,3.3603,3.3802,3.3964,3.4296,3.4539,3.4535,3.4307,3.4726,3.4888,3.4609,3.4681,3.4706,3.4561,3.4706,3.461,3.4349,3.486,3.5048,3.4855,3.5457,3.5941,3.6371,3.6455,3.6373,0.0,0.0,0.0,0.0,0.0,0.0,0.0,0.0,0.0,0.0,0.0,0.0,0.0,0.0,0.0,0.0,0.0,0.0,0.0,0.0,0.0,0.0,0.0,0.0,0.0,0.0,0.0,0.0,2.9576,2.935,2.9075,2.8811,2.8463,2.8042,2.7959,2.7775,2.7524,2.7524,2.7372,2.7011,2.6616,2.6404,2.6351,2.6165,2.6676,2.774,2.7965,2.7995,2.7969,2.8181,2.8555,2.9014,2.9102,2.9446,2.9932,3.0013,2.9972,3.0003,3.0514,3.0702,3.0821,3.1273,3.1667,3.1931,3.1719,3.1818,3.1773,3.0754,3.0385,3.007,2.9265,2.9564,3.0068,3.0068,3.0909,3.1725,3.1742,3.201,3.2142,3.1869,3.1539,3.1199,3.1031,3.1332,3.1599,3.1682,3.2067,3.255,3.3188,3.3352,3.3512,3.3693,3.4007,3.399,3.3551,3.419,3.4412,3.4041,3.4137,3.4151,3.4,3.4,3.3899,3.3745,3.4561,3.4987,3.4996,3.5199,3.5575,3.6032,3.6104,3.5893,0.0,0.0,0.0,0.0,0.0,0.0,0.0,0.0,0.0,0.0,0.0,0.0,0.0,0.0,0.0,0.0,0.0,0.0,0.0,0.0,0.0,0.0,0.0,0.0,0.0,0.0,0.0,0.0,2.9013,2.8795,2.8444,2.8253,2.8042,2.784,2.7437,2.7233,2.7233,2.6893,2.6669,2.651,2.6404,2.619,2.5948,2.5893,2.584,2.5703,2.606,2.6605,2.7144,2.72,2.7456,2.7893,2.7893,2.8274,2.8739,2.8598,2.9056,2.9864,3.0206,3.0324,3.051,3.1392,3.1537,3.1437,3.213,3.1944,3.1473,3.1675,3.0725,2.963,2.9599,2.9531,2.9462,2.9462,3.0654,3.1829,3.1903,3.19,3.1931,3.1898,3.196,3.2006,3.188,3.2142,3.234,3.2285,3.2484,3.2809,3.316,3.321,3.3502,3.417,3.4084,3.4118,3.4592,3.4448,3.4333,3.4301,3.4168,3.4,3.3745,3.3694,3.3607,3.3361,3.3642,3.3915,3.4149,3.4165,3.4471,3.5078,3.5078,3.5219,0.0,0.0,0.0,0.0,0.0,0.0,0.0,0.0,0.0,0.0,0.0,0.0,0.0,0.0,0.0,0.0,0.0,0.0,0.0,0.0,0.0,0.0,0.0,0.0,0.0,0.0,0.0,0.0,0.0,2.851,2.8054,2.7925,2.7675,2.7181,2.7041,2.6817,2.6486,2.6204,2.6042,2.5988,2.5839,2.5688,2.5453,2.5453,2.5286,2.5075,2.5174,2.5591,2.6036,2.5728,2.6086,2.6754,2.6565,2.6982,2.7792,2.7614,2.7914,2.8426,2.8802,2.8997,2.9145,2.9901,3.03,3.0488,3.076,3.0883,3.0799,3.0264,2.975,2.9239,2.8725,2.8974,2.9539,3.0138,3.0807,3.1291,3.1322,3.1869,3.2401,3.2579,3.2413,3.2213,3.2041,3.2256,3.2403,3.2482,3.2707,3.2935,3.3093,3.3188,3.3371,3.3729,3.345,3.3641,3.4646,3.4366,3.4399,3.5043,3.4393,3.3994,3.3941,3.3887,3.374,3.3576,3.3794,3.401,3.4086,3.4192,3.4451,3.4928,3.4928,3.4778,2.3789,0.0,0.0,0.0,0.0,0.0,0.0,0.0,0.0,0.0,0.0,0.0,0.0,0.0,0.0,0.0,0.0,0.0,0.0,0.0,0.0,0.0,0.0,0.0,0.0,0.0,0.0,0.0,0.0,0.0,2.7079,2.6916,2.6621,2.6184,2.6199,2.6073,2.5784,2.5688,2.5633,2.5508,2.5425,2.5244,2.5118,2.4991,2.4821,2.4593,2.4492,2.4664,2.5075,2.4778,2.4949,2.5499,2.5428,2.5837,2.6516,2.6534,2.6817,2.7189,2.7529,2.7956,2.8423,2.9159,2.9809,3.0233,3.0117,3.013,3.0005,2.9107,2.8873,2.8752,2.8228,2.891,2.999,3.0889,3.1149,3.1254,3.1374,3.1785,3.2187,3.2384,3.2144,3.195,3.2064,3.2287,3.253,3.2777,3.3056,3.3233,3.3193,3.3203,3.3256,3.3361,3.2989,3.3161,3.4155,3.4085,3.436,3.5062,3.4556,3.4207,3.4279,3.4151,3.3981,3.3898,3.4125,3.4238,3.4223,3.3975,3.3991,3.4238,3.4238,3.3985,0.0,0.0,0.0,0.0,0.0,0.0,2.3401,0.0,0.0,0.0,0.0,0.0,0.0,0.0,0.0,0.0,0.0,0.0,0.0,0.0,0.0,0.0,0.0,0.0,0.0,0.0,0.0,0.0,2.5879,2.5615,2.5568,2.5125,2.4926,2.499,2.4966,2.5047,2.5189,2.5369,2.5369,2.5174,2.5061,2.4948,2.4948,2.4465,2.4292,2.4234,2.3793,2.3852,2.4234,2.4234,2.4176,2.4118,2.4607,2.4851,2.499,2.5238,2.571,2.631,2.6514,2.7388,2.8484,2.9333,3.0105,3.0675,3.0345,2.9748,2.9109,2.8409,2.8231,2.8269,2.8337,2.9396,3.0642,3.1471,3.1622,3.1736,3.2074,3.1638,3.1173,3.1221,3.1221,3.1391,3.1919,3.2266,3.2673,3.3198,3.3503,3.3555,3.3309,3.315,3.3043,3.3043,3.2648,3.2664,3.3303,3.3717,3.4069,3.4376,3.4623,3.4752,3.4635,3.4519,3.4327,3.4224,3.4432,3.4506,3.4506,3.3448,3.2959,3.2905,3.2889,3.2925,2.3028,0.0,0.0,0.0,0.0,0.0,0.0,0.0,0.0,0.0,0.0,0.0,0.0,0.0,0.0,0.0,0.0,0.0,0.0,0.0,0.0,0.0,0.0,0.0,0.0,0.0,0.0,0.0,2.5786,2.5458,2.5125,2.4589,2.434,2.4357,2.4321,2.4409,2.4532,2.4606,2.4637,2.4694,2.4478,2.4319,2.4229,2.4002,2.3754,2.3424,2.3305,2.3198,2.315,2.3365,2.3721,2.406,2.3721,2.3929,2.4471,2.408,2.459,2.5501,2.6082,2.6862,2.7806,2.8732,2.8857,2.8671,2.8605,2.8076,2.7607,2.7876,2.8018,2.8174,2.8877,2.9332,2.9699,3.0003,3.0198,3.0307,3.0362,3.0342,3.0637,3.1964,3.2204,3.2213,3.2292,3.2431,3.2562,3.2492,3.2672,3.2672,3.2373,3.2333,3.2318,3.2428,3.2562,3.3108,3.4188,3.4623,3.5151,3.596,3.5337,3.4987,3.5048,3.4942,3.4821,3.4759,3.5078,3.5078,3.4881,3.4337,3.3848,3.3452,3.2732,3.2494,0.0,0.0,0.0,0.0,0.0,0.0,2.2571,2.249,2.2528,0.0,0.0,0.0,0.0,0.0,0.0,0.0,0.0,0.0,0.0,0.0,0.0,0.0,0.0,0.0,0.0,2.4929,2.4739,2.4957,2.4671,2.4256,2.3799,2.3475,2.3294,2.3345,2.3396,2.3554,2.3822,2.4003,2.4055,2.4118,2.3956,2.3793,2.3556,2.3484,2.3185,2.2775,2.2726,2.2665,2.2555,2.2604,2.2884,2.3365,2.3352,2.3412,2.3531,2.3543,2.3986,2.4695,2.5661,2.6462,2.7162,2.8071,2.8125,2.7806,2.7437,2.7334,2.7276,2.7322,2.7794,2.8524,2.9405,2.9695,2.9752,2.9767,2.9923,3.0078,3.0078,3.0205,3.0543,3.1397,3.1536,3.1574,3.1757,3.1897,3.1989,3.1977,3.242,3.2604,3.2334,3.2518,3.2758,3.2816,3.2796,3.3231,3.4281,3.4699,3.52,3.5968,3.5567,3.5319,3.5429,3.5271,3.5145,3.5067,3.5256,3.5256,3.4988,3.4486,3.3878,3.3186,3.2657,3.2552,0.0,0.0,0.0,0.0,0.0,0.0,2.2039,2.1953,2.1911,2.1823,2.2264,0.0,0.0,0.0,0.0,0.0,0.0,0.0,0.0,0.0,0.0,0.0,0.0,0.0,2.4261,2.3952,2.3696,2.3508,2.3068,2.2618,2.2231,2.2137,2.2138,2.2196,2.2315,2.2613,2.3014,2.3382,2.3542,2.3467,2.3471,2.3305,2.3027,2.2884,2.2604,2.2359,2.2247,2.2185,2.2285,2.2049,2.2099,2.2531,2.3173,2.3053,2.2592,2.3458,2.38,2.4054,2.5437,2.612,2.6576,2.7449,2.7748,2.7621,2.6902,2.7197,2.7664,2.7043,2.7905,2.9249,2.9954,3.0219,3.0266,3.0111,3.028,3.0507,3.0507,3.0582,3.0529,3.0132,3.0122,3.0372,3.0784,3.0985,3.1182,3.1534,3.2352,3.2877,3.266,3.3111,3.3517,3.3561,3.3203,3.3217,3.3864,3.4312,3.4703,3.5093,3.5435,3.5688,3.5688,3.5474,3.5344,3.5169,3.5103,3.5037,3.481,3.4218,3.3457,3.2616,3.2639,3.2776,0.0,0.0,0.0,0.0,0.0,0.0,2.1524,2.1432,2.1339,0.0,2.1295,0.0,0.0,0.0,0.0,0.0,0.0,0.0,0.0,0.0,0.0,0.0,0.0,0.0,2.3782,2.3681,2.3421,2.292,2.2342,2.2077,2.2184,2.1712,2.1477,2.1586,2.1659,2.1773,2.1996,2.2364,2.2591,2.2705,2.2685,2.2604,2.2531,2.2235,2.2049,2.1987,2.1987,2.1788,2.1639,2.1939,2.2322,2.2787,2.2543,2.2641,2.2967,2.3314,2.38,2.4532,2.5554,2.6178,2.662,2.7245,2.7499,2.753,2.7346,2.7533,2.7905,2.8316,2.9177,3.0033,3.0222,3.0219,3.0111,3.0111,2.9927,2.9789,2.9789,2.9851,2.9827,2.986,3.0426,3.0835,3.072,3.0793,3.0896,3.097,3.1205,3.159,3.2078,3.2134,3.2291,3.2708,3.2833,3.3107,3.3691,3.454,3.5235,3.5555,3.5469,3.5464,3.5464,3.5008,3.4743,3.4728,3.4572,3.4534,3.4534,3.4176,3.3777,3.3244,3.2786,3.2792,0.0,0.0,0.0,2.0991,0.0,0.0,0.0,2.0861,2.0763,2.073,2.0597,2.0571,2.0845,0.0,0.0,0.0,0.0,0.0,0.0,0.0,0.0,0.0,0.0,0.0,2.3377,2.3216,2.2844,2.2296,2.203,2.1841,2.1712,2.1471,2.1229,2.1019,2.1112,2.1211,2.1407,2.1759,2.2033,2.2135,2.2226,2.2111,2.1788,2.18,2.1686,2.1549,2.1549,2.1537,2.1526,2.1451,2.1776,2.2285,2.2285,2.2457,2.2702,2.3267,2.3754,2.4326,2.545,2.5697,2.572,2.6366,2.6512,2.6453,2.6512,2.7056,2.7795,2.8512,2.9087,2.9449,2.9449,2.9449,2.9449,2.9352,2.9352,2.9352,2.9198,2.9324,2.9449,2.9449,2.9884,3.019,3.019,3.019,3.019,3.0205,3.0585,3.1011,3.1219,3.1824,3.2342,3.2659,3.2929,3.3368,3.3987,3.433,3.4639,3.5052,3.489,3.4743,3.4743,3.4409,3.4153,3.4099,3.3922,3.3868,3.3868,3.3618,3.3428,3.3163,3.2777,3.2791,0.0,0.0,0.0,0.0,0.0,2.0308,0.0,0.0,0.0,2.0035,1.9945,0.0,0.0,0.0,0.0,0.0,0.0,0.0,0.0,0.0,0.0,0.0,0.0,0.0,2.2889,2.2586,2.2184,2.1793,2.1746,2.1554,2.1229,2.118,2.097,2.061,2.061,2.0693,2.0832,2.1163,2.1381,2.1577,2.1777,2.1643,2.1221,2.1434,2.1423,2.1158,2.1158,2.1285,2.14,2.0914,2.1031,2.1526,2.2013,2.2211,2.2371,2.3173,2.359,2.3962,2.4964,2.4936,2.4642,2.5392,2.5694,2.5728,2.6015,2.6773,2.7682,2.8373,2.8587,2.8651,2.8651,2.8688,2.8753,2.8651,2.878,2.883,2.8688,2.8867,2.9071,2.8908,2.8944,2.9107,2.956,2.956,2.9554,2.968,3.0305,3.0764,3.0876,3.1924,3.267,3.2905,3.303,3.3409,3.3991,3.3825,3.3825,3.4196,3.4085,3.4002,3.4002,3.3756,3.3577,3.3452,3.3312,3.3171,3.31,3.2931,3.2877,3.288,3.2704,3.269,0.0,0.0,0.0,0.0,1.9711,0.0,0.0,0.0,1.9472,1.9317,0.0,0.0,0.0,0.0,0.0,0.0,0.0,0.0,1.9613,0.0,0.0,2.2575,0.0,0.0,0.0,2.1746,2.1568,2.1616,2.1104,2.0871,2.118,2.0623,2.0422,2.061,2.0283,2.0054,1.995,2.0101,2.0322,2.067,2.0614,2.0908,2.14,2.1094,2.0967,2.0967,2.1094,2.0978,2.0529,2.0582,2.0711,2.0862,2.1221,2.1788,2.242,2.2811,2.3339,2.3813,2.3995,2.4112,2.4223,2.4679,2.569,2.6826,2.7522,2.7956,2.8206,2.8338,2.8546,2.8803,2.8803,2.8688,2.8651,2.8587,2.8406,2.821,2.821,2.821,2.821,2.821,2.8052,2.8157,2.8803,2.9071,2.9392,3.0034,3.0395,3.0974,3.2207,3.234,3.2498,3.2961,3.2733,3.2632,3.2846,3.3101,3.3367,3.3575,3.3575,3.3575,3.3575,3.3101,3.2917,3.3058,3.2846,3.2561,3.2214,3.22,3.2448,3.2961,3.2393,3.2393,0.0,0.0,0.0,0.0,0.0,0.0,1.8921,0.0,1.8745,0.0,0.0,0.0,0.0,0.0,0.0,0.0,1.8193,0.0,0.0,0.0,1.9925,0.0,0.0,0.0,0.0,0.0,0.0,0.0,2.0809,2.0709,2.0636,2.0523,2.0372,2.0283,2.0016,1.9862,1.9798,1.9841,2.0045,2.0344,2.0401,2.0614,2.0967,2.0722,2.0722,2.0903,2.0635,2.0635,2.0646,2.0399,2.0518,2.0786,2.0786,2.1285,2.2149,2.2543,2.2984,2.338,2.3516,2.3716,2.4004,2.4655,2.534,2.6019,2.6646,2.6947,2.7095,2.7095,2.7217,2.7338,2.7204,2.7149,2.7162,2.6934,2.6812,2.6837,2.6985,2.7229,2.7357,2.7172,2.7297,2.7413,2.7403,2.8319,2.9184,2.9547,3.0102,3.0662,3.124,3.1544,3.186,3.2179,3.2239,3.2372,3.2704,3.269,3.2818,3.303,3.2676,3.2605,3.2818,3.2403,3.2273,3.2489,3.2417,3.2114,3.1736,3.1603,3.175,3.1955,3.1823,3.1809,1.8305,0.0,0.0,0.0,0.0,0.0,0.0,0.0,0.0,0.0,0.0,0.0,0.0,0.0,0.0,0.0,0.0,1.7413,0.0,0.0,0.0,0.0,0.0,0.0,0.0,0.0,0.0,2.0258,2.0359,2.0359,2.0182,2.022,2.0169,1.9926,1.9759,1.9592,1.9604,1.9468,1.9539,1.9842,1.9953,2.0161,2.0403,2.0333,2.0453,2.0635,2.0237,2.0313,2.0646,2.0205,2.0335,2.0711,2.0464,2.0903,2.1639,2.2063,2.2525,2.2995,2.3071,2.3494,2.4044,2.459,2.5025,2.5276,2.5599,2.5873,2.6025,2.6025,2.6151,2.6208,2.5931,2.6013,2.607,2.5779,2.5779,2.5931,2.6082,2.6449,2.6611,2.6364,2.6671,2.6892,2.649,2.7524,2.8541,2.8913,2.9613,3.0236,3.0489,3.106,3.146,3.1673,3.1924,3.2169,3.2345,3.22,3.2128,3.2101,3.1763,3.169,3.1982,3.169,3.1623,3.1667,3.1594,3.1282,3.0758,3.0524,3.039,3.0316,3.0926,3.1233,0.0,0.0,0.0,1.7516,0.0,0.0,0.0,0.0,1.7325,0.0,0.0,0.0,0.0,0.0,0.0,0.0,0.0,0.0,0.0,0.0,0.0,0.0,0.0,0.0,0.0,2.0042,1.9991,1.985,1.9708,1.9772,1.999,1.9629,1.9565,1.9798,1.9436,1.9133,1.904,1.8572,1.8568,1.8919,1.8966,1.9227,1.9714,1.9964,2.0107,2.0107,1.9987,2.0009,2.0074,1.9933,2.014,2.041,2.041,2.054,2.0797,2.1094,2.1865,2.271,2.2504,2.3242,2.4312,2.4324,2.474,2.5288,2.53,2.5453,2.5606,2.5606,2.5734,2.5931,2.5931,2.5931,2.5931,2.5931,2.5931,2.5931,2.5931,2.6094,2.6245,2.6233,2.6302,2.644,2.6414,2.6589,2.7176,2.8257,2.8925,2.9712,3.0865,3.1334,3.1643,3.1863,3.1743,3.1596,3.1629,3.1408,3.1172,3.0683,3.0885,3.0973,3.0947,3.0973,3.0847,3.0474,3.0256,2.9704,2.8813,2.8584,2.828,2.7939,2.9618,3.0533,0.0,0.0,1.671,1.665,0.0,0.0,0.0,0.0,0.0,0.0,0.0,0.0,0.0,0.0,0.0,0.0,0.0,0.0,0.0,0.0,0.0,0.0,0.0,0.0,0.0,0.0,0.0,1.9291,1.9291,1.9396,1.9448,1.9344,1.9291,1.9384,1.9093,1.8893,1.8721,1.8344,1.8324,1.8589,1.8364,1.8693,1.9482,1.9265,1.9437,1.9922,1.9671,1.9736,2.0053,1.9802,1.9933,2.0183,1.9933,2.0009,2.0205,2.0722,2.137,2.2162,2.2829,2.3281,2.3636,2.3781,2.3811,2.379,2.3948,2.4093,2.4238,2.4238,2.4539,2.4671,2.4455,2.4455,2.4527,2.4371,2.4455,2.4671,2.4897,2.5157,2.5299,2.5266,2.5541,2.5721,2.5584,2.5664,2.6454,2.8329,2.9261,2.9926,3.0618,3.0859,3.0934,3.1009,3.0872,3.0885,3.1198,3.1123,3.096,3.0607,3.0147,2.9967,3.0164,2.9494,2.9065,2.9091,2.886,2.8467,2.7925,2.7852,2.7693,2.7631,2.8226,2.8762,1.6163,1.6076,0.0,1.5957,1.5969,0.0,1.5969,0.0,0.0,0.0,0.0,0.0,0.0,0.0,0.0,0.0,0.0,0.0,0.0,1.543,0.0,0.0,0.0,0.0,0.0,0.0,1.8667,1.8667,1.8774,1.8815,0.0,0.0,1.8815,1.8804,1.8614,1.841,1.829,1.803,1.7913,1.8,1.7937,1.8262,1.8846,1.8786,1.905,1.9681,1.9274,1.9396,1.9922,1.9539,1.9594,1.9781,1.9605,1.9539,1.9692,2.0391,2.1206,2.2072,2.2875,2.315,2.3075,2.315,2.3075,2.2927,2.3075,2.3224,2.3372,2.3372,2.3593,2.3751,2.3519,2.3604,2.3666,2.3593,2.3666,2.3869,2.4283,2.4494,2.4699,2.4719,2.5031,2.5213,2.5072,2.5159,2.5887,2.7763,2.8594,2.931,2.9999,3.0152,3.0304,3.0469,3.0343,3.0355,3.0672,3.0609,3.0355,2.9808,2.934,2.9074,2.8994,2.826,2.7986,2.8315,2.7811,2.7507,2.7397,2.7066,2.6821,2.6673,2.6866,2.7197]},{"header":{"parameterUnit":"m.s-1","parameterCategory":1,"la1":30.6,"la2":29.2853,"lo1":-89.7004,"lo2":-87.6739,"dy":0.0162,"dx":0.0183,"nx":112,"ny":82,"refTime":"2023-07-22T12:00:00:Z","depth":0,"parameterNumber":3,"parameterNumberName":"V-component_of_WINDS"},"data":[0.0,0.0,0.0,0.0,0.0,0.0,0.0,0.0,0.0,0.0,0.0,0.0,0.0,0.0,0.0,0.0,0.0,0.0,0.0,0.0,0.0,0.0,0.0,0.0,0.0,0.0,0.0,0.0,0.0,0.0,0.0,0.0,0.0,0.0,0.0,0.0,0.0,0.0,0.0,0.0,0.0,0.0,0.0,0.0,0.0,0.0,0.0,0.0,0.0,0.0,0.0,0.0,0.0,0.0,0.0,0.0,0.0,0.0,0.0,0.0,0.0,0.0,0.0,0.0,0.0,0.0,0.0,0.0,0.0,0.0,0.0,0.0,0.0,0.0,0.0,0.0,0.0,0.0,0.0,0.0,0.0,0.0,0.0,0.0,0.0,0.0,0.0,0.0,0.0,0.0,0.8126,0.767,0.7335,0.7167,0.7167,0.6963,0.6878,0.6878,0.0,0.0,0.0,0.0,0.0,0.0,0.0,0.0,0.0,0.0,0.0,0.0,0.0,0.0,0.0,0.0,0.0,0.0,0.0,0.0,0.0,0.0,0.0,0.0,0.0,0.0,0.0,0.0,0.0,0.0,0.0,0.0,0.0,0.0,0.0,0.0,0.0,0.0,0.0,0.0,0.0,0.0,0.0,0.0,0.0,0.0,0.0,0.0,0.0,0.0,0.0,0.0,0.0,0.0,0.0,0.0,0.0,0.0,0.0,0.0,0.0,0.0,0.0,0.0,0.0,0.0,0.0,0.0,0.0,0.0,0.0,0.0,0.0,0.0,0.0,0.0,0.0,0.0,0.0,0.0,0.0,0.0,0.0,0.0,0.0,0.0,0.0,0.0,0.0,0.0,0.0,0.0,0.0,0.0,0.0,0.0,0.0,0.0,0.0,0.0,0.0,0.0,0.0,0.0,0.767,0.7293,0.7118,0.6985,0.6956,0.6793,0.6708,0.6708,0.0,0.0,0.0,0.0,0.0,0.0,0.0,0.0,0.0,0.0,0.0,0.0,0.0,0.0,0.0,0.0,0.0,0.0,0.0,0.0,0.0,0.0,0.0,0.0,0.0,0.0,0.0,0.0,0.0,0.0,0.0,0.0,0.0,0.0,0.0,0.0,0.0,0.0,0.0,0.0,0.0,0.0,0.0,0.0,0.0,0.0,0.0,0.0,0.0,0.0,0.0,0.0,0.0,0.0,0.0,0.0,0.0,0.0,0.0,0.0,0.0,0.0,0.0,0.0,0.0,0.0,0.0,0.0,0.0,0.0,0.0,0.0,0.0,0.0,0.0,0.0,0.0,0.0,0.0,0.0,0.0,0.0,0.0,0.0,0.0,0.0,0.0,0.0,0.0,0.0,0.0,0.0,0.0,0.0,0.0,0.0,0.0,0.0,0.0,0.0,0.0,0.0,0.0,0.7538,0.728,0.7118,0.695,0.6829,0.6793,0.663,0.6538,0.6538,0.641,0.0,0.0,0.0,0.0,0.0,0.0,0.0,0.0,0.0,0.0,0.0,0.0,0.0,0.0,0.0,0.0,0.0,0.0,0.0,0.0,0.0,0.0,0.0,0.0,0.0,0.0,0.0,0.0,0.0,0.0,0.0,0.0,0.0,0.0,0.0,0.0,0.0,0.0,0.0,0.0,0.0,0.0,0.0,0.0,0.0,0.0,0.0,0.0,0.0,0.0,0.0,0.0,0.0,0.0,0.0,0.0,0.0,0.0,0.0,0.0,0.0,0.0,0.0,0.0,0.0,0.0,0.0,0.0,0.0,0.0,0.0,0.0,0.0,0.0,0.0,0.0,0.0,0.0,0.0,0.0,0.0,0.0,0.0,0.0,0.0,0.0,0.0,0.0,0.0,0.0,0.0,0.0,0.0,0.0,0.0,0.0,0.0,0.0,0.0,0.0,0.0,0.0,0.7147,0.6943,0.6901,0.6745,0.6623,0.6581,0.641,0.6282,0.6276,0.6062,0.0,0.0,0.0,0.0,0.0,0.0,0.0,0.0,0.0,0.0,0.0,0.0,0.0,0.0,0.0,0.0,0.0,0.0,0.0,0.0,0.0,0.0,0.0,0.0,0.0,0.0,0.0,0.0,0.0,0.0,0.0,0.0,0.0,0.0,0.0,0.0,0.0,0.0,0.0,0.0,0.0,0.0,0.0,0.0,0.0,0.0,0.0,0.0,0.0,0.0,0.0,0.0,0.0,0.0,0.0,0.0,0.0,0.0,0.0,0.0,0.0,0.0,0.0,0.0,0.0,0.0,0.0,0.0,0.0,0.0,0.0,0.0,0.0,0.0,0.0,0.0,0.0,0.0,0.0,0.0,0.0,0.0,0.0,0.0,0.0,0.0,0.0,0.0,0.0,0.0,0.0,0.0,0.0,0.0,0.0,0.0,0.0,0.0,0.0,0.0,0.0,0.0,0.695,0.6829,0.6562,0.6447,0.6367,0.6227,0.6105,0.5976,0.5836,0.5836,0.0,0.0,0.0,0.0,0.0,0.0,0.0,0.0,0.0,0.0,0.0,0.0,0.0,0.0,0.0,0.0,0.0,0.0,0.0,0.0,0.0,0.0,0.0,0.0,0.0,0.0,0.0,0.0,0.0,0.0,0.0,0.0,0.0,0.0,0.0,0.0,0.0,0.0,0.0,0.0,0.0,0.0,0.0,0.0,0.0,0.0,0.0,0.0,0.0,0.0,0.0,0.0,0.0,0.0,0.0,0.0,0.0,0.0,0.0,0.0,0.0,0.0,0.0,0.0,0.0,0.0,0.0,0.0,0.0,0.0,0.0,0.0,0.0,0.0,0.0,0.0,0.0,0.0,0.0,0.0,0.0,0.0,0.0,0.0,0.0,0.0,0.0,0.0,0.0,0.0,0.0,0.0,0.0,0.0,0.0,0.0,0.0,0.0,0.0,0.0,0.0,0.0,0.6617,0.6532,0.0,0.6233,0.6105,0.5964,0.5884,0.5761,0.562,0.0,0.0,0.0,0.0,0.0,0.0,0.0,0.0,0.0,0.0,0.0,0.0,0.0,0.0,0.0,0.0,0.0,0.0,0.0,0.0,0.0,0.0,0.0,0.0,0.0,0.0,0.0,0.0,0.0,0.0,0.0,0.0,0.0,0.0,0.0,0.0,0.0,0.0,0.0,0.0,0.0,0.0,0.0,0.0,0.0,0.0,0.0,0.0,0.0,0.0,0.0,0.0,0.0,0.0,0.0,0.0,0.0,0.0,0.0,0.0,0.0,0.0,0.0,0.0,0.0,0.0,0.0,0.0,0.0,0.0,0.0,0.0,0.0,0.0,0.0,0.0,0.0,0.0,0.0,0.0,0.0,0.0,0.0,0.0,0.0,0.0,0.0,0.0,0.0,0.0,0.0,0.0,0.0,0.0,0.0,0.0,0.0,0.0,0.0,0.0,0.0,0.0,0.6489,0.6319,0.6147,0.0,0.5927,0.5798,0.562,0.5588,0.5458,0.5275,0.0,0.0,0.0,0.0,0.0,0.0,0.0,0.0,0.0,0.0,0.0,0.0,0.0,0.0,0.0,0.0,0.0,0.0,0.0,0.0,0.0,0.0,0.0,0.0,0.0,0.0,0.0,0.0,0.0,0.0,0.0,0.0,0.0,0.0,0.0,0.0,0.0,0.0,0.0,0.0,0.0,0.0,0.0,0.0,0.0,0.0,0.0,0.0,0.0,0.0,0.0,0.0,0.0,0.0,0.0,0.0,0.0,0.0,0.0,0.0,0.0,0.0,0.0,0.0,0.0,0.0,0.0,0.0,0.0,0.0,0.0,0.0,0.0,0.0,0.0,0.0,0.0,0.0,0.0,0.0,0.0,0.0,0.0,0.0,0.0,0.0,0.0,0.0,0.0,0.0,0.0,0.0,0.0,0.0,0.0,0.0,0.0,0.0,0.0,0.0,0.0,0.0,0.6373,0.6056,0.575,0.5717,0.5583,0.5404,0.5193,0.5193,0.5062,0.0,0.0,0.0,0.0,0.0,0.0,0.0,0.0,0.0,0.0,0.0,0.0,0.0,0.0,0.0,0.0,0.0,0.0,0.0,0.0,0.0,0.0,0.0,0.0,0.0,0.0,0.0,0.0,0.0,0.0,0.0,0.0,0.0,0.0,0.0,0.0,0.0,0.0,0.0,0.0,0.0,0.0,0.0,0.0,0.0,0.0,0.0,0.0,0.0,0.0,0.0,0.0,0.0,0.0,0.0,0.0,0.0,0.0,0.0,0.0,0.0,0.0,0.0,0.0,0.0,0.0,0.0,0.0,0.0,0.0,0.0,0.0,0.0,0.0,0.0,0.0,0.0,0.0,0.0,0.0,0.0,0.0,0.0,0.0,0.0,0.0,0.0,0.0,0.0,0.0,0.0,0.0,0.0,0.0,0.0,0.0,0.0,0.0,0.0,0.0,0.0,0.0,0.0,0.5895,0.5712,0.5539,0.5366,0.5323,0.5193,0.4932,0.484,0.4709,0.4587,0.0,0.0,0.0,0.0,0.0,0.0,0.0,0.0,0.0,0.0,0.0,0.0,0.0,0.0,0.0,0.0,0.0,0.0,0.0,0.0,0.0,0.0,0.0,0.0,0.0,0.0,0.0,0.0,0.0,0.0,0.0,0.0,0.0,0.0,0.0,0.0,0.0,0.0,0.0,0.0,0.0,0.0,0.0,0.0,0.0,0.0,0.0,0.0,0.0,0.0,0.0,0.0,0.0,0.0,0.0,0.0,0.0,0.0,0.0,0.0,0.0,0.0,0.0,0.0,0.0,0.0,0.0,0.0,0.0,0.0,0.0,0.0,0.0,0.0,0.0,0.0,0.0,0.0,0.0,0.0,0.0,0.0,0.0,0.0,0.0,0.0,0.0,0.0,0.0,0.0,0.0,0.0,0.0,0.0,0.0,0.0,0.0,0.0,0.0,0.0,0.0,0.0,0.5808,0.556,0.5366,0.5192,0.5027,0.4845,0.4626,0.4491,0.432,0.4188,0.0,0.0,0.0,0.0,0.0,0.0,0.0,0.0,0.0,0.0,0.0,0.0,0.0,0.0,0.0,0.0,0.0,0.0,0.0,0.0,0.0,0.0,0.0,0.0,0.0,0.0,0.0,0.0,0.0,0.0,0.0,0.0,0.0,0.0,0.0,0.0,0.0,0.0,0.0,0.0,0.0,0.0,0.0,0.0,0.0,0.0,0.0,0.0,0.0,0.0,0.0,0.0,0.0,0.0,0.0,0.0,0.0,0.0,0.0,0.0,0.0,0.0,0.0,0.0,0.0,0.0,0.0,0.0,0.0,0.0,0.0,0.0,0.0,0.0,0.0,0.0,0.0,0.0,0.0,0.0,0.0,0.0,0.0,0.0,0.0,0.0,0.0,0.0,0.0,0.0,0.0,0.0,0.0,0.0,0.0,0.0,0.0,0.0,0.0,0.0,0.0,0.0,0.5873,0.5534,0.5218,0.5065,0.4722,0.4428,0.4276,0.4148,0.3928,0.3656,0.0,0.0,0.0,0.0,0.0,0.0,0.0,0.0,0.0,0.0,0.0,0.0,0.0,0.0,0.0,0.0,0.0,0.0,0.0,0.0,0.0,0.0,0.0,0.0,0.0,0.0,0.0,0.0,0.0,0.0,0.0,0.0,0.0,0.0,0.0,0.0,0.0,0.0,0.0,0.0,0.0,0.0,0.0,0.0,0.0,0.0,0.0,0.0,0.0,0.0,0.0,0.0,0.0,0.0,0.0,0.0,0.0,0.0,0.0,0.0,0.8654,0.0,0.0,0.0,0.0,0.0,0.0,0.0,0.0,0.0,0.0,0.0,0.0,0.0,0.0,0.0,0.0,0.0,0.0,0.0,0.0,0.0,0.0,0.0,0.0,0.0,0.0,0.0,0.0,0.0,0.0,0.0,0.0,0.0,0.0,0.0,0.0,0.0,0.0,0.0,0.0,0.0,0.5648,0.542,0.5092,0.4654,0.4562,0.4339,0.3888,0.3751,0.3575,0.3303,0.3214,0.0,0.0,0.0,0.0,0.0,0.0,0.0,0.0,0.0,0.0,0.0,0.0,0.0,0.0,0.0,0.0,0.0,0.0,0.0,0.0,0.0,0.0,0.0,0.0,0.0,0.0,0.0,0.0,0.0,0.0,0.0,0.0,0.0,0.0,0.0,0.0,0.0,0.0,0.0,0.0,0.0,0.0,0.0,0.0,0.0,0.0,0.0,0.0,0.0,0.0,0.0,0.0,0.0,0.0,0.0,0.0,0.0,0.0,0.0,0.0,0.8656,0.0,0.0,0.0,0.0,0.0,0.0,0.0,0.0,0.0,0.0,0.0,0.0,0.0,0.0,0.0,0.0,0.0,0.0,0.0,0.0,0.0,0.0,0.0,0.0,0.0,0.0,0.0,0.0,0.0,0.0,0.0,0.0,0.0,0.0,0.0,0.0,0.0,0.0,0.0,0.0,0.5479,0.5255,0.501,0.4614,0.4311,0.404,0.3771,0.3478,0.3217,0.3087,0.286,0.0,0.0,0.0,0.0,0.0,0.0,0.0,0.0,0.0,0.0,0.0,0.0,0.0,0.0,0.0,0.0,0.0,0.0,0.0,0.0,0.0,0.0,0.0,0.0,0.0,0.0,0.0,0.0,0.0,0.0,0.0,0.0,0.0,0.0,0.0,0.0,0.0,0.0,0.0,0.0,0.0,0.0,0.0,0.0,0.0,0.0,0.0,0.0,0.0,0.0,0.0,0.0,0.0,0.8201,0.8228,0.8276,0.8331,0.8352,0.8407,0.8783,0.886,0.8717,0.867,0.0,0.0,0.0,0.0,0.0,0.0,0.0,0.0,0.0,0.0,0.0,0.0,0.0,0.0,0.0,0.0,0.0,0.0,0.0,0.0,0.0,0.0,0.0,0.0,0.5439,0.5444,0.0,0.0,0.0,0.0,0.0,0.0,0.0,0.0,0.0,0.0,0.0,0.0,0.5332,0.5165,0.4902,0.4561,0.4118,0.3812,0.369,0.33,0.2967,0.2837,0.2607,0.2379,0.0,0.0,0.0,0.0,0.0,0.0,0.0,0.0,0.0,0.0,0.0,0.0,0.0,0.0,0.0,0.0,0.0,0.0,0.0,0.0,0.0,0.0,0.0,0.0,0.0,0.0,0.0,0.0,0.0,0.0,0.0,0.0,0.7419,0.7419,0.0,0.0,0.0,0.0,0.0,0.0,0.0,0.0,0.0,0.0,0.0,0.0,0.0,0.7583,0.7583,0.7583,0.7583,0.7589,0.7826,0.7991,0.8141,0.8448,0.8625,0.8743,0.8795,0.0,0.8341,0.8193,0.0,0.0,0.0,0.0,0.0,0.0,0.0,0.0,0.0,0.0,0.0,0.0,0.0,0.0,0.0,0.0,0.0,0.0,0.0,0.0,0.0,0.0,0.5707,0.5654,0.5562,0.5471,0.0,0.5607,0.5672,0.5909,0.5901,0.0,0.0,0.0,0.0,0.0,0.0,0.0,0.5297,0.5105,0.4761,0.4312,0.4212,0.3926,0.3351,0.323,0.2975,0.2481,0.2432,0.2234,0.179,0.1699,0.0,0.0,0.0,0.0,0.0,0.0,0.0,0.0,0.0,0.0,0.0,0.0,0.0,0.0,0.0,0.0,0.0,0.0,0.0,0.0,0.0,0.0,0.0,0.0,0.0,0.0,0.0,0.0,0.0,0.7346,0.7449,0.7449,0.7606,0.7679,0.0,0.0,0.0,0.0,0.0,0.0,0.0,0.0,0.0,0.761,0.7659,0.7739,0.7739,0.7739,0.7739,0.7739,0.7856,0.7912,0.8015,0.814,0.8249,0.8309,0.8309,0.8222,0.8088,0.8202,0.806,0.782,0.0,0.0,0.0,0.0,0.6996,0.6948,0.667,0.6525,0.0,0.6326,0.0,0.0,0.0,0.0,0.0,0.0,0.0,0.0,0.0,0.0,0.5447,0.5452,0.5358,0.5341,0.5498,0.5503,0.5561,0.0,0.5678,0.5738,0.5898,0.0,0.0,0.0,0.0,0.5242,0.4967,0.4794,0.4549,0.4216,0.3924,0.3641,0.3324,0.2955,0.2668,0.2417,0.2118,0.1866,0.1666,0.1493,0.1363,0.0,0.0,0.0,0.0,0.0,0.0,0.0,0.0,0.0,0.0,0.0,0.0,0.0,0.0,0.0,0.0,0.0,0.0,0.0,0.0,0.0,0.0,0.0,0.0,0.0,0.0,0.0,0.0,0.7395,0.7582,0.753,0.7736,0.7806,0.0,0.0,0.0,0.0,0.0,0.0,0.7363,0.756,0.7645,0.7529,0.7728,0.7856,0.7856,0.7856,0.7856,0.7911,0.7911,0.7966,0.7972,0.7972,0.7972,0.7911,0.7911,0.7911,0.7851,0.8098,0.7986,0.7653,0.7493,0.7318,0.7049,0.685,0.6751,0.6651,0.6413,0.6262,0.6102,0.6107,0.5961,0.5865,0.5865,0.0,0.0,0.0,0.0,0.5705,0.5503,0.5351,0.5301,0.5259,0.5162,0.514,0.5326,0.5356,0.5409,0.0,0.5571,0.5562,0.5601,0.0,0.0,0.0,0.0,0.4963,0.4688,0.4463,0.4298,0.4082,0.3664,0.3393,0.3233,0.2787,0.2435,0.228,0.1868,0.161,0.1453,0.1332,0.1188,0.1025,0.0,0.0,0.0,0.0,0.0,0.0,0.0,0.0,0.0,0.0,0.0,0.0,0.0,0.0,0.0,0.0,0.0,0.0,0.0,0.0,0.0,0.0,0.0,0.0,0.0,0.0,0.0,0.0,0.0,0.7693,0.7706,0.0,0.0,0.0,0.0,0.7894,0.7747,0.7635,0.7481,0.7555,0.7627,0.7571,0.7692,0.7699,0.7699,0.7699,0.7811,0.7988,0.7988,0.8052,0.8181,0.8181,0.8117,0.7988,0.7988,0.787,0.772,0.7709,0.767,0.7503,0.7348,0.723,0.7101,0.695,0.6784,0.6666,0.6455,0.6293,0.618,0.6023,0.5923,0.5819,0.5819,0.5819,0.0,0.0,0.5819,0.5819,0.5764,0.5546,0.5273,0.5273,0.5101,0.4933,0.4941,0.4941,0.5054,0.0,0.5605,0.55,0.5179,0.0,0.5069,0.4956,0.468,0.4519,0.4519,0.4242,0.3913,0.3638,0.358,0.3352,0.2794,0.2679,0.2456,0.1843,0.1788,0.1564,0.1116,0.1174,0.1119,0.0895,0.0616,0.0,0.0,0.0,0.0,0.0,0.0,0.0,0.0,0.0,0.0,0.0,0.0,0.0,0.0,0.0,0.0,0.0,0.0,0.0,0.0,0.0,0.0,0.0,0.0,0.0,0.0,0.0,0.0,0.7852,0.8005,0.0,0.8141,0.8118,0.8062,0.7977,0.7937,0.7766,0.749,0.7512,0.7496,0.7433,0.7452,0.7434,0.7434,0.7434,0.7493,0.7553,0.7553,0.7553,0.7617,0.7617,0.7612,0.7553,0.7553,0.7434,0.7245,0.7259,0.737,0.749,0.7203,0.7082,0.7004,0.6643,0.6487,0.6407,0.611,0.6009,0.595,0.59,0.5845,0.5795,0.5795,0.5736,0.5626,0.5517,0.5407,0.5348,0.5234,0.5124,0.5069,0.5069,0.4956,0.4897,0.4897,0.4897,0.493,0.5103,0.5146,0.512,0.5011,0.4904,0.4831,0.4706,0.4472,0.4278,0.4197,0.391,0.3694,0.3471,0.3193,0.2914,0.2691,0.2355,0.202,0.1797,0.1515,0.1291,0.1178,0.1066,0.0954,0.0898,0.0785,0.0729,0.0,0.0,0.0,0.0,0.0,0.0,0.0,0.0,0.0,0.0,0.0,0.0,0.0,0.0,0.0,0.0,0.0,0.0,0.0,0.0,0.0,0.0,0.0,0.0,0.0,0.0,0.8182,0.8026,0.8321,0.8447,0.8291,0.8195,0.8086,0.7957,0.779,0.7553,0.7325,0.7275,0.7194,0.7128,0.7135,0.7173,0.7173,0.7173,0.7173,0.7291,0.7291,0.7291,0.7353,0.7353,0.7353,0.7291,0.7291,0.7173,0.6993,0.6993,0.7116,0.7291,0.6959,0.6782,0.6708,0.6402,0.6236,0.6102,0.5747,0.5648,0.5648,0.5648,0.5648,0.5648,0.5648,0.5588,0.5531,0.536,0.5247,0.5186,0.5072,0.5011,0.4951,0.4951,0.4951,0.4898,0.4837,0.478,0.4812,0.4748,0.4758,0.4777,0.4773,0.467,0.4589,0.451,0.4271,0.4076,0.3983,0.3632,0.3342,0.3192,0.2906,0.261,0.2415,0.202,0.1741,0.1572,0.1291,0.1122,0.1122,0.0954,0.0898,0.0898,0.0673,0.0617,0.0617,0.0,0.0,0.0,0.0,0.0,0.0,0.0,0.0,0.0,0.0,0.0,0.0,0.0,0.0,0.0,0.0,0.0,0.0,0.0,0.0,0.0,0.0,0.0,0.7948,0.8397,0.8689,0.8359,0.8525,0.8569,0.8232,0.793,0.7817,0.7773,0.7295,0.6995,0.7,0.6888,0.6809,0.6809,0.6867,0.6898,0.6898,0.6898,0.703,0.7222,0.7222,0.7283,0.7475,0.747,0.7405,0.7213,0.7204,0.7073,0.6881,0.6881,0.6881,0.6841,0.6586,0.644,0.6324,0.6259,0.6069,0.5763,0.5464,0.5404,0.5404,0.5404,0.5404,0.5404,0.5404,0.5404,0.5404,0.5404,0.5404,0.5404,0.5404,0.5214,0.509,0.509,0.4975,0.4857,0.4607,0.4607,0.4546,0.4424,0.4502,0.4569,0.4585,0.4482,0.436,0.4363,0.4119,0.0,0.3878,0.3385,0.2984,0.2781,0.2653,0.2387,0.1862,0.18,0.1574,0.1122,0.1178,0.1122,0.0898,0.0898,0.0898,0.0898,0.028,0.0,0.0,0.0,0.0,0.0,0.0,0.0,0.0,0.0,0.0,0.0,0.0,0.0,0.0,0.0,0.0,0.0,0.0,0.0,0.0,0.0,0.0,0.0,0.0,0.8121,0.8074,0.825,0.8346,0.823,0.8223,0.8158,0.8154,0.7926,0.7756,0.7756,0.7583,0.7451,0.7401,0.7327,0.7289,0.7289,0.7337,0.7364,0.7364,0.7364,0.7364,0.7433,0.7433,0.7433,0.7498,0.7346,0.7283,0.7207,0.6933,0.6745,0.6548,0.6412,0.6284,0.621,0.6371,0.6398,0.6318,0.5931,0.5686,0.5525,0.5404,0.5404,0.5404,0.5404,0.5404,0.5404,0.5404,0.5279,0.5154,0.5154,0.5097,0.4979,0.485,0.4789,0.4725,0.4601,0.4543,0.4543,0.4482,0.4482,0.4449,0.4549,0.4481,0.4374,0.4433,0.4238,0.4086,0.4179,0.368,0.0,0.3297,0.2997,0.2705,0.25,0.2252,0.2044,0.1862,0.157,0.1324,0.118,0.1066,0.0954,0.0898,0.0898,0.0673,0.028,0.0112,0.0,0.0,0.0,0.0,0.0,0.0,0.0,0.0,0.0,0.0,0.0,0.0,0.0,0.0,0.0,0.0,0.0,0.0,0.0,0.0,0.0,0.0,0.0,0.7968,0.8056,0.8143,0.8231,0.8253,0.8188,0.8242,0.8228,0.804,0.7942,0.7836,0.7674,0.7489,0.7329,0.7229,0.7095,0.7019,0.7019,0.7019,0.7019,0.7019,0.7019,0.7019,0.7019,0.7019,0.7019,0.7019,0.6909,0.679,0.6781,0.6607,0.6499,0.6367,0.6294,0.6158,0.0,0.0,0.0,0.0,0.0,0.5552,0.5475,0.5416,0.5353,0.529,0.529,0.5227,0.5164,0.5164,0.5038,0.4971,0.4971,0.4911,0.4851,0.4722,0.4659,0.4655,0.4592,0.4592,0.4526,0.4526,0.4399,0.4362,0.4437,0.4194,0.0,0.4157,0.4019,0.3918,0.3858,0.3492,0.3217,0.3075,0.2716,0.2423,0.2265,0.1947,0.1675,0.1625,0.1366,0.0,0.0,0.0,0.0785,0.0561,0.0505,0.0,0.0,0.0,0.0,0.0,0.0,0.0,0.0,0.0,0.0,0.0,0.0,0.0,0.0,0.0,0.0,0.0,0.0,0.0,0.0,0.0,0.0,0.0,0.0,0.0,0.0,0.7808,0.7922,0.8138,0.8265,0.8274,0.8138,0.8382,0.8424,0.801,0.7971,0.7872,0.7686,0.7195,0.6917,0.6937,0.0,0.0,0.0,0.0,0.6356,0.6356,0.6356,0.6356,0.6356,0.6356,0.6356,0.6356,0.6338,0.6331,0.6327,0.6237,0.623,0.623,0.623,0.6158,0.6129,0.5988,0.5877,0.5811,0.5603,0.5533,0.5536,0.541,0.0,0.0,0.5135,0.5004,0.4873,0.4873,0.4873,0.4873,0.4873,0.4864,0.4788,0.4785,0.4773,0.4764,0.4764,0.4764,0.4697,0.4561,0.4431,0.4233,0.4233,0.3842,0.3581,0.371,0.3835,0.3828,0.3496,0.3431,0.3295,0.2958,0.2555,0.2267,0.2079,0.0,0.0,0.1245,0.1272,0.1189,0.0889,0.0862,0.0563,0.0,0.0,0.0,0.0,0.0,0.0,0.0,0.0,0.0,0.0,0.0,0.0,0.0,0.0,0.0,0.0,0.0,0.0,0.0,0.0,0.0,0.0,0.0,0.0,0.0,0.0,0.0,0.7654,0.7936,0.8148,0.8043,0.8093,0.8107,0.8255,0.8329,0.8168,0.7808,0.7774,0.7727,0.7522,0.7314,0.7162,0.7151,0.6923,0.6768,0.6768,0.6768,0.6768,0.6768,0.6768,0.6768,0.6768,0.0,0.0,0.6764,0.6634,0.6578,0.6496,0.6071,0.5871,0.5871,0.5512,0.544,0.5434,0.5739,0.5644,0.5361,0.529,0.529,0.529,0.5219,0.5219,0.5148,0.5148,0.5148,0.5151,0.5151,0.5151,0.0,0.5151,0.5075,0.4927,0.4786,0.4707,0.4628,0.4434,0.4367,0.4367,0.4367,0.4231,0.4028,0.3894,0.383,0.368,0.3263,0.3275,0.3293,0.3092,0.2956,0.2755,0.2421,0.2153,0.1947,0.1736,0.1467,0.132,0.1349,0.1147,0.1005,0.092,0.0416,0.0115,0.0,0.0,0.0,0.0,0.0,0.0,0.0,0.0,0.0,0.0,0.0,0.0,0.0,0.0,0.0,0.0,0.0,0.0,0.0,0.0,0.0,0.0,0.0,0.7244,0.0,0.0,0.7569,0.7541,0.7733,0.7901,0.7924,0.7883,0.7983,0.8094,0.8179,0.8101,0.7803,0.7746,0.7699,0.7346,0.7052,0.6863,0.6868,0.6718,0.656,0.6402,0.6402,0.6325,0.6251,0.6251,0.6251,0.6251,0.6251,0.6325,0.6398,0.6325,0.6294,0.6446,0.6139,0.5956,0.5803,0.5504,0.5432,0.5432,0.5504,0.5421,0.5228,0.53,0.53,0.5228,0.53,0.5156,0.4867,0.4867,0.4795,0.4579,0.4579,0.4579,0.4651,0.4726,0.4684,0.464,0.4496,0.445,0.4407,0.4199,0.4129,0.4129,0.4129,0.392,0.3709,0.3776,0.3464,0.3212,0.2999,0.2896,0.287,0.2664,0.2661,0.2451,0.2033,0.194,0.1786,0.1579,0.1357,0.1206,0.1256,0.1107,0.0829,0.0495,0.0426,0.03,0.0,0.0,0.0,0.0,0.0368,0.0373,0.0,0.0,0.0191,0.0581,0.0581,0.0385,0.0,0.0,0.0,0.0,0.0,0.0,0.0,0.0,0.6952,0.7172,0.7205,0.7246,0.7441,0.75,0.7411,0.7429,0.7414,0.7492,0.7634,0.7686,0.7803,0.7857,0.7992,0.8018,0.7786,0.7774,0.765,0.7227,0.6839,0.662,0.657,0.6342,0.6107,0.5946,0.5943,0.5868,0.5717,0.5717,0.5717,0.5714,0.5764,0.583,0.5902,0.5876,0.6022,0.618,0.6103,0.5948,0.5709,0.5559,0.5482,0.5404,0.5243,0.5118,0.5085,0.531,0.531,0.5161,0.5383,0.5091,0.4648,0.4648,0.4355,0.4063,0.4063,0.4063,0.4137,0.4286,0.4272,0.4257,0.4257,0.4239,0.415,0.4003,0.393,0.3855,0.3858,0.357,0.3352,0.3493,0.2996,0.2642,0.2715,0.2653,0.2505,0.2338,0.2478,0.2404,0.175,0.179,0.1693,0.1332,0.117,0.1085,0.108,0.0925,0.0579,0.0062,0.0561,0.0746,0.0247,0.0124,0.0125,0.0125,0.0689,0.07,0.0195,0.013,0.0395,0.1012,0.1079,0.0733,0.5584,0.5948,0.6319,0.6568,0.6749,0.6924,0.0,0.0,0.7399,0.7425,0.7425,0.7438,0.7487,0.7345,0.7203,0.7225,0.7231,0.72,0.699,0.7275,0.7447,0.7279,0.7753,0.7918,0.7604,0.7706,0.7557,0.7073,0.6849,0.6589,0.6305,0.615,0.5988,0.5988,0.5988,0.5988,0.5988,0.616,0.616,0.5988,0.627,0.6288,0.6048,0.5921,0.5941,0.5941,0.5553,0.5323,0.5093,0.5096,0.4937,0.4779,0.4779,0.4683,0.4503,0.4897,0.5054,0.5054,0.5054,0.4897,0.4663,0.4663,0.4506,0.4349,0.4349,0.4349,0.4349,0.4349,0.4287,0.4218,0.4218,0.3999,0.3783,0.3711,0.3564,0.3419,0.3205,0.3132,0.306,0.2766,0.2669,0.2562,0.2264,0.238,0.2455,0.235,0.2481,0.2408,0.1751,0.1673,0.1367,0.0702,0.0908,0.1106,0.1081,0.0471,0.0066,0.0,0.0707,0.1016,0.0989,0.0634,0.045,0.045,0.0527,0.0669,0.1006,0.0604,0.047,0.0607,0.0944,0.0875,0.5502,0.5728,0.5978,0.6256,0.6384,0.6483,0.6654,0.675,0.6805,0.6805,0.6805,0.6837,0.6944,0.6887,0.6919,0.0,0.6945,0.6844,0.6764,0.6743,0.6707,0.663,0.6872,0.7167,0.7167,0.7171,0.7001,0.6586,0.644,0.622,0.6111,0.6031,0.5951,0.5788,0.5788,0.5788,0.5618,0.5705,0.5705,0.5618,0.5812,0.587,0.587,0.5816,0.5743,0.5665,0.5196,0.4932,0.501,0.4776,0.4621,0.4548,0.4451,0.4318,0.4152,0.4646,0.4779,0.4698,0.4779,0.4545,0.4153,0.4153,0.3919,0.3606,0.3606,0.3606,0.3684,0.3839,0.3812,0.3784,0.3782,0.3677,0.3497,0.3269,0.3118,0.2966,0.2816,0.2662,0.2511,0.2357,0.2303,0.2244,0.209,0.2186,0.2264,0.2372,0.2059,0.1676,0.1143,0.1279,0.1174,0.0563,0.049,0.0485,0.0473,0.0539,0.0671,0.0663,0.0729,0.0856,0.1107,0.0922,0.0861,0.0861,0.0871,0.0944,0.1079,0.0944,0.0877,0.0877,0.1028,0.1035,0.5568,0.5739,0.5767,0.601,0.6139,0.6235,0.6345,0.6404,0.6434,0.6364,0.6364,0.6401,0.6442,0.6464,0.6428,0.6615,0.6483,0.6331,0.6331,0.617,0.6009,0.5931,0.606,0.6244,0.6445,0.6616,0.66,0.6325,0.6173,0.6024,0.589,0.5893,0.5811,0.5729,0.5644,0.5557,0.5384,0.5384,0.5384,0.5297,0.5349,0.5504,0.5504,0.5555,0.5405,0.5151,0.4746,0.4631,0.4708,0.4391,0.4232,0.4079,0.3987,0.3769,0.3602,0.3941,0.4154,0.4314,0.4393,0.4157,0.3673,0.3649,0.3326,0.2929,0.291,0.2904,0.2982,0.3136,0.3214,0.3214,0.3136,0.3136,0.3057,0.2746,0.2669,0.2591,0.2356,0.2198,0.2119,0.1961,0.1885,0.1965,0.2044,0.1965,0.1965,0.2123,0.1887,0.1335,0.055,0.0538,0.0523,0.0359,0.0141,-0.0069,-0.0137,0.0406,0.0877,0.1079,0.0809,0.0809,0.1079,0.1078,0.1078,0.1078,0.1078,0.1082,0.1091,0.1091,0.1095,0.1104,0.1124,0.1134,0.5771,0.6,0.6058,0.6069,0.6376,0.6615,0.6619,0.6738,0.685,0.6623,0.6626,0.6546,0.6237,0.6083,0.5935,0.5938,0.5789,0.5637,0.5637,0.5628,0.5547,0.5321,0.5433,0.5398,0.0,0.6025,0.6502,0.6224,0.6233,0.6031,0.5716,0.5722,0.5722,0.5722,0.5542,0.5361,0.5361,0.5361,0.527,0.4999,0.5336,0.537,0.5104,0.5081,0.4777,0.4358,0.4356,0.4191,0.3942,0.3942,0.369,0.3352,0.3355,0.3022,0.2604,0.2687,0.3188,0.3942,0.3942,0.369,0.334,0.3267,0.2921,0.2587,0.2529,0.2511,0.2511,0.2511,0.2511,0.2511,0.2511,0.2353,0.2275,0.2431,0.2277,0.2123,0.1965,0.1887,0.1807,0.1415,0.165,0.1887,0.1887,0.1572,0.1335,0.1335,0.1965,0.1887,0.0236,-0.0692,-0.0908,-0.0076,0.0,-0.014,-0.049,-0.0137,0.0337,0.1079,0.1079,0.1079,0.1079,0.1077,0.1076,0.1076,0.1076,0.109,0.1119,0.1119,0.1135,0.1164,0.1165,0.1165,0.5674,0.5754,0.5846,0.5978,0.6026,0.6051,0.6152,0.6063,0.6022,0.5944,0.5944,0.5867,0.5628,0.555,0.5473,0.5315,0.5165,0.5012,0.5012,0.4851,0.4696,0.4543,0.4622,0.0,0.0,0.0,0.0,0.539,0.5398,0.5328,0.5277,0.528,0.528,0.528,0.5191,0.5102,0.4928,0.4928,0.4837,0.4565,0.4623,0.4696,0.4603,0.4333,0.4034,0.3688,0.3553,0.328,0.3028,0.3028,0.2943,0.2863,0.2905,0.2579,0.2239,0.2272,0.2548,0.28,0.3145,0.3112,0.2854,0.2833,0.2493,0.2158,0.2141,0.2137,0.2137,0.2137,0.2137,0.2137,0.2137,0.2033,0.2011,0.2092,0.1828,0.1493,0.11,0.0864,0.0628,0.0471,0.055,0.0632,0.0561,0.0476,0.0314,0.0079,0.0471,0.0628,0.0079,-0.0234,-0.0308,-0.0,-0.0522,-0.044,0.0504,0.0211,0.0069,0.0346,0.0817,0.1079,0.1079,0.1096,0.1106,0.1106,0.1125,0.1141,0.1151,0.1151,0.1156,0.1167,0.1187,0.1196,0.5549,0.5627,0.5722,0.5892,0.5839,0.5749,0.5767,0.5634,0.5479,0.5401,0.5323,0.5246,0.501,0.4932,0.4854,0.4696,0.4543,0.4389,0.4389,0.4231,0.3995,0.3919,0.384,0.3779,0.0,0.0,0.0,0.4739,0.4743,0.4743,0.4743,0.4743,0.4743,0.4743,0.4654,0.4565,0.4389,0.421,0.4032,0.3762,0.3762,0.3762,0.376,0.3536,0.3426,0.3249,0.3033,0.2758,0.2498,0.2498,0.2498,0.2415,0.2274,0.1934,0.1584,0.1606,0.1525,0.1519,0.2087,0.2067,0.1892,0.1962,0.1616,0.1189,0.118,0.1177,0.1177,0.1346,0.1261,0.1177,0.1177,0.1165,0.1154,0.1154,0.0978,0.0645,0.0242,-0.0161,-0.0564,-0.0725,-0.0725,-0.0728,-0.0575,-0.0651,-0.0804,-0.1036,-0.0875,-0.0555,-0.0236,-0.0393,-0.0469,-0.0615,-0.099,-0.0902,0.0074,-0.0144,-0.0284,-0.0142,0.035,0.0763,0.0902,0.0916,0.0995,0.1137,0.1156,0.1172,0.1183,0.1183,0.1188,0.1199,0.1219,0.1228,0.5555,0.5698,0.5765,0.5696,0.5762,0.5786,0.5637,0.5401,0.5243,0.5004,0.4774,0.4621,0.0,0.0,0.4079,0.4079,0.3843,0.3763,0.3763,0.3606,0.3448,0.0,0.0,0.0,0.0,0.0,0.0,0.4121,0.0,0.43,0.421,0.421,0.421,0.421,0.3939,0.3849,0.3849,0.3405,0.3048,0.2868,0.2868,0.2868,0.2868,0.2868,0.2869,0.2873,0.2873,0.2603,0.2154,0.2064,0.2064,0.2064,0.1525,0.1076,0.0628,0.0628,0.0269,0.0,0.0628,0.0628,0.0447,0.07,0.0435,-0.0087,-0.017,-0.0169,-0.0169,0.0169,0.0,-0.0169,-0.0169,-0.0253,-0.0253,-0.0253,-0.0253,-0.0337,-0.0758,-0.1179,-0.1601,-0.2107,-0.2106,-0.1937,-0.1432,-0.1771,-0.2094,-0.1965,-0.1955,-0.1614,-0.0788,-0.1021,-0.1415,-0.165,-0.1463,-0.129,-0.1442,-0.1112,-0.073,-0.0438,-0.0219,0.0073,0.0437,0.0438,0.0657,0.1096,0.117,0.1185,0.1138,0.1138,0.1229,0.1335,0.1335,0.1335,0.5677,0.5633,0.5653,0.5822,0.5681,0.5398,0.5162,0.501,0.4776,0.4389,0.4311,0.4155,0.0,0.0,0.0,0.3376,0.3217,0.0,0.3059,0.2901,0.0,0.2586,0.0,0.2439,0.227,0.2362,0.0,0.0,0.3406,0.3674,0.3494,0.3494,0.3405,0.3224,0.3224,0.3047,0.2871,0.2691,0.2602,0.2512,0.2422,0.2422,0.2332,0.2242,0.2242,0.2334,0.2243,0.1705,0.1076,0.0718,0.0538,0.0538,0.0448,0.009,-0.0359,-0.0718,-0.0897,-0.1076,-0.1436,-0.0987,-0.0269,-0.0713,-0.089,-0.1155,-0.1503,-0.1678,-0.1678,-0.159,-0.159,-0.1678,-0.1678,-0.192,-0.2156,-0.2156,-0.2215,-0.2188,-0.2356,-0.2609,-0.2863,-0.2949,-0.2645,-0.2316,-0.194,-0.2133,-0.2398,-0.2261,-0.2385,-0.2178,-0.1656,-0.165,-0.1807,-0.1808,-0.1876,-0.1713,-0.1402,-0.1217,-0.1125,-0.105,-0.0663,-0.0437,-0.0291,-0.0,0.015,0.03,0.0611,0.0773,0.0778,0.0778,0.0937,0.1335,0.1335,0.1335,0.5654,0.5591,0.5517,0.564,0.5395,0.5085,0.4929,0.4543,0.4219,0.3945,0.3705,0.3463,0.3195,0.3039,0.0,0.0,0.0,0.0,0.2431,0.2356,0.2277,0.0,0.2128,0.0,0.202,0.1926,0.1884,0.0,0.2512,0.296,0.278,0.278,0.278,0.269,0.2601,0.2511,0.2334,0.2243,0.1974,0.1615,0.1794,0.1705,0.1525,0.1436,0.1345,0.1256,0.0,0.0718,0.009,-0.0448,-0.0718,-0.0987,-0.0987,-0.1256,-0.1705,-0.1974,-0.2153,-0.2332,-0.2691,-0.2332,-0.1703,-0.1794,-0.1973,-0.2152,-0.2691,-0.2781,-0.2601,-0.2689,-0.2777,-0.2868,-0.2871,-0.3022,-0.3171,-0.3084,-0.3143,-0.32,-0.32,-0.329,-0.3464,-0.3464,-0.306,-0.2809,-0.2775,-0.2884,-0.2974,-0.2909,-0.3013,-0.2945,-0.2559,-0.2292,-0.22,-0.2278,-0.22,-0.2042,-0.1806,-0.1551,-0.1386,-0.1309,-0.1063,-0.0904,-0.0904,-0.0688,-0.0385,-0.0,0.0078,-0.0,-0.0236,0.0157,0.0471,0.0707,0.0943,0.1021,0.5419,0.5421,0.5337,0.5287,0.5035,0.4881,0.4575,0.4112,0.3703,0.3549,0.3085,0.2692,0.2633,0.2332,0.213,0.2175,0.0,0.1832,0.1872,0.1961,0.1965,0.1808,0.1717,0.168,0.1769,0.1397,0.1163,0.1166,0.1615,0.1974,0.2154,0.2334,0.2244,0.2064,0.1974,0.1974,0.1974,0.1885,0.1436,0.0628,0.0897,0.0807,0.0538,0.0538,0.0269,-0.0179,-0.0179,-0.0448,-0.0897,-0.1436,-0.1885,-0.2334,-0.2243,-0.2513,-0.2873,-0.2963,-0.3051,-0.3317,-0.3406,-0.3406,-0.3317,-0.2691,-0.278,-0.3136,-0.3676,-0.3585,-0.3403,-0.34,-0.3578,-0.3758,-0.3855,-0.3851,-0.3758,-0.3494,-0.3671,-0.3846,-0.3846,-0.3851,-0.3855,-0.3765,-0.3585,-0.3494,-0.3674,-0.3765,-0.3742,-0.376,-0.3852,-0.3766,-0.3516,-0.295,-0.2668,-0.2826,-0.2511,-0.2353,-0.2511,-0.2042,-0.1572,-0.1414,-0.1415,-0.1336,-0.1335,-0.1335,-0.0943,-0.0157,-0.0471,-0.0864,-0.1335,-0.055,-0.0079,0.0,0.0393,0.0471,0.5155,0.4993,0.4821,0.4826,0.4638,0.4342,0.3829,0.3609,0.0,0.0,0.2564,0.2342,0.2042,0.197,0.2046,0.2054,0.1943,0.1897,0.1906,0.163,0.1178,0.0,0.0322,0.033,0.0336,0.0258,0.0,0.0,0.0,0.0718,0.2154,0.2243,0.1705,0.0448,0.0628,0.0807,0.0807,0.1256,0.0987,0.009,-0.0538,-0.0718,-0.0448,-0.0359,-0.0628,-0.1166,-0.0897,0.0,-0.1974,-0.2424,-0.2694,-0.2784,-0.2513,-0.2602,-0.2959,-0.3048,-0.3138,-0.3315,-0.4204,-0.4476,-0.4302,-0.3406,-0.3405,-0.376,-0.3849,-0.4117,-0.4383,-0.4208,-0.4474,-0.4652,-0.43,-0.4476,-0.4741,-0.4741,-0.4921,-0.5099,-0.5275,-0.5188,-0.5015,-0.4572,-0.4567,-0.4652,-0.4561,-0.4652,-0.4828,-0.5078,-0.4812,-0.4626,-0.4437,-0.3782,-0.3214,-0.3061,-0.2982,-0.2904,-0.2747,-0.2354,-0.2118,-0.204,-0.1885,-0.1729,-0.1572,-0.1415,-0.1257,-0.11,-0.0786,-0.0864,-0.1335,-0.1178,-0.0707,0.0,0.0079,-0.0314,0.478,0.468,0.4571,0.4408,0.4145,0.3851,0.3561,0.0,0.0,0.0,0.2142,0.1919,0.1613,0.1541,0.0,0.1283,0.1168,0.1119,0.0907,0.0773,0.0471,0.0079,-0.0562,-0.0986,0.0,-0.1116,-0.1227,-0.1343,0.0,-0.0987,0.0718,0.0807,0.0359,-0.0718,-0.0538,-0.0359,-0.009,0.0269,0.0,-0.0718,-0.1076,-0.1256,-0.1436,-0.1436,-0.1705,-0.2154,-0.2064,0.0,-0.278,-0.296,-0.3229,-0.3406,-0.3317,-0.3496,-0.3851,-0.403,-0.4295,-0.4563,-0.5186,-0.563,-0.5719,-0.527,-0.5006,-0.483,-0.501,-0.5186,-0.5455,-0.5544,-0.5725,-0.5902,-0.5628,-0.5808,-0.6074,-0.5983,-0.6074,-0.6254,-0.6248,-0.6163,-0.5985,-0.5633,-0.5547,-0.5547,-0.5455,-0.563,-0.5722,-0.5727,-0.5799,-0.5675,-0.5296,-0.4885,-0.4365,-0.3534,-0.3374,-0.3294,-0.3137,-0.2744,-0.2431,-0.2353,-0.2198,-0.1963,-0.1729,-0.165,-0.1572,-0.1493,-0.1257,-0.1257,-0.1493,-0.1336,-0.11,-0.0707,-0.0393,-0.055,0.4406,0.4293,0.4248,0.3987,0.3648,0.3289,0.3218,0.272,0.0,0.2163,0.1807,0.1519,0.1284,0.1145,0.0951,0.0,0.0284,0.0073,-0.0075,-0.0307,-0.0391,0.0,-0.1278,0.0,-0.2087,-0.2217,0.0,0.0,0.0,0.0,-0.0897,-0.0807,-0.1076,-0.1615,-0.1525,-0.1345,-0.0987,-0.0897,-0.1166,-0.1705,-0.1525,-0.1705,-0.2244,-0.2333,-0.2512,-0.2873,-0.2963,0.0,0.0,-0.3496,-0.3851,-0.4295,-0.4295,-0.4565,-0.5104,-0.5277,-0.563,-0.5985,-0.6432,-0.6786,-0.7041,-0.7217,-0.6688,-0.6163,-0.6346,-0.6438,-0.6526,-0.6877,-0.6969,-0.6966,-0.7044,-0.7136,-0.7136,-0.7132,-0.7224,-0.7404,-0.7132,-0.7132,-0.7044,-0.6782,-0.6609,-0.6523,-0.6435,-0.6609,-0.6609,-0.6526,-0.6695,-0.6573,-0.6005,-0.5955,-0.55,-0.4193,-0.3929,-0.3761,-0.3682,-0.3294,-0.2981,-0.2824,-0.2588,-0.2354,-0.2199,-0.2043,-0.1964,-0.1807,-0.1728,-0.1729,-0.1729,-0.1493,-0.1415,-0.1415,-0.1021,-0.0864,0.3837,0.3708,0.3511,0.3318,0.3046,0.2708,0.2372,0.0,0.1829,0.1554,0.1418,0.1215,0.0674,0.0877,0.0877,0.0135,0.0,-0.0852,-0.0583,-0.1197,-0.1687,-0.1568,0.0,0.0,-0.2196,-0.2331,0.0,0.0,0.0,0.0,-0.2064,-0.1884,-0.1974,-0.2334,-0.1974,-0.1794,-0.1794,-0.1974,-0.2244,-0.2784,-0.2694,-0.2604,-0.2513,-0.269,-0.2868,-0.2868,-0.3138,0.0,0.0,-0.448,-0.4924,-0.5542,-0.5542,-0.5808,-0.6251,-0.6514,-0.6688,-0.6868,-0.7669,-0.7841,-0.7834,-0.8452,-0.8101,-0.7312,-0.7401,-0.7492,-0.7672,-0.7661,-0.7573,-0.7489,-0.7658,-0.7573,-0.7577,-0.7933,-0.8285,-0.8372,-0.8109,-0.8109,-0.8021,-0.7746,-0.7841,-0.7937,-0.7676,-0.7672,-0.7676,-0.7764,-0.7309,-0.6981,-0.6662,-0.6266,-0.58,-0.5184,-0.476,-0.4543,-0.4307,-0.3919,-0.3765,-0.3923,-0.3376,-0.2982,-0.2976,-0.2666,-0.2354,-0.2196,-0.2118,-0.2041,-0.1887,-0.1887,-0.1807,-0.165,-0.165,-0.1729,0.3478,0.336,0.3228,0.2825,0.2555,0.2354,0.2085,0.0,0.1547,0.1412,0.1279,0.101,0.0337,-0.0,-0.027,0.0,0.0,0.0,-0.1162,-0.1491,-0.1758,-0.1957,-0.2199,0.0,0.0,0.0,0.0,0.0,0.0,0.0,-0.3496,-0.2868,-0.2599,-0.269,-0.2599,-0.251,-0.251,-0.269,-0.2869,-0.305,-0.323,-0.323,-0.3141,-0.3405,-0.3673,-0.4032,-0.4383,0.0,0.0,-0.5808,-0.6251,-0.6779,-0.6779,-0.6956,-0.7309,-0.7577,-0.7837,-0.8101,-0.864,-0.9074,-0.9327,-0.9506,-0.9589,-0.941,-0.8627,-0.8281,-0.8376,-0.8636,-0.8723,-0.8807,-0.924,-0.9152,-0.8982,-0.8986,-0.899,-0.899,-0.9078,-0.9078,-0.9074,-0.9157,-0.9074,-0.899,-0.8903,-0.8815,-0.8732,-0.8732,-0.8552,-0.8313,-0.7967,-0.7631,-0.7192,-0.6617,-0.5515,-0.4851,-0.4771,-0.4616,-0.454,-0.4467,-0.4075,-0.3839,-0.3679,-0.3446,-0.3215,-0.3136,-0.2899,-0.2665,-0.2588,-0.2354,-0.2199,-0.2199,-0.2231,-0.2327,0.3099,0.2922,0.2795,0.2418,0.2154,0.1884,0.0,0.0,0.1279,0.1279,0.101,0.0539,-0.0202,-0.0742,-0.1011,0.0,0.0,-0.1331,-0.1669,-0.1778,-0.197,0.0,0.0,-0.2843,0.0,0.0,0.0,0.0,0.0,0.0,-0.4656,-0.4028,-0.3582,-0.3315,-0.3224,-0.3224,-0.3315,-0.3492,-0.3673,-0.3762,-0.4032,-0.4121,-0.421,-0.4474,-0.4743,-0.5013,-0.5539,0.0,0.0,-0.6956,-0.7397,-0.7933,-0.8021,-0.8193,-0.836,-0.8807,-0.9157,-0.9414,-0.9772,-1.0207,-1.0636,-1.0554,-1.0895,-1.1068,-1.0106,-0.9589,-0.9419,-0.9772,-1.0033,-1.012,-1.0376,-1.0381,-1.0289,-1.0033,-0.9946,-0.9951,-1.0033,-1.012,-1.012,-1.0299,-1.012,-0.9946,-0.9859,-0.9777,-0.9602,-0.9432,-0.9432,-0.9296,-0.8815,-0.8577,-0.832,-0.7689,-0.6606,-0.5823,-0.5586,-0.551,-0.551,-0.5357,-0.5034,-0.4793,-0.4713,-0.4398,-0.4161,-0.4161,-0.3838,-0.3599,-0.3517,-0.312,-0.2962,-0.2962,-0.3013,-0.313,0.2562,0.2388,0.2144,0.2206,0.1749,0.1344,0.0,0.0,0.1079,0.1079,0.0539,-0.0202,-0.0944,-0.1079,-0.1146,-0.1345,0.0,0.0,-0.2028,-0.2258,-0.2523,0.0,0.0,-0.3526,0.0,0.0,0.0,0.0,0.0,0.0,-0.5371,-0.5544,-0.5275,-0.43,-0.4028,-0.4028,-0.43,-0.4563,-0.4828,-0.5008,-0.528,-0.5458,-0.5719,-0.5991,-0.5902,-0.5719,0.0,0.0,0.0,-0.7573,-0.8193,-0.8911,-0.9174,-0.9432,-0.9689,-1.0289,-1.0549,-1.0636,-1.1149,-1.1322,-1.1413,-1.1843,-1.1843,-1.1757,-1.1929,-1.1499,-1.0982,-1.1241,-1.1241,-1.1154,-1.0722,-1.0977,-1.1241,-1.1068,-1.1154,-1.1241,-1.1241,-1.1241,-1.1235,-1.1068,-1.0982,-1.0814,-1.0381,-1.0463,-1.0376,-0.9689,-0.9772,-0.9685,-0.8995,-0.8914,-0.8793,-0.8369,-0.8122,-0.7683,-0.6864,-0.6781,-0.6781,-0.6781,-0.6194,-0.5862,-0.6031,-0.5446,-0.5111,-0.5111,-0.4866,-0.4699,-0.4446,-0.4191,-0.4107,-0.4107,-0.4107,-0.4244,0.2046,0.2,0.188,0.1711,0.1483,0.1309,0.1243,0.0,0.0337,0.0337,-0.0,-0.0539,-0.1212,-0.1279,-0.1346,-0.148,-0.1681,0.0,0.0,0.0,0.0,-0.3431,-0.3997,0.0,0.0,0.0,0.0,0.0,0.0,0.0,-0.6349,-0.6697,-0.6517,-0.5547,-0.545,-0.5625,-0.5983,-0.6071,-0.6157,-0.6248,-0.6428,-0.6517,-0.6425,-0.6871,-0.7221,0.0,0.0,0.0,0.0,-0.9157,-0.9593,-1.012,-1.0381,-1.0727,-1.1068,-1.1241,-1.1585,-1.1843,-1.2015,-1.2272,-1.2534,-1.2534,-1.2619,-1.2875,-1.296,-1.2357,-1.1757,-1.2186,-1.2272,-1.2186,-1.21,-1.1929,-1.1757,-1.1671,-1.1671,-1.1671,-1.2015,-1.2015,-1.21,-1.2186,-1.202,-1.1929,-1.1757,-1.1499,-1.1241,-1.1068,-1.0809,-1.0554,-1.0381,-1.023,-1.0014,-0.9928,-0.9528,-0.8874,-0.7793,-0.7364,-0.7285,-0.7447,-0.6947,-0.6695,-0.6778,-0.645,-0.6284,-0.6284,-0.6031,-0.5868,-0.5618,-0.5363,-0.5152,-0.4889,-0.4889,-0.4949,0.0,0.1697,0.1581,0.1478,0.1253,0.0,0.0,0.0327,-0.0067,-0.0336,-0.0674,-0.0942,-0.1345,-0.148,-0.1614,-0.1817,-0.2103,0.0,0.0,0.0,0.0,-0.4288,0.0,0.0,0.0,0.0,0.0,0.0,0.0,0.0,-0.7146,-0.776,-0.7757,-0.7143,-0.6782,-0.6776,-0.7044,-0.7136,-0.7224,-0.7485,-0.7661,-0.7753,-0.7753,-0.8105,-0.8368,0.0,0.0,0.0,0.0,-1.0467,-1.0809,-1.1068,-1.1413,-1.1671,-1.202,-1.2277,-1.2448,-1.2693,-1.2849,-1.2981,-1.3136,-1.3016,-1.3304,-1.3734,-1.3908,-1.338,-1.2863,-1.3124,-1.313,-1.3021,-1.2837,-1.2711,-1.2589,-1.2487,-1.2541,-1.2705,-1.2954,-1.3039,-1.3045,-1.3045,-1.296,-1.279,-1.2619,-1.2448,-1.2192,-1.1843,-1.1671,-1.1413,-1.1068,-1.0982,-1.0982,-1.0809,-1.0463,-1.001,-0.9242,-0.856,-0.8227,-0.8476,-0.8054,-0.7801,-0.7801,-0.7547,-0.7462,-0.7292,-0.7204,-0.6946,-0.661,-0.6354,-0.6055,-0.5959,-0.5959,-0.6002,0.0,0.1411,0.1242,0.1402,0.0984,0.0372,0.0,-0.0064,0.0,-0.1003,-0.1277,-0.1412,-0.148,-0.1681,-0.2018,-0.2221,-0.2615,0.0,0.0,-0.4017,0.0,0.0,0.0,0.0,0.0,0.0,0.0,0.0,0.0,0.0,-0.794,-0.8644,-0.8999,-0.9087,-0.8197,-0.7749,-0.7661,-0.7845,-0.8197,-0.8632,-0.889,-0.9161,-0.9432,-0.9602,-0.9602,0.0,0.0,0.0,0.0,-1.1327,-1.1757,-1.1843,-1.226,-1.2431,-1.2619,-1.3197,-1.3366,-1.3243,-1.3569,-1.3546,-1.3398,-1.3426,-1.3846,-1.442,-1.4852,-1.4578,-1.4132,-1.4112,-1.3964,-1.3665,-1.3131,-1.3336,-1.3633,-1.3339,-1.3649,-1.4099,-1.4079,-1.4079,-1.3995,-1.3756,-1.3672,-1.3503,-1.3068,-1.3262,-1.3099,-1.2219,-1.2237,-1.2072,-1.1193,-1.1466,-1.1558,-1.1133,-1.1144,-1.1068,-1.1154,-1.0038,-0.9432,-0.9602,-0.9257,-0.8999,-0.8911,-0.8727,-0.8548,-0.8285,-0.8288,-0.8021,-0.7577,-0.7143,-0.6969,-0.7139,-0.7139,-0.7316,0.0963,0.0,0.0682,0.0974,0.0585,-0.0,0.0,0.0,-0.1101,-0.1303,0.0,-0.1614,-0.1951,-0.2087,-0.2287,-0.2757,-0.3096,-0.3464,-0.3916,0.0,0.0,0.0,0.0,0.0,0.0,0.0,0.0,0.0,0.0,-0.9253,-0.9165,-0.9859,-1.0289,-1.0467,-1.0284,-0.9937,-0.9423,-0.9423,-0.9598,-0.9854,-0.9941,-1.0115,-1.0289,-1.0549,-1.0814,0.0,0.0,0.0,-1.1929,-1.1929,-1.2272,-1.2772,-1.2822,-1.3123,-1.3711,-1.3725,-1.3974,-1.4302,-1.4314,-1.4292,-1.4159,-1.4316,-1.4565,-1.4911,-1.542,-1.5145,-1.4518,-1.4536,-1.4386,-1.4162,-1.394,-1.3831,-1.3811,-1.3833,-1.3812,-1.3874,-1.4034,-1.3954,-1.3874,-1.3794,-1.3627,-1.346,-1.33,-1.3418,-1.3339,-1.2706,-1.2688,-1.2579,-1.1962,-1.2194,-1.232,-1.2236,-1.2161,-1.2192,-1.2619,-1.0901,-0.9951,-1.012,-0.9864,-0.9689,-0.9428,-0.9428,-0.9253,-0.9082,-0.8819,-0.864,-0.8372,-0.8021,-0.7669,-0.7401,-0.758,-0.7584,0.028,0.028,0.0168,0.0112,-0.0057,-0.0347,-0.094,0.0,0.0,0.0,0.0,0.0,0.0,0.0,0.0,0.0,-0.3783,0.0,0.0,0.0,0.0,0.0,0.0,0.0,0.0,0.0,0.0,0.0,0.0,-1.012,-1.0376,-1.0809,-1.1241,-1.1413,-1.1585,-1.1327,-1.0814,-1.0641,-1.0809,-1.1241,-1.1327,-1.1499,-1.1585,-1.1929,-1.2186,0.0,0.0,0.0,-1.3209,-1.3209,-1.3464,-1.388,-1.3964,-1.4261,-1.4566,-1.4545,-1.4717,-1.4904,-1.4837,-1.4632,-1.4562,-1.4934,-1.5132,-1.5323,-1.575,-1.5575,-1.5189,-1.5102,-1.4969,-1.4828,-1.4439,-1.4424,-1.4532,-1.4528,-1.4488,-1.4435,-1.4599,-1.4521,-1.4358,-1.4358,-1.413,-1.3974,-1.3888,-1.3957,-1.378,-1.3134,-1.316,-1.3039,-1.2418,-1.2725,-1.2978,-1.2725,-1.2689,-1.2825,-1.3215,-1.164,-1.0763,-1.0971,-1.0554,-1.0294,-1.012,-1.012,-1.0038,-0.9951,-0.9607,-0.9428,-0.9423,-0.8903,-0.864,-0.8456,-0.8376,-0.8288,-0.0505,-0.0336,-0.0336,-0.0842,-0.0729,-0.0678,-0.1221,0.0,0.0,0.0,0.0,0.0,0.0,0.0,0.0,0.0,0.0,0.0,0.0,0.0,0.0,0.0,0.0,0.0,0.0,0.0,0.0,0.0,0.0,-1.1068,-1.1499,-1.1757,-1.21,-1.2272,-1.2528,-1.2528,-1.2186,-1.1752,-1.1929,-1.2613,-1.2705,-1.2875,-1.296,-1.3307,-1.3392,-1.3215,0.0,0.0,-1.4314,-1.4566,-1.4713,-1.4754,-1.5245,-1.5328,-1.5177,-1.5411,-1.5472,-1.5427,-1.5327,-1.5072,-1.484,-1.556,-1.5643,-1.5536,-1.5961,-1.6038,-1.5964,-1.5732,-1.5612,-1.5426,-1.4865,-1.4994,-1.5286,-1.5173,-1.5158,-1.5226,-1.5226,-1.5065,-1.4904,-1.4904,-1.4766,-1.4543,-1.4381,-1.4425,-1.42,-1.3514,-1.3627,-1.3485,-1.2667,-1.316,-1.3419,-1.3007,-1.2964,-1.3086,-1.3413,-1.2337,-1.17,-1.1878,-1.1225,-1.0813,-1.0763,-1.0794,-1.0814,-1.0814,-1.0381,-1.0212,-1.0381,-0.9777,-0.9519,-0.9602,-0.9257,-0.917,-0.1122,-0.1066,-0.1066,-0.1178,-0.1178,-0.1124,-0.1413,0.0,0.0,0.0,0.0,0.0,0.0,0.0,0.0,0.0,0.0,0.0,0.0,0.0,0.0,0.0,0.0,0.0,0.0,0.0,0.0,0.0,0.0,-1.2186,-1.2448,-1.2875,-1.3313,-1.3743,-1.3808,-1.3971,-1.4223,-1.3209,-1.3039,-1.3535,-1.3385,-1.347,-1.3886,-1.3971,-1.4055,-1.423,0.0,-1.4573,-1.4915,-1.4741,-1.4752,-1.4932,-1.541,-1.5403,-1.5234,-1.5878,-1.6246,-1.6537,-1.6639,-1.611,-1.5421,-1.5878,-1.5777,-1.5568,-1.6096,-1.6224,-1.6209,-1.6195,-1.6062,-1.5819,-1.5559,-1.5568,-1.5593,-1.5225,-1.5049,-1.4953,-1.4953,-1.4735,-1.4509,-1.4509,-1.4363,-1.4217,-1.4137,-1.4454,-1.4471,-1.3601,-1.3932,-1.3855,-1.2926,-1.3306,-1.3502,-1.3264,-1.325,-1.3419,-1.3712,-1.2763,-1.2277,-1.2599,-1.1711,-1.1155,-1.1193,-1.1225,-1.1241,-1.1241,-1.0982,-1.0895,-1.0895,-1.0549,-1.0202,-0.9859,-0.9864,-0.9607,-0.129,-0.1347,-0.1459,-0.1572,-0.1515,-0.1459,-0.1628,0.0,0.0,0.0,0.0,0.0,0.0,0.0,0.0,0.0,0.0,0.0,0.0,0.0,0.0,0.0,0.0,0.0,0.0,0.0,0.0,0.0,0.0,0.0,-1.3717,-1.3893,-1.4237,-1.4741,-1.4817,-1.4985,-1.5409,-1.5061,-1.472,-1.4482,-1.4475,-1.4734,-1.5159,-1.5311,-1.5477,-1.565,0.0,-1.5974,-1.6327,-1.6304,-1.6374,-1.6484,-1.6887,-1.6959,-1.6758,-1.7142,-1.7166,-1.7192,-1.7415,-1.6993,-1.6473,-1.6865,-1.6731,-1.6482,-1.6856,-1.6767,-1.6643,-1.6856,-1.6603,-1.6211,-1.6058,-1.6036,-1.5994,-1.5814,-1.5576,-1.5371,-1.5221,-1.4999,-1.4784,-1.4721,-1.4577,-1.4497,-1.4281,-1.4558,-1.4613,-1.3812,-1.4122,-1.4159,-1.336,-1.3837,-1.4111,-1.3877,-1.3856,-1.4014,-1.4279,-1.3054,-1.2228,-1.2295,-1.1966,-1.1776,-1.1638,-1.1674,-1.1714,-1.1682,-1.1464,-1.1373,-1.151,-1.1332,-1.0982,-1.0636,-1.0722,-1.0554,-0.1458,-0.157,-0.174,-0.1908,0.0,-0.174,-0.1908,0.0,0.0,0.0,0.0,0.0,0.0,0.0,0.0,0.0,0.0,0.0,0.0,0.0,0.0,0.0,0.0,0.0,0.0,0.0,0.0,0.0,0.0,0.0,-1.4901,-1.4977,-1.5144,-1.5643,-1.5809,-1.5982,-1.6327,-1.6558,-1.6312,-1.5582,-1.565,-1.5982,-1.6417,-1.6566,-1.6722,-1.6976,-1.7123,-1.7367,-1.7627,-1.7781,-1.7802,-1.7806,-1.8301,-1.8487,-1.8443,-1.8476,-1.8186,-1.792,-1.8273,-1.7999,-1.7597,-1.7961,-1.7796,-1.736,-1.7639,-1.7426,-1.7232,-1.7506,-1.7279,-1.691,-1.6589,-1.6482,-1.6412,-1.6412,-1.6211,-1.5929,-1.578,-1.563,-1.5417,-1.5221,-1.5078,-1.4935,-1.4721,-1.4864,-1.4792,-1.408,-1.4361,-1.4425,-1.371,-1.4286,-1.4661,-1.4364,-1.429,-1.4253,-1.4285,-1.3173,-1.2342,-1.2089,-1.2296,-1.2288,-1.1956,-1.2104,-1.2183,-1.2287,-1.2003,-1.2105,-1.246,-1.2277,-1.2015,-1.1666,-1.1671,-1.1499,-0.1903,-0.1959,-0.2071,-0.2354,0.0,0.0,-0.2354,-0.2588,0.0,0.0,0.0,0.0,0.0,0.0,0.0,0.0,0.0,0.0,0.0,0.0,0.0,0.0,0.0,0.0,0.0,0.0,0.0,0.0,0.0,0.0,-1.5567,-1.6214,-1.646,-1.6312,-1.6952,-1.7115,-1.696,-1.7196,-1.7196,-1.6976,-1.673,-1.6812,-1.731,-1.731,-1.7465,-1.7619,-1.7844,-1.8006,-1.8264,-1.8264,-1.8197,-1.8133,-1.891,-1.945,-1.9737,-1.9562,-1.9378,-1.9231,-1.9637,-1.9183,-1.8443,-1.8892,-1.8406,-1.7844,-1.8209,-1.819,-1.7953,-1.7722,-1.7834,-1.784,-1.7269,-1.6968,-1.6839,-1.6839,-1.6691,-1.6542,-1.6533,-1.6333,-1.6202,-1.6061,-1.5709,-1.5426,-1.5426,-1.5434,-1.5284,-1.4641,-1.4721,-1.4649,-1.4129,-1.4369,-1.4537,-1.4392,-1.4248,-1.3812,-1.311,-1.3075,-1.3068,-1.2815,-1.2797,-1.2582,-1.2131,-1.2536,-1.2885,-1.3175,-1.2902,-1.3188,-1.3971,-1.3639,-1.3307,-1.2875,-1.2705,-1.2357,-0.224,-0.2352,-0.2464,-0.2685,0.0,0.0,0.0,0.0,0.0,0.0,0.0,0.0,0.0,0.0,0.0,0.0,0.0,0.0,0.0,0.0,0.0,0.0,0.0,0.0,0.0,0.0,0.0,0.0,0.0,0.0,-1.673,-1.7131,-1.7367,-1.761,-1.8014,-1.8256,-1.8264,-1.8496,-1.8576,-1.8496,-1.77,-1.7619,-1.8184,-1.8184,-1.8425,-1.8736,-1.9054,-1.9213,-1.9301,-1.9608,-1.9672,-1.9695,-2.01,-2.0479,-2.0712,-2.0469,-2.0283,-2.0112,-2.0117,-1.971,-1.9195,-1.917,-1.901,-1.8951,-1.8879,-1.8961,-1.8932,-1.8634,-1.8437,-1.8254,-1.7684,-1.7382,-1.7254,-1.7254,-1.7107,-1.6959,-1.683,-1.676,-1.6621,-1.6473,-1.6263,-1.6123,-1.5921,-1.5921,-1.578,-1.5062,-1.5141,-1.507,-1.4489,-1.4991,-1.5204,-1.4792,-1.4856,-1.4633,-1.3695,-1.392,-1.3848,-1.3346,-1.3514,-1.348,-1.3182,-1.3698,-1.4001,-1.4144,-1.3803,-1.385,-1.4482,-1.4398,-1.4062,-1.3717,-1.3633,-1.3294,-0.2631,-0.28,-0.2968,0.0,0.0,0.0,0.0,0.0,0.0,0.0,0.0,0.0,0.0,0.0,0.0,0.0,0.0,0.0,0.0,0.0,0.0,0.0,0.0,0.0,0.0,0.0,0.0,0.0,0.0,0.0,0.0,-1.8023,-1.8336,-1.8585,-1.8984,-1.9231,-1.9311,-1.9469,-1.9618,-1.9696,-1.8895,-1.8736,-1.9063,-1.9063,-1.9301,-1.9696,-2.0177,-2.0333,-2.0342,-2.0799,-2.0954,-2.0954,-2.1021,-2.1185,-2.1359,-2.1108,-2.0913,-2.07,-2.0466,-2.0256,-2.0018,-1.9941,-1.9941,-1.9919,-1.9703,-1.9675,-1.9544,-1.9069,-1.884,-1.8685,-1.8096,-1.7821,-1.77,-1.7636,-1.7555,-1.7404,-1.7204,-1.7176,-1.7107,-1.689,-1.6821,-1.6718,-1.6572,-1.659,-1.6493,-1.5969,-1.6058,-1.5914,-1.5341,-1.5841,-1.6058,-1.5495,-1.5777,-1.5574,-1.4509,-1.4655,-1.4543,-1.3863,-1.4359,-1.4429,-1.3903,-1.4337,-1.4736,-1.4911,-1.4448,-1.4579,-1.5159,-1.5159,-1.4901,-1.4475,-1.4475,-1.4223,-0.3074,-0.3244,-0.3413,0.0,0.0,0.0,0.0,0.0,0.0,0.0,0.0,0.0,0.0,0.0,0.0,0.0,0.0,0.0,0.0,0.0,0.0,0.0,0.0,0.0,0.0,0.0,0.0,0.0,0.0,0.0,0.0,-1.9054,-1.9301,-1.9301,-1.9942,-2.0186,-1.9942,-2.0186,-2.042,-2.0644,-2.042,-2.0186,-1.9942,-1.9942,-2.0177,-2.0644,-2.1041,-2.1205,-2.1205,-2.1655,-2.1807,-2.1807,-2.1578,-2.1655,-2.1731,-2.1359,-2.1141,-2.104,-2.0892,-2.0966,-2.1104,-2.1314,-2.1083,-2.0694,-2.0705,-2.024,-1.9586,-1.9008,-1.9008,-1.9123,-1.8602,-1.832,-1.8113,-1.8037,-1.8052,-1.8024,-1.7734,-1.7706,-1.7647,-1.7529,-1.7314,-1.7297,-1.7493,-1.7495,-1.7488,-1.7309,-1.7428,-1.7353,-1.6767,-1.707,-1.7145,-1.6767,-1.6817,-1.643,-1.533,-1.5231,-1.508,-1.4665,-1.5397,-1.529,-1.4096,-1.4411,-1.4805,-1.5313,-1.4997,-1.5242,-1.6079,-1.6079,-1.5824,-1.5387,-1.5394,-1.5151,-0.3574,-0.363,0.0,-0.3858,0.0,0.0,0.0,0.0,0.0,0.0,0.0,0.0,0.0,0.0,0.0,0.0,0.0,0.0,0.0,0.0,0.0,0.0,0.0,0.0,0.0,0.0,0.0,0.0,0.0,0.0,0.0,-1.9854,-2.0245,-2.0245,-2.0654,-2.0964,-2.1041,-2.1118,-2.1272,-2.1415,-2.1339,-2.1195,-2.0809,-2.0809,-2.1041,-2.1492,-2.1721,-2.1873,-2.2025,-2.2327,-2.2402,-2.2402,-2.2176,-2.2176,-2.2176,-2.2111,-2.2017,-2.1881,-2.1167,-2.1018,-2.0955,-2.0558,-2.0359,-2.0219,-2.0503,-2.038,-2.0122,-1.9777,-1.9614,-1.9438,-1.9055,-1.8861,-1.8665,-1.831,-1.8105,-1.8027,-1.7959,-1.793,-1.7862,-1.7872,-1.7725,-1.7643,-1.7859,-1.7934,-1.7849,-1.7674,-1.7737,-1.7812,-1.7719,-1.7578,-1.7578,-1.7644,-1.771,-1.7283,-1.6288,-1.6422,-1.6345,-1.5682,-1.6228,-1.6096,-1.5091,-1.5554,-1.5871,-1.6004,-1.5591,-1.5638,-1.625,-1.6341,-1.6204,-1.5955,-1.5703,-1.5658,-0.4073,-0.4128,0.0,-0.4245,-0.4463,0.0,0.0,0.0,0.0,0.0,0.0,0.0,0.0,0.0,0.0,0.0,0.0,0.0,0.0,0.0,0.0,0.0,0.0,0.0,0.0,0.0,0.0,0.0,0.0,0.0,0.0,-2.0566,-2.0876,-2.1185,-2.1349,-2.1578,-2.1873,-2.1883,-2.1949,-2.2176,-2.2252,-2.2252,-2.2101,-2.1807,-2.1873,-2.2176,-2.2478,-2.2777,-2.315,-2.315,-2.315,-2.315,-2.2927,-2.2852,-2.2777,-2.2703,-2.2584,-2.2388,-2.156,-2.149,-2.1495,-2.0952,-2.0711,-2.0765,-2.1021,-2.0741,-2.0334,-2.0298,-2.0035,-1.9594,-1.9432,-1.9213,-1.8871,-1.8474,-1.835,-1.836,-1.8251,-1.8212,-1.8212,-1.8212,-1.8135,-1.81,-1.839,-1.86,-1.8637,-1.8437,-1.8357,-1.8443,-1.8653,-1.8424,-1.8348,-1.8415,-1.8492,-1.8199,-1.7141,-1.7362,-1.7264,-1.6584,-1.7006,-1.6957,-1.6196,-1.6271,-1.6313,-1.637,-1.5859,-1.5924,-1.6525,-1.6575,-1.6604,-1.6661,-1.6382,-1.6312,-0.4519,0.0,0.0,-0.4743,-0.4849,0.0,0.0,0.0,0.0,0.0,0.0,0.0,0.0,0.0,0.0,0.0,0.0,0.0,0.0,0.0,0.0,0.0,0.0,0.0,0.0,0.0,0.0,0.0,0.0,0.0,0.0,-2.1108,-2.1405,-2.2101,-2.1959,-2.2101,-2.2478,-2.2478,-2.2628,-2.2777,-2.3001,-2.3298,-2.3666,-2.2916,-2.2692,-2.2916,-2.3287,-2.374,-2.4261,-2.4043,-2.397,-2.3959,-2.374,-2.3593,-2.3446,-2.3213,-2.301,-2.27,-2.214,-2.2262,-2.255,-2.1992,-2.1784,-2.1782,-2.1897,-2.1171,-2.0323,-2.0649,-2.0249,-1.9645,-1.9797,-1.9318,-1.8808,-1.8617,-1.8724,-1.8775,-1.8572,-1.8482,-1.8482,-1.8482,-1.8528,-1.8579,-1.8778,-1.9283,-1.9564,-1.9395,-1.9125,-1.9116,-1.9557,-1.9469,-1.9301,-1.9082,-1.9231,-1.9006,-1.7961,-1.8073,-1.7973,-1.7357,-1.7632,-1.7689,-1.7278,-1.6681,-1.6416,-1.6523,-1.5989,-1.6071,-1.6888,-1.6876,-1.7083,-1.7423,-1.7286,-1.7131,0.0,-0.4846,0.0,0.0,0.0,0.0,0.0,0.0,0.0,0.0,0.0,0.0,0.0,0.0,0.0,0.0,0.0,0.0,0.0,0.0,0.0,0.0,0.0,0.0,0.0,0.0,0.0,0.0,0.0,0.0,-2.1436,-2.1873,-2.2176,-2.2327,-2.2628,-2.2777,-2.2852,-2.315,-2.3446,0.0,-2.3824,-2.4032,-2.4311,-2.3936,-2.3998,-2.4276,-2.4504,-2.4659,-2.4576,-2.4731,-2.4659,-2.4504,-2.4504,-2.4432,-2.436,-2.436,-2.4218,-2.3996,-2.349,-2.3176,-2.2917,-2.1981,-2.1754,-2.1848,-2.1583,-2.1252,-2.0937,-2.1091,-2.0601,-1.9933,-1.9722,-1.9414,-1.9152,-1.9008,-1.8755,-1.8602,-1.8502,-1.8414,-1.8337,-1.8337,-1.8213,-1.8212,-1.8356,-1.9058,-1.9678,-2.0071,-1.9357,-1.9031,-1.9747,-1.9784,-1.9706,-1.9478,-1.9872,-1.9678,-1.8576,-1.8876,-1.8774,-1.8163,-1.8213,-1.8145,-1.7904,-1.7049,-1.6663,-1.6814,-1.6323,-1.643,-1.7166,-1.7329,-1.7587,-1.7909,-1.7726,-1.7781,0.0,0.0,0.0,-0.5508,0.0,0.0,0.0,0.0,0.0,0.0,0.0,0.0,0.0,0.0,0.0,0.0,0.0,0.0,0.0,0.0,0.0,0.0,0.0,0.0,0.0,0.0,0.0,0.0,0.0,-2.0933,-2.124,-2.1597,-2.2024,-2.2385,-2.2457,-2.2601,-2.2947,-2.3089,-2.3231,-2.3513,-2.3805,-2.4222,-2.4647,-2.472,-2.4945,-2.5312,-2.53,-2.537,-2.5499,-2.537,-2.537,-2.5429,-2.5229,-2.5158,-2.5229,-2.5158,-2.5099,-2.4957,-2.441,-2.4061,-2.3707,-2.2969,-2.2748,-2.2655,-2.2341,-2.1826,-2.1415,-2.1494,-2.0804,-2.0042,-2.0004,-1.9709,-1.9407,-1.9341,-1.9075,-1.8741,-1.8674,-1.8607,-1.8539,-1.8405,-1.8301,-1.8309,-1.8392,-1.8778,-1.9139,-1.9591,-1.8948,-1.8729,-1.9678,-1.9812,-1.9725,-1.9484,-2.0052,-1.9781,-1.8246,-1.9012,-1.9293,-1.857,-1.9121,-1.9371,-1.9222,-1.8648,-1.8119,-1.7651,-1.722,-1.7382,-1.8295,-1.8276,-1.8497,-1.8921,-1.8647,-1.8665,0.0,0.0,-0.5955,0.0,0.0,0.0,0.0,0.0,0.0,0.0,0.0,0.0,0.0,0.0,0.0,0.0,0.0,0.0,0.0,0.0,0.0,0.0,0.0,0.0,0.0,0.0,0.0,0.0,0.0,-2.0715,-2.115,-2.135,-2.1768,-2.2469,-2.2252,-2.2377,-2.2922,-2.2854,-2.2977,-2.3246,-2.3658,-2.421,-2.491,-2.5185,-2.5534,-2.5765,-2.5615,-2.5859,-2.6276,-2.5877,-2.5938,-2.6233,-2.5955,-2.5968,-2.605,-2.5898,-2.5816,-2.5673,-2.5139,-2.4881,-2.4612,-2.4143,-2.3954,-2.3822,-2.3296,-2.2702,-2.2134,-2.2029,-2.1127,-2.027,-2.0528,-2.0212,-1.9802,-1.9802,-1.9592,-1.9368,-1.8962,-1.8808,-1.8741,-1.8607,-1.8567,-1.8625,-1.8693,-1.851,-1.8458,-1.9049,-1.8507,-1.8481,-1.9647,-1.979,-1.9734,-1.9621,-2.0265,-1.9966,-1.8149,-1.9235,-1.9781,-1.9105,-2.0043,-2.0634,-2.0615,-2.0272,-1.9778,-1.9087,-1.848,-1.861,-1.9544,-1.9392,-1.9639,-2.0203,-1.9888,-1.9846,0.0,0.0,0.0,0.0,0.0,0.0,0.0,0.0,0.0,0.0,0.0,0.0,0.0,0.0,0.0,0.0,0.0,0.0,0.0,0.0,0.0,0.0,0.0,0.0,0.0,0.0,0.0,0.0,-2.0938,-2.1361,-2.1815,-2.2103,-2.2389,-2.2786,-2.3045,-2.3179,-2.3045,-2.3604,-2.3815,-2.3881,-2.4418,-2.4808,-2.5116,-2.5384,-2.5448,-2.5396,-2.5332,-2.5612,-2.5991,-2.5978,-2.627,-2.6658,-2.6807,-2.6807,-2.6875,-2.6807,-2.6577,-2.6277,-2.5881,-2.5627,-2.531,-2.4201,-2.4378,-2.485,-2.3792,-2.3584,-2.3584,-2.2965,-2.2104,-2.1363,-2.1085,-2.0742,-2.0442,-2.0442,-2.0632,-2.0553,-1.9491,-1.9019,-1.8808,-1.8741,-1.8522,-1.8546,-1.9282,-1.8508,-1.8199,-1.9387,-1.8677,-1.8581,-1.9954,-2.0127,-2.0276,-2.0661,-2.1078,-2.0991,-2.0023,-2.042,-2.0682,-2.0623,-2.075,-2.0934,-2.1088,-2.0643,-2.0748,-2.1318,-1.9954,-1.9487,-2.0157,-2.0062,-2.0615,-2.1669,-2.1432,-2.17,-0.681,0.0,0.0,0.0,0.0,0.0,0.0,0.0,0.0,0.0,0.0,0.0,0.0,0.0,0.0,0.0,0.0,0.0,0.0,0.0,0.0,0.0,0.0,0.0,0.0,0.0,0.0,0.0,-2.0571,-2.0974,-2.134,-2.167,-2.2062,-2.2567,-2.2783,-2.2911,-2.3089,-2.3303,-2.3492,-2.3804,-2.4285,-2.4589,-2.471,-2.5011,-2.5319,-2.5686,-2.5623,-2.5766,-2.6114,-2.5909,-2.6259,-2.6777,-2.6777,-2.7037,-2.7403,-2.7335,-2.6848,-2.6349,-2.6612,-2.6102,-2.5362,-2.5411,-2.5469,-2.5286,-2.4352,-2.3921,-2.3514,-2.2742,-2.2059,-2.1506,-2.1289,-2.1255,-2.1246,-2.1246,-2.1353,-2.1382,-2.0902,-2.0381,-1.9906,-1.9305,-1.871,-1.8464,-1.9005,-1.832,-1.8193,-1.9505,-1.8952,-1.9078,-2.0896,-2.102,-2.1018,-2.1223,-2.1793,-2.158,-2.0108,-2.0969,-2.138,-2.0898,-2.1566,-2.2004,-2.2231,-2.2004,-2.2155,-2.2628,-2.105,-2.0851,-2.2098,-2.1835,-2.2241,-2.3171,-2.3002,-2.295,0.0,0.0,0.0,0.0,0.0,0.0,0.0,0.0,0.0,0.0,0.0,0.0,0.0,0.0,0.0,0.0,0.0,0.0,0.0,0.0,0.0,0.0,0.0,0.0,0.0,0.0,0.0,0.0,-2.0518,-2.0839,-2.1221,-2.1514,-2.1939,-2.2506,-2.2641,-2.2896,-2.3198,-2.3198,-2.3378,-2.3793,-2.4176,-2.4408,-2.4465,-2.4721,-2.5204,-2.5868,-2.5625,-2.5765,-2.6081,-2.5823,-2.6166,-2.6821,-2.6667,-2.7101,-2.7669,-2.7262,-2.6987,-2.6778,-2.6878,-2.6455,-2.5862,-2.6357,-2.622,-2.5742,-2.5006,-2.4305,-2.3618,-2.2861,-2.2177,-2.1747,-2.1754,-2.1876,-2.2047,-2.2047,-2.2252,-2.2318,-2.1918,-2.149,-2.0973,-2.0205,-1.9517,-1.9213,-1.9484,-1.892,-1.8893,-1.999,-1.9554,-1.9849,-2.1656,-2.1763,-2.1659,-2.1776,-2.2402,-2.2179,-2.0459,-2.1468,-2.2029,-2.1375,-2.2275,-2.2927,-2.315,-2.315,-2.3298,-2.3519,-2.2231,-2.2182,-2.3384,-2.3078,-2.3324,-2.4189,-2.401,-2.387,0.0,0.0,0.0,0.0,0.0,0.0,0.0,0.0,0.0,0.0,0.0,0.0,0.0,0.0,0.0,0.0,0.0,0.0,0.0,0.0,0.0,0.0,0.0,0.0,0.0,0.0,0.0,0.0,-2.1273,-2.16,-2.2123,-2.2273,-2.2506,-2.2848,-2.333,-2.3569,-2.3569,-2.3897,-2.4118,-2.4292,-2.4408,-2.4637,-2.4948,-2.5005,-2.5172,-2.5479,-2.5057,-2.5137,-2.5647,-2.5587,-2.6055,-2.6702,-2.6702,-2.7066,-2.7512,-2.6436,-2.6977,-2.7971,-2.649,-2.671,-2.7471,-2.6458,-2.6346,-2.6496,-2.5557,-2.4845,-2.4369,-2.3977,-2.3258,-2.2633,-2.2609,-2.2762,-2.2915,-2.2915,-2.3416,-2.3445,-2.1926,-2.1618,-2.1538,-2.1516,-2.1355,-2.1285,-2.1403,-2.0973,-2.0702,-2.0966,-2.0694,-2.0801,-2.1948,-2.2085,-2.2174,-2.2616,-2.299,-2.2905,-2.2038,-2.2371,-2.2617,-2.2596,-2.283,-2.315,-2.3519,-2.3593,-2.3751,-2.4127,-2.3666,-2.3309,-2.3034,-2.3045,-2.336,-2.3996,-2.3996,-2.4547,0.0,0.0,0.0,0.0,0.0,0.0,0.0,0.0,0.0,0.0,0.0,0.0,0.0,0.0,0.0,0.0,0.0,0.0,0.0,0.0,0.0,0.0,0.0,0.0,0.0,0.0,0.0,0.0,0.0,-2.1975,-2.2616,-2.2714,-2.3017,-2.3628,-2.3819,-2.4041,-2.4376,-2.465,-2.4821,-2.4878,-2.5061,-2.5244,-2.5453,-2.5453,-2.5619,-2.5853,-2.5729,-2.5591,-2.5586,-2.5841,-2.6201,-2.6638,-2.6798,-2.71,-2.7311,-2.7018,-2.7074,-2.7331,-2.7332,-2.704,-2.6707,-2.6687,-2.5993,-2.5132,-2.4798,-2.4237,-2.374,-2.3538,-2.3244,-2.2947,-2.2747,-2.2841,-2.2975,-2.3126,-2.3214,-2.3154,-2.2548,-2.2419,-2.2373,-2.2078,-2.1555,-2.122,-2.1409,-2.1047,-2.1144,-2.2116,-2.1958,-2.2215,-2.3496,-2.3564,-2.3475,-2.3508,-2.397,-2.4107,-2.3589,-2.4063,-2.4423,-2.4424,-2.4532,-2.4585,-2.4659,-2.4733,-2.4966,-2.5187,-2.4893,-2.4597,-2.4425,-2.4276,-2.4687,-2.5493,-2.5493,-2.55,-0.9732,0.0,0.0,0.0,0.0,0.0,0.0,0.0,0.0,0.0,0.0,0.0,0.0,0.0,0.0,0.0,0.0,0.0,0.0,0.0,0.0,0.0,0.0,0.0,0.0,0.0,0.0,0.0,0.0,0.0,-2.2421,-2.2585,-2.3141,-2.4099,-2.4112,-2.442,-2.5118,-2.5244,-2.53,-2.5397,-2.5536,-2.5688,-2.5784,-2.5879,-2.6042,-2.6258,-2.6379,-2.6218,-2.5853,-2.6111,-2.6406,-2.6637,-2.6679,-2.699,-2.7339,-2.6884,-2.6934,-2.7308,-2.7409,-2.7115,-2.6738,-2.6837,-2.6142,-2.5256,-2.4937,-2.4398,-2.3867,-2.3675,-2.359,-2.3492,-2.3269,-2.3515,-2.3855,-2.4133,-2.4118,-2.3982,-2.3857,-2.3306,-2.2748,-2.2466,-2.1989,-2.1754,-2.2037,-2.1778,-2.1942,-2.3165,-2.3039,-2.3162,-2.4227,-2.4345,-2.4273,-2.4127,-2.4634,-2.4763,-2.4362,-2.4992,-2.531,-2.5241,-2.557,-2.5777,-2.5714,-2.5851,-2.6074,-2.6246,-2.595,-2.58,-2.5789,-2.514,-2.5152,-2.58,-2.58,-2.5843,0.0,0.0,0.0,0.0,0.0,0.0,-1.0726,0.0,0.0,0.0,0.0,0.0,0.0,0.0,0.0,0.0,0.0,0.0,0.0,0.0,0.0,0.0,0.0,0.0,0.0,0.0,0.0,0.0,-2.1144,-2.1493,-2.1549,-2.2034,-2.2841,-2.4028,-2.4109,-2.4614,-2.5632,-2.5592,-2.5592,-2.5729,-2.5839,-2.5948,-2.5948,-2.6351,-2.651,-2.6563,-2.7011,-2.6959,-2.6563,-2.6563,-2.6616,-2.6669,-2.6272,-2.6766,-2.7512,-2.6021,-2.6624,-2.7968,-2.663,-2.6914,-2.7748,-2.6878,-2.6869,-2.702,-2.6031,-2.5407,-2.4862,-2.4478,-2.4325,-2.4251,-2.4202,-2.4886,-2.5711,-2.6058,-2.6183,-2.6045,-2.5627,-2.4058,-2.2753,-2.2787,-2.2787,-2.3017,-2.3619,-2.3442,-2.3413,-2.412,-2.3897,-2.3824,-2.42,-2.4418,-2.4562,-2.4562,-2.5052,-2.5064,-2.4307,-2.5063,-2.544,-2.509,-2.5972,-2.6546,-2.6697,-2.6848,-2.7061,-2.7223,-2.7022,-2.6959,-2.6959,-2.555,-2.4837,-2.4908,-2.4897,-2.5493,-1.1418,0.0,0.0,0.0,0.0,0.0,0.0,0.0,0.0,0.0,0.0,0.0,0.0,0.0,0.0,0.0,0.0,0.0,0.0,0.0,0.0,0.0,0.0,0.0,0.0,0.0,0.0,0.0,-2.1256,-2.1648,-2.2034,-2.263,-2.3097,-2.3419,-2.4321,-2.4838,-2.5073,-2.5816,-2.619,-2.6136,-2.6365,-2.6539,-2.6674,-2.6774,-2.6967,-2.7306,-2.7408,-2.7524,-2.759,-2.7357,-2.7049,-2.6721,-2.7049,-2.7047,-2.6823,-2.6861,-2.719,-2.7707,-2.7726,-2.7575,-2.7324,-2.7265,-2.6443,-2.5366,-2.5086,-2.4622,-2.421,-2.4554,-2.4571,-2.46,-2.4772,-2.5052,-2.5254,-2.5287,-2.5115,-2.4983,-2.4917,-2.4352,-2.4044,-2.4306,-2.4378,-2.4495,-2.4778,-2.4661,-2.4649,-2.5158,-2.4957,-2.4957,-2.5407,-2.5489,-2.5477,-2.5336,-2.6017,-2.6335,-2.5997,-2.6808,-2.7339,-2.7345,-2.7609,-2.7706,-2.7629,-2.7794,-2.7946,-2.8022,-2.7654,-2.7654,-2.787,-2.6827,-2.6564,-2.6968,-2.6863,-2.6905,0.0,0.0,0.0,0.0,0.0,0.0,-1.2255,-1.2403,-1.2616,0.0,0.0,0.0,0.0,0.0,0.0,0.0,0.0,0.0,0.0,0.0,0.0,0.0,0.0,0.0,0.0,-1.9389,-1.9944,-2.0481,-2.0885,-2.1366,-2.1903,-2.2277,-2.2692,-2.3142,-2.3807,-2.4498,-2.5213,-2.574,-2.6251,-2.6669,-2.6841,-2.7011,-2.7218,-2.7255,-2.7509,-2.7875,-2.794,-2.7989,-2.8103,-2.8039,-2.776,-2.7357,-2.7342,-2.7291,-2.7188,-2.7203,-2.7231,-2.7306,-2.7639,-2.7283,-2.6809,-2.7108,-2.6457,-2.548,-2.5362,-2.5157,-2.5104,-2.5256,-2.558,-2.591,-2.6245,-2.6272,-2.6207,-2.622,-2.6012,-2.5803,-2.5803,-2.5684,-2.5403,-2.4752,-2.4638,-2.478,-2.5147,-2.5033,-2.5105,-2.5779,-2.5788,-2.5934,-2.63,-2.6569,-2.6646,-2.6574,-2.7276,-2.7516,-2.7025,-2.7849,-2.8378,-2.8228,-2.8545,-2.8728,-2.8562,-2.8818,-2.8971,-2.9035,-2.8805,-2.8805,-2.9099,-2.7802,-2.7311,-2.7601,-2.8015,-2.8048,0.0,0.0,0.0,0.0,0.0,0.0,-1.3112,-1.3256,-1.3362,-1.3505,-1.398,0.0,0.0,0.0,0.0,0.0,0.0,0.0,0.0,0.0,0.0,0.0,0.0,0.0,-1.904,-1.9396,-1.9708,-1.9901,-2.0409,-2.0908,-2.1375,-2.1471,-2.1945,-2.2985,-2.3007,-2.383,-2.556,-2.5517,-2.6031,-2.7115,-2.724,-2.7408,-2.7565,-2.776,-2.8039,-2.8235,-2.8348,-2.8396,-2.8268,-2.8477,-2.8414,-2.8073,-2.7494,-2.7595,-2.8024,-2.7225,-2.6901,-2.6832,-2.6805,-2.658,-2.6345,-2.6739,-2.6796,-2.6674,-2.6321,-2.6494,-2.6714,-2.6344,-2.683,-2.7514,-2.7933,-2.7934,-2.7855,-2.8079,-2.7868,-2.759,-2.759,-2.7536,-2.6891,-2.495,-2.4501,-2.4595,-2.5264,-2.5204,-2.5364,-2.6227,-2.6433,-2.6623,-2.7042,-2.7538,-2.7875,-2.8036,-2.8609,-2.8622,-2.7792,-2.8537,-2.8862,-2.8418,-2.908,-2.9419,-2.9419,-2.9767,-2.9921,-3.0037,-3.0114,-3.019,-3.0393,-2.8712,-2.7826,-2.7612,-2.875,-2.9126,0.0,0.0,0.0,0.0,0.0,0.0,-1.3978,-1.4118,-1.4258,0.0,-1.4567,0.0,0.0,0.0,0.0,0.0,0.0,0.0,0.0,0.0,0.0,0.0,0.0,0.0,-1.9604,-1.9695,-2.0003,-2.0547,-2.1202,-2.1506,-2.1423,-2.1902,-2.224,-2.2353,-2.3226,-2.3865,-2.411,-2.5614,-2.6451,-2.6584,-2.7519,-2.8039,-2.8073,-2.8332,-2.8477,-2.8525,-2.8525,-2.8653,-2.8716,-2.8463,-2.8189,-2.789,-2.8088,-2.7959,-2.7615,-2.7297,-2.6901,-2.6422,-2.6694,-2.6523,-2.6274,-2.6891,-2.7023,-2.6936,-2.6873,-2.6821,-2.683,-2.7107,-2.7447,-2.7762,-2.7815,-2.7934,-2.8079,-2.8079,-2.8276,-2.8392,-2.8392,-2.8327,-2.8182,-2.7603,-2.6919,-2.6569,-2.694,-2.6886,-2.6857,-2.704,-2.7007,-2.71,-2.764,-2.7934,-2.8318,-2.8938,-2.9823,-3.0073,-2.9417,-2.963,-2.9566,-2.918,-2.9499,-2.9626,-2.9626,-3.0165,-3.0469,-3.0456,-3.0722,-3.0823,-3.0823,-3.0637,-3.0147,-2.9541,-3.0307,-3.0445,0.0,0.0,0.0,-1.4766,0.0,0.0,0.0,-1.4949,-1.5085,-1.513,-1.5311,-1.5572,-1.5923,0.0,0.0,0.0,0.0,0.0,0.0,0.0,0.0,0.0,0.0,0.0,-2.0055,-2.0271,-2.066,-2.1251,-2.1554,-2.1746,-2.1902,-2.2137,-2.237,-2.254,-2.304,-2.3557,-2.3985,-2.5364,-2.6258,-2.6733,-2.7817,-2.8429,-2.8653,-2.8668,-2.8779,-2.8858,-2.8858,-2.8842,-2.8826,-2.8858,-2.8637,-2.8268,-2.8268,-2.8107,-2.791,-2.7363,-2.6967,-2.6664,-2.6819,-2.661,-2.6288,-2.683,-2.7097,-2.7155,-2.7097,-2.7412,-2.7917,-2.8388,-2.8584,-2.8688,-2.8688,-2.8688,-2.8688,-2.8844,-2.8844,-2.8844,-2.8944,-2.8817,-2.8688,-2.8688,-2.8235,-2.7908,-2.7908,-2.7908,-2.7908,-2.7921,-2.8026,-2.8168,-2.8607,-2.9161,-2.9636,-2.9926,-3.0842,-3.1116,-3.0468,-3.0641,-3.0646,-3.0203,-3.033,-3.0469,-3.0469,-3.0846,-3.1158,-3.1246,-3.1495,-3.1582,-3.1582,-3.1763,-3.1309,-3.0388,-3.0833,-3.0847,0.0,0.0,0.0,0.0,0.0,-1.5724,0.0,0.0,0.0,-1.6008,-1.6151,0.0,0.0,0.0,0.0,0.0,0.0,0.0,0.0,0.0,0.0,0.0,0.0,0.0,-2.061,-2.097,-2.1423,-2.1793,-2.1841,-2.203,-2.237,-2.2417,-2.2586,-2.2889,-2.2889,-2.3287,-2.4177,-2.4999,-2.5937,-2.6885,-2.7873,-2.8591,-2.9075,-2.8967,-2.8951,-2.9121,-2.9121,-2.9029,-2.892,-2.9321,-2.9213,-2.8826,-2.8431,-2.8301,-2.825,-2.7494,-2.7137,-2.6966,-2.7006,-2.674,-2.6426,-2.6874,-2.7314,-2.771,-2.7655,-2.8337,-2.9171,-2.951,-2.9602,-2.954,-2.954,-2.9449,-2.9387,-2.954,-2.9415,-2.9338,-2.9449,-2.9247,-2.9071,-2.9289,-2.9198,-2.898,-2.8546,-2.8546,-2.8665,-2.8787,-2.9011,-2.9322,-2.9686,-3.0427,-3.1003,-3.0954,-3.1757,-3.1982,-3.1421,-3.1542,-3.1542,-3.1198,-3.1233,-3.1294,-3.1294,-3.1616,-3.1863,-3.2023,-3.2169,-3.2314,-3.2386,-3.2503,-3.2027,-3.1066,-3.1307,-3.1294,0.0,0.0,0.0,0.0,-1.6466,0.0,0.0,0.0,-1.6778,-1.6866,0.0,0.0,0.0,0.0,0.0,0.0,0.0,0.0,-1.894,0.0,0.0,-2.0868,0.0,0.0,0.0,-2.1841,-2.2044,-2.1996,-2.2434,-2.2678,-2.2417,-2.2904,-2.3083,-2.2889,-2.3231,-2.348,-2.3671,-2.4712,-2.5663,-2.6457,-2.7606,-2.8385,-2.892,-2.9167,-2.9259,-2.9259,-2.9167,-2.9275,-2.9592,-2.9531,-2.9441,-2.9382,-2.9075,-2.8653,-2.8186,-2.7795,-2.7327,-2.6916,-2.6884,-2.6779,-2.6785,-2.753,-2.8407,-2.9275,-2.9643,-2.9718,-2.9723,-2.9732,-2.956,-2.931,-2.931,-2.9449,-2.954,-2.9602,-2.9803,-2.9988,-2.9988,-2.9988,-2.9988,-2.9988,-3.0083,-2.9931,-2.931,-2.9071,-2.9137,-2.9515,-2.9481,-2.9781,-3.0697,-3.1094,-3.152,-3.2109,-3.2591,-3.2775,-3.2561,-3.2245,-3.1942,-3.1723,-3.1723,-3.1723,-3.1723,-3.2245,-3.2489,-3.2345,-3.2561,-3.2846,-3.3213,-3.3199,-3.2875,-3.2249,-3.282,-3.282,0.0,0.0,0.0,0.0,0.0,0.0,-1.7338,0.0,-1.7557,0.0,0.0,0.0,0.0,0.0,0.0,0.0,-1.8514,0.0,0.0,0.0,-2.0454,0.0,0.0,0.0,0.0,0.0,0.0,0.0,-2.2709,-2.2799,-2.2918,-2.2994,-2.3127,-2.3231,-2.3436,-2.3566,-2.3595,-2.4722,-2.5656,-2.6512,-2.757,-2.8503,-2.9259,-2.9457,-2.9457,-2.9305,-2.947,-2.947,-2.9486,-2.9681,-2.9576,-2.9412,-2.9412,-2.9029,-2.835,-2.7963,-2.8006,-2.8237,-2.815,-2.8389,-2.8862,-2.9514,-2.9933,-3.033,-3.0924,-3.0999,-3.0896,-3.0896,-3.0763,-3.0629,-3.0748,-3.0822,-3.0837,-3.0984,-3.1116,-3.1146,-3.1043,-3.1323,-3.1471,-3.0984,-3.1264,-3.1396,-3.0702,-3.0368,-3.0221,-3.0331,-3.0498,-3.0796,-3.124,-3.1681,-3.2,-3.2179,-3.2807,-3.3086,-3.2704,-3.269,-3.2533,-3.2318,-3.2676,-3.2747,-3.2533,-3.2974,-3.3129,-3.2917,-3.2988,-3.3255,-3.3589,-3.3742,-3.3604,-3.3381,-3.3534,-3.352,-1.7988,0.0,0.0,0.0,0.0,0.0,0.0,0.0,0.0,0.0,0.0,0.0,0.0,0.0,0.0,0.0,0.0,-1.917,0.0,0.0,0.0,0.0,0.0,0.0,0.0,0.0,0.0,-2.3201,-2.3113,-2.3113,-2.3319,-2.326,-2.3304,-2.3538,-2.3653,-2.3767,-2.3782,-2.4694,-2.5579,-2.6451,-2.7462,-2.8395,-2.9275,-2.9585,-2.9621,-2.947,-2.9722,-2.9694,-2.9486,-2.9814,-2.9726,-2.9441,-2.9637,-2.9305,-2.8716,-2.8367,-2.8701,-2.93,-2.9265,-2.9802,-3.0637,-3.1052,-3.118,-3.1353,-3.1896,-3.1951,-3.1853,-3.1853,-3.1724,-3.1652,-3.1879,-3.1838,-3.1766,-3.1977,-3.1977,-3.1879,-3.1781,-3.2086,-3.2282,-3.17,-3.1927,-3.2048,-3.1569,-3.1247,-3.1147,-3.1415,-3.1618,-3.1863,-3.2269,-3.2588,-3.272,-3.2513,-3.3059,-3.3312,-3.3058,-3.3199,-3.3269,-3.3241,-3.3618,-3.3687,-3.3409,-3.3687,-3.3616,-3.3224,-3.3293,-3.34,-3.3566,-3.3752,-3.39,-3.3966,-3.4047,-3.4085,0.0,0.0,0.0,-1.8784,0.0,0.0,0.0,0.0,-1.8907,0.0,0.0,0.0,0.0,0.0,0.0,0.0,0.0,0.0,0.0,0.0,0.0,0.0,0.0,0.0,0.0,-2.3363,-2.3406,-2.3551,-2.3696,-2.3668,-2.3509,-2.3812,-2.3839,-2.3595,-2.3894,-2.4162,-2.4261,-2.4645,-2.5208,-2.604,-2.7086,-2.7975,-2.8683,-2.9459,-2.981,-2.981,-2.9913,-2.9946,-2.9902,-2.9973,-2.9858,-2.9697,-2.9697,-2.9608,-2.9428,-2.9167,-2.928,-2.9596,-2.9728,-3.0565,-3.1542,-3.1557,-3.1952,-3.2367,-3.2382,-3.2287,-3.2191,-3.2191,-3.2064,-3.1879,-3.1879,-3.1879,-3.1879,-3.1879,-3.1879,-3.1879,-3.1879,-3.1796,-3.1697,-3.1682,-3.1625,-3.1509,-3.148,-3.1409,-3.1679,-3.2939,-3.2694,-3.2854,-3.4129,-3.4045,-3.3785,-3.3577,-3.3744,-3.3882,-3.377,-3.3977,-3.4167,-3.4528,-3.4452,-3.4399,-3.437,-3.4399,-3.396,-3.3111,-3.331,-3.3281,-3.3,-3.3173,-3.3406,-3.3743,-3.4525,-3.4817,0.0,0.0,-1.9479,-1.9581,0.0,0.0,0.0,0.0,0.0,0.0,0.0,0.0,0.0,0.0,0.0,0.0,0.0,0.0,0.0,0.0,0.0,0.0,0.0,0.0,0.0,0.0,0.0,-2.4036,-2.4036,-2.3952,-2.3909,-2.3994,-2.4036,-2.3937,-2.4219,-2.44,-2.4508,-2.4791,-2.5338,-2.6181,-2.672,-2.7583,-2.8747,-2.9244,-2.9646,-2.9957,-3.0146,-3.0103,-2.987,-3.006,-2.9973,-2.9782,-2.9973,-2.9946,-2.9814,-2.9457,-3.0099,-3.1214,-3.2153,-3.279,-3.3137,-3.3034,-3.3228,-3.3507,-3.3419,-3.3314,-3.3208,-3.3208,-3.3011,-3.2888,-3.3049,-3.3049,-3.2996,-3.3087,-3.3049,-3.2888,-3.2742,-3.3084,-3.327,-3.2631,-3.2838,-3.2921,-3.2308,-3.212,-3.2234,-3.2877,-3.3074,-3.3529,-3.4455,-3.4423,-3.4356,-3.4288,-3.4438,-3.4452,-3.4196,-3.4264,-3.4385,-3.4595,-3.4376,-3.417,-3.3944,-3.378,-3.3583,-3.3172,-3.3347,-3.3478,-3.3577,-3.3638,-3.3744,-3.3819,-3.4089,-3.443,-1.996,-2.003,0.0,-2.015,-2.0166,0.0,-2.0166,0.0,0.0,0.0,0.0,0.0,0.0,0.0,0.0,0.0,0.0,0.0,0.0,-2.114,0.0,0.0,0.0,0.0,0.0,0.0,-2.4549,-2.4549,-2.4467,-2.441,0.0,0.0,-2.441,-2.4395,-2.4589,-2.4766,-2.4831,-2.5045,-2.5463,-2.6069,-2.6467,-2.7331,-2.8608,-2.9067,-2.9617,-3.0162,-3.0401,-3.03,-2.9957,-3.0231,-3.0172,-3.0027,-3.0189,-3.0231,-3.0179,-3.0089,-3.0999,-3.2418,-3.3596,-3.4,-3.405,-3.4,-3.405,-3.4151,-3.405,-3.3949,-3.3848,-3.3848,-3.3694,-3.3607,-3.3745,-3.371,-3.3642,-3.3694,-3.3642,-3.3618,-3.3731,-3.3868,-3.384,-3.3558,-3.3521,-3.3458,-3.3271,-3.2788,-3.2691,-3.3381,-3.3627,-3.4016,-3.497,-3.4993,-3.4861,-3.4743,-3.4905,-3.492,-3.4668,-3.475,-3.4765,-3.4747,-3.4505,-3.4193,-3.3799,-3.3679,-3.3501,-3.33,-3.3291,-3.3517,-3.3984,-3.3874,-3.387,-3.3986,-3.4232,-3.4344]}]]